<?xml version="1.0" encoding="UTF-8" standalone="no" ?>
<gpx xmlns="http://www.topografix.com/GPX/1/1" xmlns:xsi="http://www.w3.org/2001/XMLSchema-instance" xsi:schemaLocation="http://www.topografix.com/GPX/1/1 http://www.topografix.com/GPX/1/1/gpx.xsd" version="1.1" creator="VisuGPX - https://www.visugpx.com">
  <metadata>
    <name>Tour de Pont l'Evêque nord ouest</name>
  </metadata>
  <trk>
    <name><![CDATA[2020-12-18 12:34:02 Jour]]></name>
    <trkseg>
      <trkpt lat="49.28483" lon="0.18002">
        <ele>-36.39</ele>
        <time>2020-12-18T11:34:02Z</time>
      </trkpt>
      <trkpt lat="49.28483" lon="0.18003">
        <ele>-36.39</ele>
        <time>2020-12-18T11:34:03Z</time>
      </trkpt>
      <trkpt lat="49.28473" lon="0.17968">
        <ele>-36.39</ele>
        <time>2020-12-18T11:34:14Z</time>
      </trkpt>
      <trkpt lat="49.28477" lon="0.17971">
        <ele>-36.39</ele>
        <time>2020-12-18T11:34:18Z</time>
      </trkpt>
      <trkpt lat="49.28492" lon="0.17988">
        <ele>-31.11</ele>
        <time>2020-12-18T11:34:35Z</time>
      </trkpt>
      <trkpt lat="49.28493" lon="0.1799">
        <ele>-25.82</ele>
        <time>2020-12-18T11:34:37Z</time>
      </trkpt>
      <trkpt lat="49.28495" lon="0.17991">
        <ele>-19.09</ele>
        <time>2020-12-18T11:34:39Z</time>
      </trkpt>
      <trkpt lat="49.28495" lon="0.17992">
        <ele>-19.09</ele>
        <time>2020-12-18T11:34:40Z</time>
      </trkpt>
      <trkpt lat="49.28497" lon="0.17996">
        <ele>-15.24</ele>
        <time>2020-12-18T11:34:42Z</time>
      </trkpt>
      <trkpt lat="49.28498" lon="0.17999">
        <ele>-11.4</ele>
        <time>2020-12-18T11:34:44Z</time>
      </trkpt>
      <trkpt lat="49.28498" lon="0.18002">
        <ele>-7.55</ele>
        <time>2020-12-18T11:34:46Z</time>
      </trkpt>
      <trkpt lat="49.28499" lon="0.18005">
        <ele>-4.67</ele>
        <time>2020-12-18T11:34:48Z</time>
      </trkpt>
      <trkpt lat="49.28501" lon="0.18007">
        <ele>-1.3</ele>
        <time>2020-12-18T11:34:50Z</time>
      </trkpt>
      <trkpt lat="49.28504" lon="0.1801">
        <ele>2.54</ele>
        <time>2020-12-18T11:34:53Z</time>
      </trkpt>
      <trkpt lat="49.28507" lon="0.18013">
        <ele>6.39</ele>
        <time>2020-12-18T11:34:56Z</time>
      </trkpt>
      <trkpt lat="49.2851" lon="0.18016">
        <ele>9.75</ele>
        <time>2020-12-18T11:34:59Z</time>
      </trkpt>
      <trkpt lat="49.28514" lon="0.18022">
        <ele>13.6</ele>
        <time>2020-12-18T11:35:03Z</time>
      </trkpt>
      <trkpt lat="49.28516" lon="0.18026">
        <ele>16.96</ele>
        <time>2020-12-18T11:35:06Z</time>
      </trkpt>
      <trkpt lat="49.28518" lon="0.18032">
        <ele>18.4</ele>
        <time>2020-12-18T11:35:09Z</time>
      </trkpt>
      <trkpt lat="49.28522" lon="0.18035">
        <ele>21.77</ele>
        <time>2020-12-18T11:35:14Z</time>
      </trkpt>
      <trkpt lat="49.2853" lon="0.18034">
        <ele>25.13</ele>
        <time>2020-12-18T11:35:21Z</time>
      </trkpt>
      <trkpt lat="49.28538" lon="0.18046">
        <ele>28.02</ele>
        <time>2020-12-18T11:35:30Z</time>
      </trkpt>
      <trkpt lat="49.28543" lon="0.18101">
        <ele>29.94</ele>
        <time>2020-12-18T11:35:54Z</time>
      </trkpt>
      <trkpt lat="49.28553" lon="0.18133">
        <ele>29.94</ele>
        <time>2020-12-18T11:36:17Z</time>
      </trkpt>
      <trkpt lat="49.28561" lon="0.18162">
        <ele>29.46</ele>
        <time>2020-12-18T11:36:39Z</time>
      </trkpt>
      <trkpt lat="49.28557" lon="0.18187">
        <ele>29.46</ele>
        <time>2020-12-18T11:36:49Z</time>
      </trkpt>
      <trkpt lat="49.28579" lon="0.18222">
        <ele>29.94</ele>
        <time>2020-12-18T11:37:10Z</time>
      </trkpt>
      <trkpt lat="49.28595" lon="0.1826">
        <ele>29.94</ele>
        <time>2020-12-18T11:37:34Z</time>
      </trkpt>
      <trkpt lat="49.286" lon="0.18271">
        <ele>29.94</ele>
        <time>2020-12-18T11:37:44Z</time>
      </trkpt>
      <trkpt lat="49.286" lon="0.18275">
        <ele>29.94</ele>
        <time>2020-12-18T11:37:48Z</time>
      </trkpt>
      <trkpt lat="49.28605" lon="0.1831">
        <ele>30.9</ele>
        <time>2020-12-18T11:38:10Z</time>
      </trkpt>
      <trkpt lat="49.28616" lon="0.18342">
        <ele>30.42</ele>
        <time>2020-12-18T11:38:32Z</time>
      </trkpt>
      <trkpt lat="49.28616" lon="0.18347">
        <ele>30.42</ele>
        <time>2020-12-18T11:38:34Z</time>
      </trkpt>
      <trkpt lat="49.28733" lon="0.18469">
        <ele>28.98</ele>
        <time>2020-12-18T11:38:51Z</time>
      </trkpt>
      <trkpt lat="49.28699" lon="0.18568">
        <ele>28.5</ele>
        <time>2020-12-18T11:39:11Z</time>
      </trkpt>
      <trkpt lat="49.28662" lon="0.18489">
        <ele>28.02</ele>
        <time>2020-12-18T11:39:26Z</time>
      </trkpt>
      <trkpt lat="49.28659" lon="0.18472">
        <ele>27.05</ele>
        <time>2020-12-18T11:39:46Z</time>
      </trkpt>
      <trkpt lat="49.28683" lon="0.1847">
        <ele>27.05</ele>
        <time>2020-12-18T11:40:05Z</time>
      </trkpt>
      <trkpt lat="49.28702" lon="0.18466">
        <ele>25.13</ele>
        <time>2020-12-18T11:40:28Z</time>
      </trkpt>
      <trkpt lat="49.28616" lon="0.18566">
        <ele>25.13</ele>
        <time>2020-12-18T11:40:41Z</time>
      </trkpt>
      <trkpt lat="49.28646" lon="0.18594">
        <ele>23.21</ele>
        <time>2020-12-18T11:41:00Z</time>
      </trkpt>
      <trkpt lat="49.28662" lon="0.18616">
        <ele>21.29</ele>
        <time>2020-12-18T11:41:22Z</time>
      </trkpt>
      <trkpt lat="49.28665" lon="0.18629">
        <ele>20.81</ele>
        <time>2020-12-18T11:41:28Z</time>
      </trkpt>
      <trkpt lat="49.28701" lon="0.18637">
        <ele>20.32</ele>
        <time>2020-12-18T11:41:47Z</time>
      </trkpt>
      <trkpt lat="49.28725" lon="0.18669">
        <ele>19.36</ele>
        <time>2020-12-18T11:42:12Z</time>
      </trkpt>
      <trkpt lat="49.28739" lon="0.18693">
        <ele>19.36</ele>
        <time>2020-12-18T11:42:29Z</time>
      </trkpt>
      <trkpt lat="49.28777" lon="0.18696">
        <ele>19.36</ele>
        <time>2020-12-18T11:42:54Z</time>
      </trkpt>
      <trkpt lat="49.28786" lon="0.18694">
        <ele>17.92</ele>
        <time>2020-12-18T11:43:04Z</time>
      </trkpt>
      <trkpt lat="49.28794" lon="0.18692">
        <ele>17.92</ele>
        <time>2020-12-18T11:43:12Z</time>
      </trkpt>
      <trkpt lat="49.28829" lon="0.18691">
        <ele>17.92</ele>
        <time>2020-12-18T11:43:32Z</time>
      </trkpt>
      <trkpt lat="49.28832" lon="0.18718">
        <ele>18.88</ele>
        <time>2020-12-18T11:43:48Z</time>
      </trkpt>
      <trkpt lat="49.28856" lon="0.18746">
        <ele>18.88</ele>
        <time>2020-12-18T11:44:15Z</time>
      </trkpt>
      <trkpt lat="49.2888" lon="0.1877">
        <ele>18.4</ele>
        <time>2020-12-18T11:44:37Z</time>
      </trkpt>
      <trkpt lat="49.28912" lon="0.18793">
        <ele>18.4</ele>
        <time>2020-12-18T11:44:59Z</time>
      </trkpt>
      <trkpt lat="49.28946" lon="0.18809">
        <ele>18.4</ele>
        <time>2020-12-18T11:45:21Z</time>
      </trkpt>
      <trkpt lat="49.28955" lon="0.18816">
        <ele>16.48</ele>
        <time>2020-12-18T11:45:27Z</time>
      </trkpt>
      <trkpt lat="49.28959" lon="0.18821">
        <ele>18.4</ele>
        <time>2020-12-18T11:45:32Z</time>
      </trkpt>
      <trkpt lat="49.28963" lon="0.18826">
        <ele>16.96</ele>
        <time>2020-12-18T11:45:37Z</time>
      </trkpt>
      <trkpt lat="49.28983" lon="0.18855">
        <ele>16.48</ele>
        <time>2020-12-18T11:46:01Z</time>
      </trkpt>
      <trkpt lat="49.28997" lon="0.18886">
        <ele>16.48</ele>
        <time>2020-12-18T11:46:19Z</time>
      </trkpt>
      <trkpt lat="49.29015" lon="0.18911">
        <ele>17.44</ele>
        <time>2020-12-18T11:46:39Z</time>
      </trkpt>
      <trkpt lat="49.29036" lon="0.1894">
        <ele>17.44</ele>
        <time>2020-12-18T11:47:03Z</time>
      </trkpt>
      <trkpt lat="49.29057" lon="0.18967">
        <ele>17.44</ele>
        <time>2020-12-18T11:47:25Z</time>
      </trkpt>
      <trkpt lat="49.29065" lon="0.18991">
        <ele>16.96</ele>
        <time>2020-12-18T11:47:44Z</time>
      </trkpt>
      <trkpt lat="49.29078" lon="0.19017">
        <ele>18.4</ele>
        <time>2020-12-18T11:48:04Z</time>
      </trkpt>
      <trkpt lat="49.29093" lon="0.19038">
        <ele>17.92</ele>
        <time>2020-12-18T11:48:22Z</time>
      </trkpt>
      <trkpt lat="49.2912" lon="0.19016">
        <ele>17.92</ele>
        <time>2020-12-18T11:48:41Z</time>
      </trkpt>
      <trkpt lat="49.29134" lon="0.19003">
        <ele>17.92</ele>
        <time>2020-12-18T11:48:53Z</time>
      </trkpt>
      <trkpt lat="49.2915" lon="0.18979">
        <ele>17.92</ele>
        <time>2020-12-18T11:49:17Z</time>
      </trkpt>
      <trkpt lat="49.29171" lon="0.18973">
        <ele>18.4</ele>
        <time>2020-12-18T11:49:41Z</time>
      </trkpt>
      <trkpt lat="49.29196" lon="0.18977">
        <ele>19.84</ele>
        <time>2020-12-18T11:50:01Z</time>
      </trkpt>
      <trkpt lat="49.29228" lon="0.18958">
        <ele>20.32</ele>
        <time>2020-12-18T11:50:23Z</time>
      </trkpt>
      <trkpt lat="49.2927" lon="0.18943">
        <ele>21.77</ele>
        <time>2020-12-18T11:50:50Z</time>
      </trkpt>
      <trkpt lat="49.29304" lon="0.18932">
        <ele>22.73</ele>
        <time>2020-12-18T11:51:13Z</time>
      </trkpt>
      <trkpt lat="49.29331" lon="0.18915">
        <ele>24.17</ele>
        <time>2020-12-18T11:51:35Z</time>
      </trkpt>
      <trkpt lat="49.29331" lon="0.18905">
        <ele>25.13</ele>
        <time>2020-12-18T11:51:49Z</time>
      </trkpt>
      <trkpt lat="49.29353" lon="0.18906">
        <ele>26.09</ele>
        <time>2020-12-18T11:52:10Z</time>
      </trkpt>
      <trkpt lat="49.29366" lon="0.18905">
        <ele>26.57</ele>
        <time>2020-12-18T11:52:31Z</time>
      </trkpt>
      <trkpt lat="49.29396" lon="0.18892">
        <ele>27.53</ele>
        <time>2020-12-18T11:52:59Z</time>
      </trkpt>
      <trkpt lat="49.29417" lon="0.18895">
        <ele>27.53</ele>
        <time>2020-12-18T11:53:22Z</time>
      </trkpt>
      <trkpt lat="49.29411" lon="0.18889">
        <ele>28.02</ele>
        <time>2020-12-18T11:53:32Z</time>
      </trkpt>
      <trkpt lat="49.29384" lon="0.18865">
        <ele>29.46</ele>
        <time>2020-12-18T11:53:54Z</time>
      </trkpt>
      <trkpt lat="49.29393" lon="0.1886">
        <ele>29.94</ele>
        <time>2020-12-18T11:54:08Z</time>
      </trkpt>
      <trkpt lat="49.29414" lon="0.18872">
        <ele>29.46</ele>
        <time>2020-12-18T11:54:27Z</time>
      </trkpt>
      <trkpt lat="49.29422" lon="0.18879">
        <ele>27.53</ele>
        <time>2020-12-18T11:54:42Z</time>
      </trkpt>
      <trkpt lat="49.29431" lon="0.1889">
        <ele>30.9</ele>
        <time>2020-12-18T11:54:54Z</time>
      </trkpt>
      <trkpt lat="49.29435" lon="0.18895">
        <ele>29.46</ele>
        <time>2020-12-18T11:54:59Z</time>
      </trkpt>
      <trkpt lat="49.29461" lon="0.18918">
        <ele>29.46</ele>
        <time>2020-12-18T11:55:26Z</time>
      </trkpt>
      <trkpt lat="49.29469" lon="0.18927">
        <ele>30.9</ele>
        <time>2020-12-18T11:55:35Z</time>
      </trkpt>
      <trkpt lat="49.29499" lon="0.18957">
        <ele>30.9</ele>
        <time>2020-12-18T11:56:05Z</time>
      </trkpt>
      <trkpt lat="49.29501" lon="0.18958">
        <ele>30.9</ele>
        <time>2020-12-18T11:56:06Z</time>
      </trkpt>
      <trkpt lat="49.29518" lon="0.18971">
        <ele>29.94</ele>
        <time>2020-12-18T11:56:20Z</time>
      </trkpt>
      <trkpt lat="49.29533" lon="0.18987">
        <ele>30.9</ele>
        <time>2020-12-18T11:56:41Z</time>
      </trkpt>
      <trkpt lat="49.29553" lon="0.19013">
        <ele>30.9</ele>
        <time>2020-12-18T11:57:06Z</time>
      </trkpt>
      <trkpt lat="49.29569" lon="0.1904">
        <ele>30.9</ele>
        <time>2020-12-18T11:57:29Z</time>
      </trkpt>
      <trkpt lat="49.29587" lon="0.19069">
        <ele>31.38</ele>
        <time>2020-12-18T11:57:51Z</time>
      </trkpt>
      <trkpt lat="49.296" lon="0.19091">
        <ele>31.86</ele>
        <time>2020-12-18T11:58:10Z</time>
      </trkpt>
      <trkpt lat="49.29617" lon="0.19121">
        <ele>31.86</ele>
        <time>2020-12-18T11:58:33Z</time>
      </trkpt>
      <trkpt lat="49.29634" lon="0.19157">
        <ele>31.86</ele>
        <time>2020-12-18T11:58:57Z</time>
      </trkpt>
      <trkpt lat="49.29652" lon="0.19184">
        <ele>31.86</ele>
        <time>2020-12-18T11:59:19Z</time>
      </trkpt>
      <trkpt lat="49.29667" lon="0.19228">
        <ele>31.86</ele>
        <time>2020-12-18T11:59:43Z</time>
      </trkpt>
      <trkpt lat="49.29678" lon="0.19267">
        <ele>32.34</ele>
        <time>2020-12-18T12:00:06Z</time>
      </trkpt>
      <trkpt lat="49.29683" lon="0.19322">
        <ele>32.82</ele>
        <time>2020-12-18T12:00:36Z</time>
      </trkpt>
      <trkpt lat="49.29707" lon="0.19352">
        <ele>32.82</ele>
        <time>2020-12-18T12:00:57Z</time>
      </trkpt>
      <trkpt lat="49.29715" lon="0.19386">
        <ele>32.82</ele>
        <time>2020-12-18T12:01:19Z</time>
      </trkpt>
      <trkpt lat="49.2972" lon="0.19432">
        <ele>33.3</ele>
        <time>2020-12-18T12:01:44Z</time>
      </trkpt>
      <trkpt lat="49.29725" lon="0.19472">
        <ele>33.78</ele>
        <time>2020-12-18T12:02:06Z</time>
      </trkpt>
      <trkpt lat="49.29727" lon="0.19507">
        <ele>33.78</ele>
        <time>2020-12-18T12:02:28Z</time>
      </trkpt>
      <trkpt lat="49.29736" lon="0.1955">
        <ele>34.74</ele>
        <time>2020-12-18T12:02:49Z</time>
      </trkpt>
      <trkpt lat="49.29728" lon="0.19571">
        <ele>34.74</ele>
        <time>2020-12-18T12:03:08Z</time>
      </trkpt>
      <trkpt lat="49.29723" lon="0.19576">
        <ele>31.86</ele>
        <time>2020-12-18T12:03:27Z</time>
      </trkpt>
      <trkpt lat="49.29724" lon="0.19576">
        <ele>34.26</ele>
        <time>2020-12-18T12:03:29Z</time>
      </trkpt>
      <trkpt lat="49.29714" lon="0.19573">
        <ele>38.11</ele>
        <time>2020-12-18T12:03:46Z</time>
      </trkpt>
      <trkpt lat="49.29708" lon="0.1959">
        <ele>39.55</ele>
        <time>2020-12-18T12:04:06Z</time>
      </trkpt>
      <trkpt lat="49.29709" lon="0.19604">
        <ele>39.55</ele>
        <time>2020-12-18T12:04:20Z</time>
      </trkpt>
      <trkpt lat="49.29714" lon="0.19646">
        <ele>40.03</ele>
        <time>2020-12-18T12:04:42Z</time>
      </trkpt>
      <trkpt lat="49.29713" lon="0.19679">
        <ele>40.99</ele>
        <time>2020-12-18T12:05:04Z</time>
      </trkpt>
      <trkpt lat="49.29723" lon="0.19701">
        <ele>40.99</ele>
        <time>2020-12-18T12:05:24Z</time>
      </trkpt>
      <trkpt lat="49.29739" lon="0.19708">
        <ele>41.47</ele>
        <time>2020-12-18T12:05:44Z</time>
      </trkpt>
      <trkpt lat="49.29767" lon="0.19703">
        <ele>41.47</ele>
        <time>2020-12-18T12:06:10Z</time>
      </trkpt>
      <trkpt lat="49.29792" lon="0.1969">
        <ele>43.88</ele>
        <time>2020-12-18T12:06:32Z</time>
      </trkpt>
      <trkpt lat="49.29798" lon="0.19686">
        <ele>43.88</ele>
        <time>2020-12-18T12:06:36Z</time>
      </trkpt>
      <trkpt lat="49.29823" lon="0.19661">
        <ele>44.36</ele>
        <time>2020-12-18T12:06:59Z</time>
      </trkpt>
      <trkpt lat="49.29849" lon="0.19647">
        <ele>44.84</ele>
        <time>2020-12-18T12:07:22Z</time>
      </trkpt>
      <trkpt lat="49.29879" lon="0.19627">
        <ele>44.84</ele>
        <time>2020-12-18T12:07:48Z</time>
      </trkpt>
      <trkpt lat="49.29908" lon="0.19611">
        <ele>43.88</ele>
        <time>2020-12-18T12:08:14Z</time>
      </trkpt>
      <trkpt lat="49.29936" lon="0.1958">
        <ele>42.92</ele>
        <time>2020-12-18T12:08:42Z</time>
      </trkpt>
      <trkpt lat="49.29943" lon="0.1953">
        <ele>42.92</ele>
        <time>2020-12-18T12:09:07Z</time>
      </trkpt>
      <trkpt lat="49.29958" lon="0.1951">
        <ele>43.4</ele>
        <time>2020-12-18T12:09:25Z</time>
      </trkpt>
      <trkpt lat="49.2996" lon="0.1951">
        <ele>43.88</ele>
        <time>2020-12-18T12:09:32Z</time>
      </trkpt>
      <trkpt lat="49.29963" lon="0.19508">
        <ele>42.44</ele>
        <time>2020-12-18T12:09:40Z</time>
      </trkpt>
      <trkpt lat="49.29984" lon="0.19493">
        <ele>43.88</ele>
        <time>2020-12-18T12:10:02Z</time>
      </trkpt>
      <trkpt lat="49.29999" lon="0.19477">
        <ele>44.84</ele>
        <time>2020-12-18T12:10:24Z</time>
      </trkpt>
      <trkpt lat="49.30009" lon="0.1947">
        <ele>44.84</ele>
        <time>2020-12-18T12:10:44Z</time>
      </trkpt>
      <trkpt lat="49.30035" lon="0.1945">
        <ele>45.8</ele>
        <time>2020-12-18T12:11:10Z</time>
      </trkpt>
      <trkpt lat="49.30065" lon="0.1943">
        <ele>46.28</ele>
        <time>2020-12-18T12:11:36Z</time>
      </trkpt>
      <trkpt lat="49.30095" lon="0.19408">
        <ele>46.28</ele>
        <time>2020-12-18T12:12:04Z</time>
      </trkpt>
      <trkpt lat="49.30124" lon="0.19389">
        <ele>46.28</ele>
        <time>2020-12-18T12:12:33Z</time>
      </trkpt>
      <trkpt lat="49.30155" lon="0.19367">
        <ele>45.8</ele>
        <time>2020-12-18T12:13:03Z</time>
      </trkpt>
      <trkpt lat="49.30179" lon="0.19357">
        <ele>46.28</ele>
        <time>2020-12-18T12:13:27Z</time>
      </trkpt>
      <trkpt lat="49.30191" lon="0.1936">
        <ele>46.76</ele>
        <time>2020-12-18T12:13:45Z</time>
      </trkpt>
      <trkpt lat="49.30197" lon="0.19358">
        <ele>46.76</ele>
        <time>2020-12-18T12:14:03Z</time>
      </trkpt>
      <trkpt lat="49.30204" lon="0.19347">
        <ele>46.76</ele>
        <time>2020-12-18T12:14:20Z</time>
      </trkpt>
      <trkpt lat="49.30225" lon="0.19333">
        <ele>46.76</ele>
        <time>2020-12-18T12:14:41Z</time>
      </trkpt>
      <trkpt lat="49.30256" lon="0.19316">
        <ele>46.28</ele>
        <time>2020-12-18T12:15:09Z</time>
      </trkpt>
      <trkpt lat="49.30284" lon="0.19288">
        <ele>46.28</ele>
        <time>2020-12-18T12:15:35Z</time>
      </trkpt>
      <trkpt lat="49.30312" lon="0.19259">
        <ele>47.24</ele>
        <time>2020-12-18T12:16:01Z</time>
      </trkpt>
      <trkpt lat="49.30325" lon="0.19225">
        <ele>46.76</ele>
        <time>2020-12-18T12:16:23Z</time>
      </trkpt>
      <trkpt lat="49.30334" lon="0.19186">
        <ele>47.24</ele>
        <time>2020-12-18T12:16:46Z</time>
      </trkpt>
      <trkpt lat="49.30342" lon="0.19152">
        <ele>47.72</ele>
        <time>2020-12-18T12:17:06Z</time>
      </trkpt>
      <trkpt lat="49.3035" lon="0.19115">
        <ele>48.2</ele>
        <time>2020-12-18T12:17:28Z</time>
      </trkpt>
      <trkpt lat="49.30358" lon="0.19078">
        <ele>48.2</ele>
        <time>2020-12-18T12:17:49Z</time>
      </trkpt>
      <trkpt lat="49.30367" lon="0.19044">
        <ele>48.2</ele>
        <time>2020-12-18T12:18:10Z</time>
      </trkpt>
      <trkpt lat="49.30371" lon="0.19023">
        <ele>46.76</ele>
        <time>2020-12-18T12:18:22Z</time>
      </trkpt>
      <trkpt lat="49.30383" lon="0.18975">
        <ele>45.32</ele>
        <time>2020-12-18T12:18:49Z</time>
      </trkpt>
      <trkpt lat="49.3039" lon="0.18943">
        <ele>44.84</ele>
        <time>2020-12-18T12:19:09Z</time>
      </trkpt>
      <trkpt lat="49.30395" lon="0.18921">
        <ele>44.84</ele>
        <time>2020-12-18T12:19:23Z</time>
      </trkpt>
      <trkpt lat="49.30401" lon="0.18883">
        <ele>43.4</ele>
        <time>2020-12-18T12:19:47Z</time>
      </trkpt>
      <trkpt lat="49.304" lon="0.18833">
        <ele>42.44</ele>
        <time>2020-12-18T12:20:11Z</time>
      </trkpt>
      <trkpt lat="49.30397" lon="0.18781">
        <ele>40.99</ele>
        <time>2020-12-18T12:20:41Z</time>
      </trkpt>
      <trkpt lat="49.30397" lon="0.18742">
        <ele>39.07</ele>
        <time>2020-12-18T12:21:04Z</time>
      </trkpt>
      <trkpt lat="49.30401" lon="0.18695">
        <ele>38.59</ele>
        <time>2020-12-18T12:21:28Z</time>
      </trkpt>
      <trkpt lat="49.30393" lon="0.18679">
        <ele>38.11</ele>
        <time>2020-12-18T12:21:39Z</time>
      </trkpt>
      <trkpt lat="49.30364" lon="0.18659">
        <ele>36.67</ele>
        <time>2020-12-18T12:22:07Z</time>
      </trkpt>
      <trkpt lat="49.30333" lon="0.18639">
        <ele>36.19</ele>
        <time>2020-12-18T12:22:33Z</time>
      </trkpt>
      <trkpt lat="49.30304" lon="0.18614">
        <ele>36.19</ele>
        <time>2020-12-18T12:22:59Z</time>
      </trkpt>
      <trkpt lat="49.30294" lon="0.18607">
        <ele>34.74</ele>
        <time>2020-12-18T12:23:08Z</time>
      </trkpt>
      <trkpt lat="49.30276" lon="0.18571">
        <ele>33.78</ele>
        <time>2020-12-18T12:23:34Z</time>
      </trkpt>
      <trkpt lat="49.3028" lon="0.18571">
        <ele>35.23</ele>
        <time>2020-12-18T12:23:41Z</time>
      </trkpt>
      <trkpt lat="49.30286" lon="0.18561">
        <ele>35.23</ele>
        <time>2020-12-18T12:23:52Z</time>
      </trkpt>
      <trkpt lat="49.303" lon="0.18547">
        <ele>35.23</ele>
        <time>2020-12-18T12:24:07Z</time>
      </trkpt>
      <trkpt lat="49.30327" lon="0.18535">
        <ele>35.71</ele>
        <time>2020-12-18T12:24:30Z</time>
      </trkpt>
      <trkpt lat="49.30346" lon="0.18534">
        <ele>36.19</ele>
        <time>2020-12-18T12:24:46Z</time>
      </trkpt>
      <trkpt lat="49.3037" lon="0.18522">
        <ele>37.15</ele>
        <time>2020-12-18T12:25:09Z</time>
      </trkpt>
      <trkpt lat="49.30394" lon="0.1851">
        <ele>38.11</ele>
        <time>2020-12-18T12:25:32Z</time>
      </trkpt>
      <trkpt lat="49.30397" lon="0.1847">
        <ele>35.71</ele>
        <time>2020-12-18T12:25:54Z</time>
      </trkpt>
      <trkpt lat="49.30396" lon="0.18425">
        <ele>35.23</ele>
        <time>2020-12-18T12:26:19Z</time>
      </trkpt>
      <trkpt lat="49.30395" lon="0.18392">
        <ele>34.26</ele>
        <time>2020-12-18T12:26:38Z</time>
      </trkpt>
      <trkpt lat="49.30394" lon="0.1835">
        <ele>34.26</ele>
        <time>2020-12-18T12:27:00Z</time>
      </trkpt>
      <trkpt lat="49.30394" lon="0.18348">
        <ele>34.26</ele>
        <time>2020-12-18T12:27:11Z</time>
      </trkpt>
      <trkpt lat="49.30393" lon="0.1834">
        <ele>33.78</ele>
        <time>2020-12-18T12:27:22Z</time>
      </trkpt>
      <trkpt lat="49.30397" lon="0.18326">
        <ele>33.3</ele>
        <time>2020-12-18T12:27:32Z</time>
      </trkpt>
      <trkpt lat="49.30398" lon="0.1831">
        <ele>33.3</ele>
        <time>2020-12-18T12:27:41Z</time>
      </trkpt>
      <trkpt lat="49.30399" lon="0.18263">
        <ele>33.3</ele>
        <time>2020-12-18T12:28:03Z</time>
      </trkpt>
      <trkpt lat="49.30409" lon="0.18228">
        <ele>32.34</ele>
        <time>2020-12-18T12:28:24Z</time>
      </trkpt>
      <trkpt lat="49.30418" lon="0.18193">
        <ele>31.38</ele>
        <time>2020-12-18T12:28:46Z</time>
      </trkpt>
      <trkpt lat="49.30426" lon="0.18147">
        <ele>30.9</ele>
        <time>2020-12-18T12:29:08Z</time>
      </trkpt>
      <trkpt lat="49.30427" lon="0.18131">
        <ele>30.42</ele>
        <time>2020-12-18T12:29:23Z</time>
      </trkpt>
      <trkpt lat="49.30426" lon="0.1809">
        <ele>29.94</ele>
        <time>2020-12-18T12:29:44Z</time>
      </trkpt>
      <trkpt lat="49.30429" lon="0.1805">
        <ele>29.46</ele>
        <time>2020-12-18T12:30:06Z</time>
      </trkpt>
      <trkpt lat="49.30432" lon="0.18008">
        <ele>28.02</ele>
        <time>2020-12-18T12:30:29Z</time>
      </trkpt>
      <trkpt lat="49.30437" lon="0.17964">
        <ele>27.05</ele>
        <time>2020-12-18T12:30:54Z</time>
      </trkpt>
      <trkpt lat="49.30444" lon="0.17922">
        <ele>26.57</ele>
        <time>2020-12-18T12:31:19Z</time>
      </trkpt>
      <trkpt lat="49.3045" lon="0.17874">
        <ele>26.57</ele>
        <time>2020-12-18T12:31:42Z</time>
      </trkpt>
      <trkpt lat="49.30461" lon="0.17851">
        <ele>26.57</ele>
        <time>2020-12-18T12:32:00Z</time>
      </trkpt>
      <trkpt lat="49.30478" lon="0.17817">
        <ele>26.57</ele>
        <time>2020-12-18T12:32:23Z</time>
      </trkpt>
      <trkpt lat="49.30493" lon="0.17784">
        <ele>26.09</ele>
        <time>2020-12-18T12:32:45Z</time>
      </trkpt>
      <trkpt lat="49.30505" lon="0.17757">
        <ele>27.53</ele>
        <time>2020-12-18T12:33:06Z</time>
      </trkpt>
      <trkpt lat="49.3052" lon="0.17729">
        <ele>28.5</ele>
        <time>2020-12-18T12:33:27Z</time>
      </trkpt>
      <trkpt lat="49.30529" lon="0.17717">
        <ele>28.98</ele>
        <time>2020-12-18T12:33:35Z</time>
      </trkpt>
      <trkpt lat="49.30541" lon="0.17711">
        <ele>28.98</ele>
        <time>2020-12-18T12:33:49Z</time>
      </trkpt>
      <trkpt lat="49.30543" lon="0.17712">
        <ele>28.5</ele>
        <time>2020-12-18T12:33:58Z</time>
      </trkpt>
      <trkpt lat="49.30543" lon="0.17712">
        <ele>28.98</ele>
        <time>2020-12-18T12:34:19Z</time>
      </trkpt>
      <trkpt lat="49.30544" lon="0.1771">
        <ele>28.5</ele>
        <time>2020-12-18T12:34:38Z</time>
      </trkpt>
      <trkpt lat="49.30549" lon="0.1771">
        <ele>28.02</ele>
        <time>2020-12-18T12:34:54Z</time>
      </trkpt>
      <trkpt lat="49.30556" lon="0.17712">
        <ele>28.02</ele>
        <time>2020-12-18T12:35:01Z</time>
      </trkpt>
      <trkpt lat="49.30558" lon="0.17714">
        <ele>29.94</ele>
        <time>2020-12-18T12:35:03Z</time>
      </trkpt>
      <trkpt lat="49.30572" lon="0.17727">
        <ele>28.98</ele>
        <time>2020-12-18T12:35:18Z</time>
      </trkpt>
      <trkpt lat="49.30575" lon="0.17729">
        <ele>28.98</ele>
        <time>2020-12-18T12:35:21Z</time>
      </trkpt>
      <trkpt lat="49.30588" lon="0.17743">
        <ele>28.98</ele>
        <time>2020-12-18T12:35:36Z</time>
      </trkpt>
      <trkpt lat="49.30601" lon="0.17757">
        <ele>29.94</ele>
        <time>2020-12-18T12:35:50Z</time>
      </trkpt>
      <trkpt lat="49.30612" lon="0.17774">
        <ele>30.42</ele>
        <time>2020-12-18T12:36:05Z</time>
      </trkpt>
      <trkpt lat="49.30618" lon="0.17786">
        <ele>30.9</ele>
        <time>2020-12-18T12:36:16Z</time>
      </trkpt>
      <trkpt lat="49.30632" lon="0.17799">
        <ele>31.38</ele>
        <time>2020-12-18T12:36:31Z</time>
      </trkpt>
      <trkpt lat="49.30656" lon="0.17819">
        <ele>32.34</ele>
        <time>2020-12-18T12:36:51Z</time>
      </trkpt>
      <trkpt lat="49.30675" lon="0.17827">
        <ele>32.34</ele>
        <time>2020-12-18T12:37:09Z</time>
      </trkpt>
      <trkpt lat="49.30693" lon="0.17838">
        <ele>33.3</ele>
        <time>2020-12-18T12:37:26Z</time>
      </trkpt>
      <trkpt lat="49.30709" lon="0.17853">
        <ele>33.78</ele>
        <time>2020-12-18T12:37:42Z</time>
      </trkpt>
      <trkpt lat="49.30725" lon="0.17873">
        <ele>34.74</ele>
        <time>2020-12-18T12:37:59Z</time>
      </trkpt>
      <trkpt lat="49.30738" lon="0.17891">
        <ele>35.23</ele>
        <time>2020-12-18T12:38:16Z</time>
      </trkpt>
      <trkpt lat="49.30751" lon="0.17908">
        <ele>35.71</ele>
        <time>2020-12-18T12:38:32Z</time>
      </trkpt>
      <trkpt lat="49.30765" lon="0.17926">
        <ele>36.67</ele>
        <time>2020-12-18T12:38:48Z</time>
      </trkpt>
      <trkpt lat="49.30778" lon="0.17946">
        <ele>37.63</ele>
        <time>2020-12-18T12:39:04Z</time>
      </trkpt>
      <trkpt lat="49.30794" lon="0.17969">
        <ele>38.11</ele>
        <time>2020-12-18T12:39:22Z</time>
      </trkpt>
      <trkpt lat="49.308" lon="0.17978">
        <ele>38.59</ele>
        <time>2020-12-18T12:39:36Z</time>
      </trkpt>
      <trkpt lat="49.30814" lon="0.17996">
        <ele>39.07</ele>
        <time>2020-12-18T12:39:52Z</time>
      </trkpt>
      <trkpt lat="49.30829" lon="0.18017">
        <ele>39.55</ele>
        <time>2020-12-18T12:40:09Z</time>
      </trkpt>
      <trkpt lat="49.30839" lon="0.18035">
        <ele>39.55</ele>
        <time>2020-12-18T12:40:23Z</time>
      </trkpt>
      <trkpt lat="49.3085" lon="0.18049">
        <ele>39.55</ele>
        <time>2020-12-18T12:40:34Z</time>
      </trkpt>
      <trkpt lat="49.30865" lon="0.1807">
        <ele>40.99</ele>
        <time>2020-12-18T12:40:50Z</time>
      </trkpt>
      <trkpt lat="49.30878" lon="0.18088">
        <ele>41.95</ele>
        <time>2020-12-18T12:41:05Z</time>
      </trkpt>
      <trkpt lat="49.30892" lon="0.18102">
        <ele>41.95</ele>
        <time>2020-12-18T12:41:19Z</time>
      </trkpt>
      <trkpt lat="49.3091" lon="0.18121">
        <ele>42.44</ele>
        <time>2020-12-18T12:41:36Z</time>
      </trkpt>
      <trkpt lat="49.30924" lon="0.18142">
        <ele>43.4</ele>
        <time>2020-12-18T12:41:52Z</time>
      </trkpt>
      <trkpt lat="49.30937" lon="0.18164">
        <ele>44.84</ele>
        <time>2020-12-18T12:42:10Z</time>
      </trkpt>
      <trkpt lat="49.30944" lon="0.18178">
        <ele>45.32</ele>
        <time>2020-12-18T12:42:19Z</time>
      </trkpt>
      <trkpt lat="49.30958" lon="0.18202">
        <ele>46.28</ele>
        <time>2020-12-18T12:42:38Z</time>
      </trkpt>
      <trkpt lat="49.30969" lon="0.18225">
        <ele>45.8</ele>
        <time>2020-12-18T12:42:54Z</time>
      </trkpt>
      <trkpt lat="49.30982" lon="0.18246">
        <ele>48.2</ele>
        <time>2020-12-18T12:43:10Z</time>
      </trkpt>
      <trkpt lat="49.3099" lon="0.18263">
        <ele>48.68</ele>
        <time>2020-12-18T12:43:25Z</time>
      </trkpt>
      <trkpt lat="49.30996" lon="0.18276">
        <ele>50.13</ele>
        <time>2020-12-18T12:43:37Z</time>
      </trkpt>
      <trkpt lat="49.31007" lon="0.18298">
        <ele>51.09</ele>
        <time>2020-12-18T12:43:54Z</time>
      </trkpt>
      <trkpt lat="49.31019" lon="0.18322">
        <ele>52.53</ele>
        <time>2020-12-18T12:44:12Z</time>
      </trkpt>
      <trkpt lat="49.31025" lon="0.1834">
        <ele>53.97</ele>
        <time>2020-12-18T12:44:28Z</time>
      </trkpt>
      <trkpt lat="49.31036" lon="0.18363">
        <ele>55.41</ele>
        <time>2020-12-18T12:44:47Z</time>
      </trkpt>
      <trkpt lat="49.31047" lon="0.18384">
        <ele>56.86</ele>
        <time>2020-12-18T12:45:04Z</time>
      </trkpt>
      <trkpt lat="49.31066" lon="0.18394">
        <ele>58.78</ele>
        <time>2020-12-18T12:45:20Z</time>
      </trkpt>
      <trkpt lat="49.31078" lon="0.18395">
        <ele>58.3</ele>
        <time>2020-12-18T12:45:32Z</time>
      </trkpt>
      <trkpt lat="49.311" lon="0.18395">
        <ele>58.3</ele>
        <time>2020-12-18T12:45:52Z</time>
      </trkpt>
      <trkpt lat="49.31121" lon="0.18396">
        <ele>59.26</ele>
        <time>2020-12-18T12:46:07Z</time>
      </trkpt>
      <trkpt lat="49.31141" lon="0.18398">
        <ele>59.26</ele>
        <time>2020-12-18T12:46:23Z</time>
      </trkpt>
      <trkpt lat="49.31159" lon="0.184">
        <ele>59.26</ele>
        <time>2020-12-18T12:46:39Z</time>
      </trkpt>
      <trkpt lat="49.31181" lon="0.18399">
        <ele>59.74</ele>
        <time>2020-12-18T12:46:58Z</time>
      </trkpt>
      <trkpt lat="49.31203" lon="0.18401">
        <ele>59.26</ele>
        <time>2020-12-18T12:47:15Z</time>
      </trkpt>
      <trkpt lat="49.31227" lon="0.18402">
        <ele>59.74</ele>
        <time>2020-12-18T12:47:34Z</time>
      </trkpt>
      <trkpt lat="49.31249" lon="0.18404">
        <ele>60.22</ele>
        <time>2020-12-18T12:47:51Z</time>
      </trkpt>
      <trkpt lat="49.31273" lon="0.18405">
        <ele>60.22</ele>
        <time>2020-12-18T12:48:10Z</time>
      </trkpt>
      <trkpt lat="49.31297" lon="0.18406">
        <ele>60.22</ele>
        <time>2020-12-18T12:48:27Z</time>
      </trkpt>
      <trkpt lat="49.3132" lon="0.18407">
        <ele>60.7</ele>
        <time>2020-12-18T12:48:48Z</time>
      </trkpt>
      <trkpt lat="49.31333" lon="0.18408">
        <ele>60.7</ele>
        <time>2020-12-18T12:49:01Z</time>
      </trkpt>
      <trkpt lat="49.31358" lon="0.18411">
        <ele>60.7</ele>
        <time>2020-12-18T12:49:20Z</time>
      </trkpt>
      <trkpt lat="49.3138" lon="0.18413">
        <ele>61.66</ele>
        <time>2020-12-18T12:49:36Z</time>
      </trkpt>
      <trkpt lat="49.31402" lon="0.18419">
        <ele>62.14</ele>
        <time>2020-12-18T12:49:53Z</time>
      </trkpt>
      <trkpt lat="49.31424" lon="0.18425">
        <ele>62.14</ele>
        <time>2020-12-18T12:50:13Z</time>
      </trkpt>
      <trkpt lat="49.31445" lon="0.18436">
        <ele>62.62</ele>
        <time>2020-12-18T12:50:30Z</time>
      </trkpt>
      <trkpt lat="49.31467" lon="0.18444">
        <ele>62.62</ele>
        <time>2020-12-18T12:50:49Z</time>
      </trkpt>
      <trkpt lat="49.31484" lon="0.18454">
        <ele>62.62</ele>
        <time>2020-12-18T12:51:05Z</time>
      </trkpt>
      <trkpt lat="49.31503" lon="0.18465">
        <ele>63.1</ele>
        <time>2020-12-18T12:51:21Z</time>
      </trkpt>
      <trkpt lat="49.31519" lon="0.18477">
        <ele>63.1</ele>
        <time>2020-12-18T12:51:37Z</time>
      </trkpt>
      <trkpt lat="49.31541" lon="0.18496">
        <ele>63.1</ele>
        <time>2020-12-18T12:51:57Z</time>
      </trkpt>
      <trkpt lat="49.3156" lon="0.18514">
        <ele>63.58</ele>
        <time>2020-12-18T12:52:18Z</time>
      </trkpt>
      <trkpt lat="49.31579" lon="0.18533">
        <ele>63.58</ele>
        <time>2020-12-18T12:52:37Z</time>
      </trkpt>
      <trkpt lat="49.31583" lon="0.18537">
        <ele>63.58</ele>
        <time>2020-12-18T12:52:40Z</time>
      </trkpt>
      <trkpt lat="49.31588" lon="0.18536">
        <ele>63.58</ele>
        <time>2020-12-18T12:52:46Z</time>
      </trkpt>
      <trkpt lat="49.31595" lon="0.18548">
        <ele>63.58</ele>
        <time>2020-12-18T12:52:55Z</time>
      </trkpt>
      <trkpt lat="49.31614" lon="0.18573">
        <ele>63.58</ele>
        <time>2020-12-18T12:53:16Z</time>
      </trkpt>
      <trkpt lat="49.31627" lon="0.18589">
        <ele>63.58</ele>
        <time>2020-12-18T12:53:31Z</time>
      </trkpt>
      <trkpt lat="49.31632" lon="0.18596">
        <ele>63.58</ele>
        <time>2020-12-18T12:53:43Z</time>
      </trkpt>
      <trkpt lat="49.3165" lon="0.18625">
        <ele>63.58</ele>
        <time>2020-12-18T12:54:04Z</time>
      </trkpt>
      <trkpt lat="49.31666" lon="0.18652">
        <ele>63.58</ele>
        <time>2020-12-18T12:54:26Z</time>
      </trkpt>
      <trkpt lat="49.31677" lon="0.1867">
        <ele>62.14</ele>
        <time>2020-12-18T12:54:40Z</time>
      </trkpt>
      <trkpt lat="49.31698" lon="0.187">
        <ele>62.14</ele>
        <time>2020-12-18T12:55:02Z</time>
      </trkpt>
      <trkpt lat="49.31711" lon="0.18721">
        <ele>61.18</ele>
        <time>2020-12-18T12:55:20Z</time>
      </trkpt>
      <trkpt lat="49.31722" lon="0.18744">
        <ele>60.7</ele>
        <time>2020-12-18T12:55:37Z</time>
      </trkpt>
      <trkpt lat="49.31742" lon="0.18771">
        <ele>59.74</ele>
        <time>2020-12-18T12:55:58Z</time>
      </trkpt>
      <trkpt lat="49.31748" lon="0.18781">
        <ele>59.26</ele>
        <time>2020-12-18T12:56:04Z</time>
      </trkpt>
      <trkpt lat="49.3176" lon="0.18813">
        <ele>58.78</ele>
        <time>2020-12-18T12:56:21Z</time>
      </trkpt>
      <trkpt lat="49.31756" lon="0.18827">
        <ele>58.78</ele>
        <time>2020-12-18T12:56:28Z</time>
      </trkpt>
      <trkpt lat="49.31738" lon="0.18849">
        <ele>60.7</ele>
        <time>2020-12-18T12:56:47Z</time>
      </trkpt>
      <trkpt lat="49.31722" lon="0.18864">
        <ele>61.66</ele>
        <time>2020-12-18T12:57:04Z</time>
      </trkpt>
      <trkpt lat="49.31707" lon="0.18879">
        <ele>63.1</ele>
        <time>2020-12-18T12:57:20Z</time>
      </trkpt>
      <trkpt lat="49.31692" lon="0.18894">
        <ele>64.07</ele>
        <time>2020-12-18T12:57:37Z</time>
      </trkpt>
      <trkpt lat="49.31673" lon="0.18908">
        <ele>65.99</ele>
        <time>2020-12-18T12:57:57Z</time>
      </trkpt>
      <trkpt lat="49.31659" lon="0.18921">
        <ele>66.95</ele>
        <time>2020-12-18T12:58:12Z</time>
      </trkpt>
      <trkpt lat="49.31644" lon="0.18936">
        <ele>68.39</ele>
        <time>2020-12-18T12:58:29Z</time>
      </trkpt>
      <trkpt lat="49.3163" lon="0.18947">
        <ele>69.83</ele>
        <time>2020-12-18T12:58:43Z</time>
      </trkpt>
      <trkpt lat="49.31616" lon="0.18961">
        <ele>70.79</ele>
        <time>2020-12-18T12:58:58Z</time>
      </trkpt>
      <trkpt lat="49.316" lon="0.18971">
        <ele>72.72</ele>
        <time>2020-12-18T12:59:13Z</time>
      </trkpt>
      <trkpt lat="49.3159" lon="0.18978">
        <ele>73.2</ele>
        <time>2020-12-18T12:59:23Z</time>
      </trkpt>
      <trkpt lat="49.3157" lon="0.18988">
        <ele>74.16</ele>
        <time>2020-12-18T12:59:41Z</time>
      </trkpt>
      <trkpt lat="49.31557" lon="0.18998">
        <ele>75.12</ele>
        <time>2020-12-18T12:59:57Z</time>
      </trkpt>
      <trkpt lat="49.31551" lon="0.18999">
        <ele>75.6</ele>
        <time>2020-12-18T13:00:11Z</time>
      </trkpt>
      <trkpt lat="49.31539" lon="0.19004">
        <ele>76.08</ele>
        <time>2020-12-18T13:00:22Z</time>
      </trkpt>
      <trkpt lat="49.3152" lon="0.19017">
        <ele>77.04</ele>
        <time>2020-12-18T13:00:38Z</time>
      </trkpt>
      <trkpt lat="49.31502" lon="0.19027">
        <ele>77.52</ele>
        <time>2020-12-18T13:00:54Z</time>
      </trkpt>
      <trkpt lat="49.31488" lon="0.19033">
        <ele>78.97</ele>
        <time>2020-12-18T13:01:09Z</time>
      </trkpt>
      <trkpt lat="49.31487" lon="0.19036">
        <ele>79.45</ele>
        <time>2020-12-18T13:01:28Z</time>
      </trkpt>
      <trkpt lat="49.31481" lon="0.1904">
        <ele>80.41</ele>
        <time>2020-12-18T13:01:46Z</time>
      </trkpt>
      <trkpt lat="49.31462" lon="0.19051">
        <ele>80.89</ele>
        <time>2020-12-18T13:02:05Z</time>
      </trkpt>
      <trkpt lat="49.31458" lon="0.19054">
        <ele>81.37</ele>
        <time>2020-12-18T13:02:09Z</time>
      </trkpt>
      <trkpt lat="49.3144" lon="0.19066">
        <ele>82.33</ele>
        <time>2020-12-18T13:02:25Z</time>
      </trkpt>
      <trkpt lat="49.31429" lon="0.19072">
        <ele>83.77</ele>
        <time>2020-12-18T13:02:35Z</time>
      </trkpt>
      <trkpt lat="49.31424" lon="0.19078">
        <ele>84.25</ele>
        <time>2020-12-18T13:02:40Z</time>
      </trkpt>
      <trkpt lat="49.31406" lon="0.19091">
        <ele>85.21</ele>
        <time>2020-12-18T13:02:57Z</time>
      </trkpt>
      <trkpt lat="49.31391" lon="0.19104">
        <ele>85.69</ele>
        <time>2020-12-18T13:03:12Z</time>
      </trkpt>
      <trkpt lat="49.31378" lon="0.19116">
        <ele>87.62</ele>
        <time>2020-12-18T13:03:28Z</time>
      </trkpt>
      <trkpt lat="49.31369" lon="0.19123">
        <ele>88.1</ele>
        <time>2020-12-18T13:03:41Z</time>
      </trkpt>
      <trkpt lat="49.31353" lon="0.19138">
        <ele>88.58</ele>
        <time>2020-12-18T13:03:55Z</time>
      </trkpt>
      <trkpt lat="49.31338" lon="0.19149">
        <ele>90.02</ele>
        <time>2020-12-18T13:04:10Z</time>
      </trkpt>
      <trkpt lat="49.31324" lon="0.19165">
        <ele>90.98</ele>
        <time>2020-12-18T13:04:25Z</time>
      </trkpt>
      <trkpt lat="49.31315" lon="0.19172">
        <ele>91.94</ele>
        <time>2020-12-18T13:04:34Z</time>
      </trkpt>
      <trkpt lat="49.31296" lon="0.1919">
        <ele>92.9</ele>
        <time>2020-12-18T13:04:52Z</time>
      </trkpt>
      <trkpt lat="49.31293" lon="0.19193">
        <ele>92.9</ele>
        <time>2020-12-18T13:04:55Z</time>
      </trkpt>
      <trkpt lat="49.31287" lon="0.19202">
        <ele>92.9</ele>
        <time>2020-12-18T13:05:00Z</time>
      </trkpt>
      <trkpt lat="49.31277" lon="0.19212">
        <ele>94.35</ele>
        <time>2020-12-18T13:05:14Z</time>
      </trkpt>
      <trkpt lat="49.31273" lon="0.19223">
        <ele>94.83</ele>
        <time>2020-12-18T13:05:22Z</time>
      </trkpt>
      <trkpt lat="49.31273" lon="0.19229">
        <ele>94.83</ele>
        <time>2020-12-18T13:05:25Z</time>
      </trkpt>
      <trkpt lat="49.31276" lon="0.19248">
        <ele>95.31</ele>
        <time>2020-12-18T13:05:41Z</time>
      </trkpt>
      <trkpt lat="49.31283" lon="0.19269">
        <ele>95.79</ele>
        <time>2020-12-18T13:05:56Z</time>
      </trkpt>
      <trkpt lat="49.31292" lon="0.1929">
        <ele>96.27</ele>
        <time>2020-12-18T13:06:10Z</time>
      </trkpt>
      <trkpt lat="49.31297" lon="0.19321">
        <ele>97.23</ele>
        <time>2020-12-18T13:06:27Z</time>
      </trkpt>
      <trkpt lat="49.31301" lon="0.19356">
        <ele>97.23</ele>
        <time>2020-12-18T13:06:45Z</time>
      </trkpt>
      <trkpt lat="49.31296" lon="0.19381">
        <ele>98.19</ele>
        <time>2020-12-18T13:07:01Z</time>
      </trkpt>
      <trkpt lat="49.31293" lon="0.1941">
        <ele>99.15</ele>
        <time>2020-12-18T13:07:18Z</time>
      </trkpt>
      <trkpt lat="49.31293" lon="0.19431">
        <ele>100.11</ele>
        <time>2020-12-18T13:07:28Z</time>
      </trkpt>
      <trkpt lat="49.31289" lon="0.19459">
        <ele>100.6</ele>
        <time>2020-12-18T13:07:47Z</time>
      </trkpt>
      <trkpt lat="49.31287" lon="0.19487">
        <ele>100.11</ele>
        <time>2020-12-18T13:08:04Z</time>
      </trkpt>
      <trkpt lat="49.3129" lon="0.19517">
        <ele>100.6</ele>
        <time>2020-12-18T13:08:21Z</time>
      </trkpt>
      <trkpt lat="49.3129" lon="0.19519">
        <ele>100.6</ele>
        <time>2020-12-18T13:08:22Z</time>
      </trkpt>
      <trkpt lat="49.31289" lon="0.19549">
        <ele>100.6</ele>
        <time>2020-12-18T13:08:38Z</time>
      </trkpt>
      <trkpt lat="49.3129" lon="0.19561">
        <ele>101.08</ele>
        <time>2020-12-18T13:08:45Z</time>
      </trkpt>
      <trkpt lat="49.31288" lon="0.19568">
        <ele>101.08</ele>
        <time>2020-12-18T13:08:49Z</time>
      </trkpt>
      <trkpt lat="49.31293" lon="0.19596">
        <ele>101.08</ele>
        <time>2020-12-18T13:09:05Z</time>
      </trkpt>
      <trkpt lat="49.31295" lon="0.19623">
        <ele>101.56</ele>
        <time>2020-12-18T13:09:21Z</time>
      </trkpt>
      <trkpt lat="49.3129" lon="0.19651">
        <ele>101.56</ele>
        <time>2020-12-18T13:09:36Z</time>
      </trkpt>
      <trkpt lat="49.31291" lon="0.19678">
        <ele>101.56</ele>
        <time>2020-12-18T13:09:50Z</time>
      </trkpt>
      <trkpt lat="49.31292" lon="0.19708">
        <ele>100.6</ele>
        <time>2020-12-18T13:10:06Z</time>
      </trkpt>
      <trkpt lat="49.31293" lon="0.19732">
        <ele>100.6</ele>
        <time>2020-12-18T13:10:20Z</time>
      </trkpt>
      <trkpt lat="49.31292" lon="0.19763">
        <ele>100.6</ele>
        <time>2020-12-18T13:10:36Z</time>
      </trkpt>
      <trkpt lat="49.31291" lon="0.19784">
        <ele>102.04</ele>
        <time>2020-12-18T13:10:51Z</time>
      </trkpt>
      <trkpt lat="49.31291" lon="0.19811">
        <ele>102.04</ele>
        <time>2020-12-18T13:11:06Z</time>
      </trkpt>
      <trkpt lat="49.31293" lon="0.19833">
        <ele>103</ele>
        <time>2020-12-18T13:11:21Z</time>
      </trkpt>
      <trkpt lat="49.31291" lon="0.19833">
        <ele>103.96</ele>
        <time>2020-12-18T13:11:39Z</time>
      </trkpt>
      <trkpt lat="49.31293" lon="0.19835">
        <ele>103.96</ele>
        <time>2020-12-18T13:11:48Z</time>
      </trkpt>
      <trkpt lat="49.31293" lon="0.19839">
        <ele>103.96</ele>
        <time>2020-12-18T13:11:50Z</time>
      </trkpt>
      <trkpt lat="49.31293" lon="0.19849">
        <ele>103.96</ele>
        <time>2020-12-18T13:11:54Z</time>
      </trkpt>
      <trkpt lat="49.31292" lon="0.1988">
        <ele>105.4</ele>
        <time>2020-12-18T13:12:10Z</time>
      </trkpt>
      <trkpt lat="49.31293" lon="0.19896">
        <ele>105.88</ele>
        <time>2020-12-18T13:12:18Z</time>
      </trkpt>
      <trkpt lat="49.31292" lon="0.1992">
        <ele>106.84</ele>
        <time>2020-12-18T13:12:31Z</time>
      </trkpt>
      <trkpt lat="49.31292" lon="0.19949">
        <ele>107.81</ele>
        <time>2020-12-18T13:12:48Z</time>
      </trkpt>
      <trkpt lat="49.31293" lon="0.19954">
        <ele>107.81</ele>
        <time>2020-12-18T13:12:51Z</time>
      </trkpt>
      <trkpt lat="49.31284" lon="0.1998">
        <ele>109.25</ele>
        <time>2020-12-18T13:13:08Z</time>
      </trkpt>
      <trkpt lat="49.31279" lon="0.20009">
        <ele>109.25</ele>
        <time>2020-12-18T13:13:22Z</time>
      </trkpt>
      <trkpt lat="49.31283" lon="0.20034">
        <ele>110.21</ele>
        <time>2020-12-18T13:13:38Z</time>
      </trkpt>
      <trkpt lat="49.31284" lon="0.2004">
        <ele>110.69</ele>
        <time>2020-12-18T13:13:41Z</time>
      </trkpt>
      <trkpt lat="49.31293" lon="0.20061">
        <ele>112.13</ele>
        <time>2020-12-18T13:13:56Z</time>
      </trkpt>
      <trkpt lat="49.31298" lon="0.20086">
        <ele>113.57</ele>
        <time>2020-12-18T13:14:13Z</time>
      </trkpt>
      <trkpt lat="49.31296" lon="0.20103">
        <ele>113.09</ele>
        <time>2020-12-18T13:14:23Z</time>
      </trkpt>
      <trkpt lat="49.31293" lon="0.20139">
        <ele>114.05</ele>
        <time>2020-12-18T13:14:40Z</time>
      </trkpt>
      <trkpt lat="49.31283" lon="0.20159">
        <ele>116.46</ele>
        <time>2020-12-18T13:14:56Z</time>
      </trkpt>
      <trkpt lat="49.31271" lon="0.20183">
        <ele>116.46</ele>
        <time>2020-12-18T13:15:12Z</time>
      </trkpt>
      <trkpt lat="49.31258" lon="0.20201">
        <ele>116.94</ele>
        <time>2020-12-18T13:15:27Z</time>
      </trkpt>
      <trkpt lat="49.31251" lon="0.20209">
        <ele>116.94</ele>
        <time>2020-12-18T13:15:35Z</time>
      </trkpt>
      <trkpt lat="49.31238" lon="0.2023">
        <ele>117.9</ele>
        <time>2020-12-18T13:15:50Z</time>
      </trkpt>
      <trkpt lat="49.31233" lon="0.20242">
        <ele>118.86</ele>
        <time>2020-12-18T13:16:01Z</time>
      </trkpt>
      <trkpt lat="49.31221" lon="0.20257">
        <ele>120.3</ele>
        <time>2020-12-18T13:16:17Z</time>
      </trkpt>
      <trkpt lat="49.31218" lon="0.2026">
        <ele>120.3</ele>
        <time>2020-12-18T13:16:19Z</time>
      </trkpt>
      <trkpt lat="49.31203" lon="0.20276">
        <ele>120.78</ele>
        <time>2020-12-18T13:16:32Z</time>
      </trkpt>
      <trkpt lat="49.31202" lon="0.20278">
        <ele>120.3</ele>
        <time>2020-12-18T13:16:33Z</time>
      </trkpt>
      <trkpt lat="49.31195" lon="0.20295">
        <ele>121.26</ele>
        <time>2020-12-18T13:16:46Z</time>
      </trkpt>
      <trkpt lat="49.31191" lon="0.20307">
        <ele>123.67</ele>
        <time>2020-12-18T13:16:59Z</time>
      </trkpt>
      <trkpt lat="49.31193" lon="0.20316">
        <ele>122.22</ele>
        <time>2020-12-18T13:17:16Z</time>
      </trkpt>
      <trkpt lat="49.31192" lon="0.20322">
        <ele>122.22</ele>
        <time>2020-12-18T13:17:37Z</time>
      </trkpt>
      <trkpt lat="49.31189" lon="0.20331">
        <ele>122.22</ele>
        <time>2020-12-18T13:17:56Z</time>
      </trkpt>
      <trkpt lat="49.31185" lon="0.20339">
        <ele>122.22</ele>
        <time>2020-12-18T13:18:04Z</time>
      </trkpt>
      <trkpt lat="49.31176" lon="0.2035">
        <ele>124.15</ele>
        <time>2020-12-18T13:18:17Z</time>
      </trkpt>
      <trkpt lat="49.31168" lon="0.2037">
        <ele>125.59</ele>
        <time>2020-12-18T13:18:33Z</time>
      </trkpt>
      <trkpt lat="49.31165" lon="0.20394">
        <ele>126.55</ele>
        <time>2020-12-18T13:18:49Z</time>
      </trkpt>
      <trkpt lat="49.31163" lon="0.20417">
        <ele>127.03</ele>
        <time>2020-12-18T13:19:04Z</time>
      </trkpt>
      <trkpt lat="49.3116" lon="0.20441">
        <ele>127.51</ele>
        <time>2020-12-18T13:19:19Z</time>
      </trkpt>
      <trkpt lat="49.31157" lon="0.2047">
        <ele>128.95</ele>
        <time>2020-12-18T13:19:35Z</time>
      </trkpt>
      <trkpt lat="49.31155" lon="0.20492">
        <ele>129.92</ele>
        <time>2020-12-18T13:19:49Z</time>
      </trkpt>
      <trkpt lat="49.31151" lon="0.20523">
        <ele>130.88</ele>
        <time>2020-12-18T13:20:06Z</time>
      </trkpt>
      <trkpt lat="49.31148" lon="0.20547">
        <ele>131.84</ele>
        <time>2020-12-18T13:20:18Z</time>
      </trkpt>
      <trkpt lat="49.31146" lon="0.20571">
        <ele>132.32</ele>
        <time>2020-12-18T13:20:32Z</time>
      </trkpt>
      <trkpt lat="49.31142" lon="0.20591">
        <ele>133.76</ele>
        <time>2020-12-18T13:20:48Z</time>
      </trkpt>
      <trkpt lat="49.3114" lon="0.20614">
        <ele>134.72</ele>
        <time>2020-12-18T13:21:03Z</time>
      </trkpt>
      <trkpt lat="49.31141" lon="0.20634">
        <ele>136.16</ele>
        <time>2020-12-18T13:21:16Z</time>
      </trkpt>
      <trkpt lat="49.3114" lon="0.20656">
        <ele>137.13</ele>
        <time>2020-12-18T13:21:30Z</time>
      </trkpt>
      <trkpt lat="49.3114" lon="0.20682">
        <ele>138.57</ele>
        <time>2020-12-18T13:21:45Z</time>
      </trkpt>
      <trkpt lat="49.3114" lon="0.20684">
        <ele>138.57</ele>
        <time>2020-12-18T13:21:46Z</time>
      </trkpt>
      <trkpt lat="49.31144" lon="0.20709">
        <ele>139.05</ele>
        <time>2020-12-18T13:22:01Z</time>
      </trkpt>
      <trkpt lat="49.31145" lon="0.20733">
        <ele>139.05</ele>
        <time>2020-12-18T13:22:16Z</time>
      </trkpt>
      <trkpt lat="49.31147" lon="0.20756">
        <ele>139.53</ele>
        <time>2020-12-18T13:22:31Z</time>
      </trkpt>
      <trkpt lat="49.31146" lon="0.20779">
        <ele>140.01</ele>
        <time>2020-12-18T13:22:42Z</time>
      </trkpt>
      <trkpt lat="49.31144" lon="0.20795">
        <ele>140.97</ele>
        <time>2020-12-18T13:22:52Z</time>
      </trkpt>
      <trkpt lat="49.31142" lon="0.20803">
        <ele>140.97</ele>
        <time>2020-12-18T13:22:56Z</time>
      </trkpt>
      <trkpt lat="49.3114" lon="0.20812">
        <ele>140.97</ele>
        <time>2020-12-18T13:23:02Z</time>
      </trkpt>
      <trkpt lat="49.31136" lon="0.20842">
        <ele>141.93</ele>
        <time>2020-12-18T13:23:18Z</time>
      </trkpt>
      <trkpt lat="49.31134" lon="0.20863">
        <ele>141.93</ele>
        <time>2020-12-18T13:23:32Z</time>
      </trkpt>
      <trkpt lat="49.31135" lon="0.20886">
        <ele>141.93</ele>
        <time>2020-12-18T13:23:45Z</time>
      </trkpt>
      <trkpt lat="49.31135" lon="0.20892">
        <ele>141.93</ele>
        <time>2020-12-18T13:23:48Z</time>
      </trkpt>
      <trkpt lat="49.31132" lon="0.20915">
        <ele>141.93</ele>
        <time>2020-12-18T13:24:01Z</time>
      </trkpt>
      <trkpt lat="49.31129" lon="0.20941">
        <ele>141.93</ele>
        <time>2020-12-18T13:24:15Z</time>
      </trkpt>
      <trkpt lat="49.31128" lon="0.20953">
        <ele>141.93</ele>
        <time>2020-12-18T13:24:21Z</time>
      </trkpt>
      <trkpt lat="49.31127" lon="0.20964">
        <ele>141.93</ele>
        <time>2020-12-18T13:24:26Z</time>
      </trkpt>
      <trkpt lat="49.31126" lon="0.20993">
        <ele>141.93</ele>
        <time>2020-12-18T13:24:42Z</time>
      </trkpt>
      <trkpt lat="49.31126" lon="0.21009">
        <ele>142.41</ele>
        <time>2020-12-18T13:24:50Z</time>
      </trkpt>
      <trkpt lat="49.31127" lon="0.21021">
        <ele>142.41</ele>
        <time>2020-12-18T13:24:58Z</time>
      </trkpt>
      <trkpt lat="49.31129" lon="0.21053">
        <ele>142.41</ele>
        <time>2020-12-18T13:25:15Z</time>
      </trkpt>
      <trkpt lat="49.31128" lon="0.21089">
        <ele>142.41</ele>
        <time>2020-12-18T13:25:31Z</time>
      </trkpt>
      <trkpt lat="49.31128" lon="0.21098">
        <ele>142.41</ele>
        <time>2020-12-18T13:25:36Z</time>
      </trkpt>
      <trkpt lat="49.31127" lon="0.2112">
        <ele>140.97</ele>
        <time>2020-12-18T13:25:49Z</time>
      </trkpt>
      <trkpt lat="49.31127" lon="0.21126">
        <ele>140.97</ele>
        <time>2020-12-18T13:25:52Z</time>
      </trkpt>
      <trkpt lat="49.31127" lon="0.2113">
        <ele>140.97</ele>
        <time>2020-12-18T13:25:54Z</time>
      </trkpt>
      <trkpt lat="49.31129" lon="0.21153">
        <ele>140.49</ele>
        <time>2020-12-18T13:26:09Z</time>
      </trkpt>
      <trkpt lat="49.31131" lon="0.21177">
        <ele>140.49</ele>
        <time>2020-12-18T13:26:24Z</time>
      </trkpt>
      <trkpt lat="49.31133" lon="0.212">
        <ele>139.53</ele>
        <time>2020-12-18T13:26:38Z</time>
      </trkpt>
      <trkpt lat="49.31131" lon="0.21224">
        <ele>140.01</ele>
        <time>2020-12-18T13:26:53Z</time>
      </trkpt>
      <trkpt lat="49.31128" lon="0.21251">
        <ele>139.53</ele>
        <time>2020-12-18T13:27:08Z</time>
      </trkpt>
      <trkpt lat="49.31127" lon="0.21273">
        <ele>139.53</ele>
        <time>2020-12-18T13:27:19Z</time>
      </trkpt>
      <trkpt lat="49.31124" lon="0.21303">
        <ele>139.53</ele>
        <time>2020-12-18T13:27:34Z</time>
      </trkpt>
      <trkpt lat="49.31123" lon="0.2131">
        <ele>140.97</ele>
        <time>2020-12-18T13:27:38Z</time>
      </trkpt>
      <trkpt lat="49.31121" lon="0.21339">
        <ele>140.97</ele>
        <time>2020-12-18T13:27:55Z</time>
      </trkpt>
      <trkpt lat="49.31121" lon="0.21362">
        <ele>141.45</ele>
        <time>2020-12-18T13:28:08Z</time>
      </trkpt>
      <trkpt lat="49.31117" lon="0.21392">
        <ele>141.93</ele>
        <time>2020-12-18T13:28:25Z</time>
      </trkpt>
      <trkpt lat="49.31116" lon="0.21417">
        <ele>141.93</ele>
        <time>2020-12-18T13:28:40Z</time>
      </trkpt>
      <trkpt lat="49.31114" lon="0.21428">
        <ele>140.49</ele>
        <time>2020-12-18T13:28:46Z</time>
      </trkpt>
      <trkpt lat="49.31112" lon="0.21453">
        <ele>140.97</ele>
        <time>2020-12-18T13:28:59Z</time>
      </trkpt>
      <trkpt lat="49.31112" lon="0.21455">
        <ele>140.97</ele>
        <time>2020-12-18T13:29:00Z</time>
      </trkpt>
      <trkpt lat="49.31114" lon="0.21485">
        <ele>141.45</ele>
        <time>2020-12-18T13:29:15Z</time>
      </trkpt>
      <trkpt lat="49.31114" lon="0.21498">
        <ele>140.01</ele>
        <time>2020-12-18T13:29:21Z</time>
      </trkpt>
      <trkpt lat="49.31113" lon="0.21522">
        <ele>140.97</ele>
        <time>2020-12-18T13:29:36Z</time>
      </trkpt>
      <trkpt lat="49.31113" lon="0.21548">
        <ele>141.45</ele>
        <time>2020-12-18T13:29:50Z</time>
      </trkpt>
      <trkpt lat="49.31113" lon="0.21582">
        <ele>140.01</ele>
        <time>2020-12-18T13:30:07Z</time>
      </trkpt>
      <trkpt lat="49.31113" lon="0.21602">
        <ele>140.01</ele>
        <time>2020-12-18T13:30:16Z</time>
      </trkpt>
      <trkpt lat="49.31113" lon="0.21612">
        <ele>140.01</ele>
        <time>2020-12-18T13:30:21Z</time>
      </trkpt>
      <trkpt lat="49.31115" lon="0.21621">
        <ele>140.01</ele>
        <time>2020-12-18T13:30:26Z</time>
      </trkpt>
      <trkpt lat="49.31121" lon="0.21655">
        <ele>140.01</ele>
        <time>2020-12-18T13:30:46Z</time>
      </trkpt>
      <trkpt lat="49.31122" lon="0.21662">
        <ele>140.01</ele>
        <time>2020-12-18T13:30:50Z</time>
      </trkpt>
      <trkpt lat="49.31121" lon="0.21669">
        <ele>139.53</ele>
        <time>2020-12-18T13:30:54Z</time>
      </trkpt>
      <trkpt lat="49.31122" lon="0.21702">
        <ele>138.09</ele>
        <time>2020-12-18T13:31:11Z</time>
      </trkpt>
      <trkpt lat="49.31123" lon="0.21711">
        <ele>140.01</ele>
        <time>2020-12-18T13:31:15Z</time>
      </trkpt>
      <trkpt lat="49.31125" lon="0.2174">
        <ele>140.49</ele>
        <time>2020-12-18T13:31:31Z</time>
      </trkpt>
      <trkpt lat="49.31128" lon="0.21772">
        <ele>138.57</ele>
        <time>2020-12-18T13:31:48Z</time>
      </trkpt>
      <trkpt lat="49.3113" lon="0.21793">
        <ele>138.57</ele>
        <time>2020-12-18T13:32:01Z</time>
      </trkpt>
      <trkpt lat="49.31132" lon="0.2182">
        <ele>138.09</ele>
        <time>2020-12-18T13:32:17Z</time>
      </trkpt>
      <trkpt lat="49.31133" lon="0.21824">
        <ele>138.09</ele>
        <time>2020-12-18T13:32:19Z</time>
      </trkpt>
      <trkpt lat="49.31133" lon="0.21834">
        <ele>138.09</ele>
        <time>2020-12-18T13:32:24Z</time>
      </trkpt>
      <trkpt lat="49.31134" lon="0.21866">
        <ele>138.09</ele>
        <time>2020-12-18T13:32:41Z</time>
      </trkpt>
      <trkpt lat="49.31129" lon="0.21899">
        <ele>137.61</ele>
        <time>2020-12-18T13:33:01Z</time>
      </trkpt>
      <trkpt lat="49.31127" lon="0.21921">
        <ele>137.61</ele>
        <time>2020-12-18T13:33:12Z</time>
      </trkpt>
      <trkpt lat="49.31126" lon="0.21934">
        <ele>137.13</ele>
        <time>2020-12-18T13:33:19Z</time>
      </trkpt>
      <trkpt lat="49.31126" lon="0.21944">
        <ele>137.13</ele>
        <time>2020-12-18T13:33:24Z</time>
      </trkpt>
      <trkpt lat="49.31124" lon="0.2196">
        <ele>137.13</ele>
        <time>2020-12-18T13:33:42Z</time>
      </trkpt>
      <trkpt lat="49.31122" lon="0.21969">
        <ele>136.64</ele>
        <time>2020-12-18T13:34:07Z</time>
      </trkpt>
      <trkpt lat="49.31119" lon="0.21994">
        <ele>136.16</ele>
        <time>2020-12-18T13:34:23Z</time>
      </trkpt>
      <trkpt lat="49.31116" lon="0.2202">
        <ele>135.68</ele>
        <time>2020-12-18T13:34:36Z</time>
      </trkpt>
      <trkpt lat="49.31113" lon="0.22054">
        <ele>134.72</ele>
        <time>2020-12-18T13:34:50Z</time>
      </trkpt>
      <trkpt lat="49.3111" lon="0.2208">
        <ele>133.76</ele>
        <time>2020-12-18T13:35:05Z</time>
      </trkpt>
      <trkpt lat="49.31106" lon="0.22108">
        <ele>132.32</ele>
        <time>2020-12-18T13:35:22Z</time>
      </trkpt>
      <trkpt lat="49.31105" lon="0.22111">
        <ele>132.8</ele>
        <time>2020-12-18T13:35:24Z</time>
      </trkpt>
      <trkpt lat="49.311" lon="0.22136">
        <ele>132.8</ele>
        <time>2020-12-18T13:35:37Z</time>
      </trkpt>
      <trkpt lat="49.31096" lon="0.22161">
        <ele>132.32</ele>
        <time>2020-12-18T13:35:50Z</time>
      </trkpt>
      <trkpt lat="49.31094" lon="0.22169">
        <ele>132.32</ele>
        <time>2020-12-18T13:35:54Z</time>
      </trkpt>
      <trkpt lat="49.31089" lon="0.222">
        <ele>131.36</ele>
        <time>2020-12-18T13:36:10Z</time>
      </trkpt>
      <trkpt lat="49.3109" lon="0.22228">
        <ele>130.4</ele>
        <time>2020-12-18T13:36:26Z</time>
      </trkpt>
      <trkpt lat="49.31092" lon="0.2225">
        <ele>130.4</ele>
        <time>2020-12-18T13:36:39Z</time>
      </trkpt>
      <trkpt lat="49.31094" lon="0.22262">
        <ele>130.4</ele>
        <time>2020-12-18T13:36:45Z</time>
      </trkpt>
      <trkpt lat="49.311" lon="0.22289">
        <ele>129.92</ele>
        <time>2020-12-18T13:37:00Z</time>
      </trkpt>
      <trkpt lat="49.31103" lon="0.22311">
        <ele>130.4</ele>
        <time>2020-12-18T13:37:15Z</time>
      </trkpt>
      <trkpt lat="49.31114" lon="0.22335">
        <ele>130.4</ele>
        <time>2020-12-18T13:37:29Z</time>
      </trkpt>
      <trkpt lat="49.31122" lon="0.22357">
        <ele>130.4</ele>
        <time>2020-12-18T13:37:44Z</time>
      </trkpt>
      <trkpt lat="49.31129" lon="0.22381">
        <ele>130.4</ele>
        <time>2020-12-18T13:37:58Z</time>
      </trkpt>
      <trkpt lat="49.31124" lon="0.22393">
        <ele>130.4</ele>
        <time>2020-12-18T13:38:08Z</time>
      </trkpt>
      <trkpt lat="49.31119" lon="0.22395">
        <ele>130.4</ele>
        <time>2020-12-18T13:38:12Z</time>
      </trkpt>
      <trkpt lat="49.31104" lon="0.22391">
        <ele>131.36</ele>
        <time>2020-12-18T13:38:27Z</time>
      </trkpt>
      <trkpt lat="49.31097" lon="0.22388">
        <ele>131.36</ele>
        <time>2020-12-18T13:38:40Z</time>
      </trkpt>
      <trkpt lat="49.31102" lon="0.22388">
        <ele>130.88</ele>
        <time>2020-12-18T13:38:54Z</time>
      </trkpt>
      <trkpt lat="49.31095" lon="0.22381">
        <ele>130.88</ele>
        <time>2020-12-18T13:39:08Z</time>
      </trkpt>
      <trkpt lat="49.31083" lon="0.22373">
        <ele>131.36</ele>
        <time>2020-12-18T13:39:22Z</time>
      </trkpt>
      <trkpt lat="49.31065" lon="0.22361">
        <ele>130.88</ele>
        <time>2020-12-18T13:39:40Z</time>
      </trkpt>
      <trkpt lat="49.31055" lon="0.22357">
        <ele>130.88</ele>
        <time>2020-12-18T13:39:52Z</time>
      </trkpt>
      <trkpt lat="49.31034" lon="0.2235">
        <ele>130.88</ele>
        <time>2020-12-18T13:40:08Z</time>
      </trkpt>
      <trkpt lat="49.31019" lon="0.22337">
        <ele>130.4</ele>
        <time>2020-12-18T13:40:22Z</time>
      </trkpt>
      <trkpt lat="49.31003" lon="0.22312">
        <ele>130.88</ele>
        <time>2020-12-18T13:40:41Z</time>
      </trkpt>
      <trkpt lat="49.30994" lon="0.22316">
        <ele>130.4</ele>
        <time>2020-12-18T13:40:55Z</time>
      </trkpt>
      <trkpt lat="49.30985" lon="0.22325">
        <ele>130.4</ele>
        <time>2020-12-18T13:41:12Z</time>
      </trkpt>
      <trkpt lat="49.30985" lon="0.22326">
        <ele>128.95</ele>
        <time>2020-12-18T13:41:16Z</time>
      </trkpt>
      <trkpt lat="49.30984" lon="0.22327">
        <ele>128.47</ele>
        <time>2020-12-18T13:41:18Z</time>
      </trkpt>
      <trkpt lat="49.30972" lon="0.22327">
        <ele>128.47</ele>
        <time>2020-12-18T13:41:30Z</time>
      </trkpt>
      <trkpt lat="49.30954" lon="0.22322">
        <ele>127.99</ele>
        <time>2020-12-18T13:41:46Z</time>
      </trkpt>
      <trkpt lat="49.30936" lon="0.2232">
        <ele>128.95</ele>
        <time>2020-12-18T13:42:01Z</time>
      </trkpt>
      <trkpt lat="49.30923" lon="0.22319">
        <ele>128.95</ele>
        <time>2020-12-18T13:42:13Z</time>
      </trkpt>
      <trkpt lat="49.30905" lon="0.22314">
        <ele>129.43</ele>
        <time>2020-12-18T13:42:28Z</time>
      </trkpt>
      <trkpt lat="49.30883" lon="0.22311">
        <ele>130.4</ele>
        <time>2020-12-18T13:42:46Z</time>
      </trkpt>
      <trkpt lat="49.30866" lon="0.22303">
        <ele>131.84</ele>
        <time>2020-12-18T13:43:05Z</time>
      </trkpt>
      <trkpt lat="49.30859" lon="0.22301">
        <ele>131.84</ele>
        <time>2020-12-18T13:43:11Z</time>
      </trkpt>
      <trkpt lat="49.30848" lon="0.223">
        <ele>132.32</ele>
        <time>2020-12-18T13:43:20Z</time>
      </trkpt>
      <trkpt lat="49.30826" lon="0.22299">
        <ele>132.8</ele>
        <time>2020-12-18T13:43:37Z</time>
      </trkpt>
      <trkpt lat="49.30822" lon="0.22299">
        <ele>132.8</ele>
        <time>2020-12-18T13:43:40Z</time>
      </trkpt>
      <trkpt lat="49.308" lon="0.22297">
        <ele>132.8</ele>
        <time>2020-12-18T13:43:59Z</time>
      </trkpt>
      <trkpt lat="49.3078" lon="0.22294">
        <ele>132.8</ele>
        <time>2020-12-18T13:44:16Z</time>
      </trkpt>
      <trkpt lat="49.30761" lon="0.22295">
        <ele>133.28</ele>
        <time>2020-12-18T13:44:32Z</time>
      </trkpt>
      <trkpt lat="49.30753" lon="0.22294">
        <ele>131.84</ele>
        <time>2020-12-18T13:44:39Z</time>
      </trkpt>
      <trkpt lat="49.30733" lon="0.22283">
        <ele>130.4</ele>
        <time>2020-12-18T13:44:56Z</time>
      </trkpt>
      <trkpt lat="49.30714" lon="0.22273">
        <ele>127.51</ele>
        <time>2020-12-18T13:45:13Z</time>
      </trkpt>
      <trkpt lat="49.30696" lon="0.22251">
        <ele>125.11</ele>
        <time>2020-12-18T13:45:33Z</time>
      </trkpt>
      <trkpt lat="49.30681" lon="0.22227">
        <ele>122.22</ele>
        <time>2020-12-18T13:45:51Z</time>
      </trkpt>
      <trkpt lat="49.30668" lon="0.22209">
        <ele>119.82</ele>
        <time>2020-12-18T13:46:06Z</time>
      </trkpt>
      <trkpt lat="49.30652" lon="0.22179">
        <ele>117.42</ele>
        <time>2020-12-18T13:46:26Z</time>
      </trkpt>
      <trkpt lat="49.30643" lon="0.22155">
        <ele>114.53</ele>
        <time>2020-12-18T13:46:44Z</time>
      </trkpt>
      <trkpt lat="49.30633" lon="0.22135">
        <ele>112.61</ele>
        <time>2020-12-18T13:47:00Z</time>
      </trkpt>
      <trkpt lat="49.3063" lon="0.22142">
        <ele>111.17</ele>
        <time>2020-12-18T13:47:11Z</time>
      </trkpt>
      <trkpt lat="49.3063" lon="0.22162">
        <ele>111.17</ele>
        <time>2020-12-18T13:47:22Z</time>
      </trkpt>
      <trkpt lat="49.30633" lon="0.22199">
        <ele>110.69</ele>
        <time>2020-12-18T13:47:41Z</time>
      </trkpt>
      <trkpt lat="49.30636" lon="0.22221">
        <ele>111.17</ele>
        <time>2020-12-18T13:47:55Z</time>
      </trkpt>
      <trkpt lat="49.30642" lon="0.22256">
        <ele>111.17</ele>
        <time>2020-12-18T13:48:13Z</time>
      </trkpt>
      <trkpt lat="49.30647" lon="0.22282">
        <ele>110.69</ele>
        <time>2020-12-18T13:48:29Z</time>
      </trkpt>
      <trkpt lat="49.30653" lon="0.2231">
        <ele>110.69</ele>
        <time>2020-12-18T13:48:46Z</time>
      </trkpt>
      <trkpt lat="49.30656" lon="0.22344">
        <ele>110.69</ele>
        <time>2020-12-18T13:49:03Z</time>
      </trkpt>
      <trkpt lat="49.30658" lon="0.22358">
        <ele>110.69</ele>
        <time>2020-12-18T13:49:12Z</time>
      </trkpt>
      <trkpt lat="49.30658" lon="0.22361">
        <ele>110.69</ele>
        <time>2020-12-18T13:49:14Z</time>
      </trkpt>
      <trkpt lat="49.30663" lon="0.22398">
        <ele>110.69</ele>
        <time>2020-12-18T13:49:33Z</time>
      </trkpt>
      <trkpt lat="49.30669" lon="0.22428">
        <ele>110.69</ele>
        <time>2020-12-18T13:49:47Z</time>
      </trkpt>
      <trkpt lat="49.30676" lon="0.22463">
        <ele>110.69</ele>
        <time>2020-12-18T13:50:04Z</time>
      </trkpt>
      <trkpt lat="49.3068" lon="0.22494">
        <ele>110.69</ele>
        <time>2020-12-18T13:50:20Z</time>
      </trkpt>
      <trkpt lat="49.30685" lon="0.22515">
        <ele>110.69</ele>
        <time>2020-12-18T13:50:33Z</time>
      </trkpt>
      <trkpt lat="49.30688" lon="0.22547">
        <ele>111.17</ele>
        <time>2020-12-18T13:50:52Z</time>
      </trkpt>
      <trkpt lat="49.30692" lon="0.22586">
        <ele>111.65</ele>
        <time>2020-12-18T13:51:11Z</time>
      </trkpt>
      <trkpt lat="49.30692" lon="0.2262">
        <ele>112.13</ele>
        <time>2020-12-18T13:51:29Z</time>
      </trkpt>
      <trkpt lat="49.30694" lon="0.22648">
        <ele>112.13</ele>
        <time>2020-12-18T13:51:44Z</time>
      </trkpt>
      <trkpt lat="49.30694" lon="0.2268">
        <ele>112.61</ele>
        <time>2020-12-18T13:52:01Z</time>
      </trkpt>
      <trkpt lat="49.307" lon="0.22708">
        <ele>113.09</ele>
        <time>2020-12-18T13:52:17Z</time>
      </trkpt>
      <trkpt lat="49.30707" lon="0.22741">
        <ele>113.09</ele>
        <time>2020-12-18T13:52:35Z</time>
      </trkpt>
      <trkpt lat="49.30718" lon="0.22773">
        <ele>113.57</ele>
        <time>2020-12-18T13:52:54Z</time>
      </trkpt>
      <trkpt lat="49.30726" lon="0.22798">
        <ele>113.57</ele>
        <time>2020-12-18T13:53:09Z</time>
      </trkpt>
      <trkpt lat="49.30732" lon="0.22815">
        <ele>114.05</ele>
        <time>2020-12-18T13:53:21Z</time>
      </trkpt>
      <trkpt lat="49.30733" lon="0.2282">
        <ele>114.53</ele>
        <time>2020-12-18T13:53:24Z</time>
      </trkpt>
      <trkpt lat="49.30744" lon="0.22853">
        <ele>114.53</ele>
        <time>2020-12-18T13:53:42Z</time>
      </trkpt>
      <trkpt lat="49.3075" lon="0.22883">
        <ele>114.53</ele>
        <time>2020-12-18T13:53:59Z</time>
      </trkpt>
      <trkpt lat="49.30753" lon="0.22911">
        <ele>114.53</ele>
        <time>2020-12-18T13:54:15Z</time>
      </trkpt>
      <trkpt lat="49.30757" lon="0.22938">
        <ele>113.57</ele>
        <time>2020-12-18T13:54:31Z</time>
      </trkpt>
      <trkpt lat="49.3076" lon="0.22962">
        <ele>112.61</ele>
        <time>2020-12-18T13:54:45Z</time>
      </trkpt>
      <trkpt lat="49.30761" lon="0.2299">
        <ele>112.61</ele>
        <time>2020-12-18T13:55:00Z</time>
      </trkpt>
      <trkpt lat="49.3076" lon="0.23021">
        <ele>111.17</ele>
        <time>2020-12-18T13:55:16Z</time>
      </trkpt>
      <trkpt lat="49.30755" lon="0.23049">
        <ele>109.73</ele>
        <time>2020-12-18T13:55:34Z</time>
      </trkpt>
      <trkpt lat="49.3075" lon="0.23073">
        <ele>108.77</ele>
        <time>2020-12-18T13:55:50Z</time>
      </trkpt>
      <trkpt lat="49.30751" lon="0.23104">
        <ele>107.81</ele>
        <time>2020-12-18T13:56:06Z</time>
      </trkpt>
      <trkpt lat="49.30752" lon="0.23133">
        <ele>107.32</ele>
        <time>2020-12-18T13:56:22Z</time>
      </trkpt>
      <trkpt lat="49.30753" lon="0.23139">
        <ele>106.84</ele>
        <time>2020-12-18T13:56:25Z</time>
      </trkpt>
      <trkpt lat="49.30755" lon="0.23155">
        <ele>106.84</ele>
        <time>2020-12-18T13:56:35Z</time>
      </trkpt>
      <trkpt lat="49.30758" lon="0.23189">
        <ele>105.4</ele>
        <time>2020-12-18T13:56:54Z</time>
      </trkpt>
      <trkpt lat="49.3076" lon="0.23222">
        <ele>104.92</ele>
        <time>2020-12-18T13:57:11Z</time>
      </trkpt>
      <trkpt lat="49.30761" lon="0.23255">
        <ele>104.44</ele>
        <time>2020-12-18T13:57:28Z</time>
      </trkpt>
      <trkpt lat="49.30762" lon="0.23288">
        <ele>102.52</ele>
        <time>2020-12-18T13:57:46Z</time>
      </trkpt>
      <trkpt lat="49.3076" lon="0.23322">
        <ele>101.56</ele>
        <time>2020-12-18T13:58:05Z</time>
      </trkpt>
      <trkpt lat="49.30761" lon="0.23355">
        <ele>100.6</ele>
        <time>2020-12-18T13:58:24Z</time>
      </trkpt>
      <trkpt lat="49.30763" lon="0.23384">
        <ele>97.71</ele>
        <time>2020-12-18T13:58:43Z</time>
      </trkpt>
      <trkpt lat="49.30763" lon="0.23384">
        <ele>97.71</ele>
        <time>2020-12-18T13:58:44Z</time>
      </trkpt>
      <trkpt lat="49.30763" lon="0.23386">
        <ele>100.11</ele>
        <time>2020-12-18T13:58:47Z</time>
      </trkpt>
      <trkpt lat="49.30767" lon="0.23401">
        <ele>99.63</ele>
        <time>2020-12-18T13:59:06Z</time>
      </trkpt>
      <trkpt lat="49.30773" lon="0.23428">
        <ele>98.67</ele>
        <time>2020-12-18T13:59:21Z</time>
      </trkpt>
      <trkpt lat="49.30779" lon="0.2346">
        <ele>98.19</ele>
        <time>2020-12-18T13:59:39Z</time>
      </trkpt>
      <trkpt lat="49.30781" lon="0.23468">
        <ele>97.71</ele>
        <time>2020-12-18T13:59:45Z</time>
      </trkpt>
      <trkpt lat="49.30791" lon="0.23491">
        <ele>96.75</ele>
        <time>2020-12-18T14:00:02Z</time>
      </trkpt>
      <trkpt lat="49.30798" lon="0.23509">
        <ele>96.27</ele>
        <time>2020-12-18T14:00:14Z</time>
      </trkpt>
      <trkpt lat="49.30799" lon="0.23515">
        <ele>96.27</ele>
        <time>2020-12-18T14:00:17Z</time>
      </trkpt>
      <trkpt lat="49.30807" lon="0.23541">
        <ele>95.79</ele>
        <time>2020-12-18T14:00:30Z</time>
      </trkpt>
      <trkpt lat="49.30812" lon="0.23561">
        <ele>94.35</ele>
        <time>2020-12-18T14:00:44Z</time>
      </trkpt>
      <trkpt lat="49.30818" lon="0.23585">
        <ele>92.9</ele>
        <time>2020-12-18T14:01:00Z</time>
      </trkpt>
      <trkpt lat="49.30826" lon="0.23615">
        <ele>92.9</ele>
        <time>2020-12-18T14:01:19Z</time>
      </trkpt>
      <trkpt lat="49.30836" lon="0.23644">
        <ele>90.98</ele>
        <time>2020-12-18T14:01:37Z</time>
      </trkpt>
      <trkpt lat="49.30841" lon="0.23673">
        <ele>89.54</ele>
        <time>2020-12-18T14:01:53Z</time>
      </trkpt>
      <trkpt lat="49.30842" lon="0.23701">
        <ele>88.1</ele>
        <time>2020-12-18T14:02:11Z</time>
      </trkpt>
      <trkpt lat="49.30842" lon="0.2373">
        <ele>87.14</ele>
        <time>2020-12-18T14:02:26Z</time>
      </trkpt>
      <trkpt lat="49.3084" lon="0.23761">
        <ele>85.69</ele>
        <time>2020-12-18T14:02:43Z</time>
      </trkpt>
      <trkpt lat="49.30835" lon="0.23789">
        <ele>84.73</ele>
        <time>2020-12-18T14:02:59Z</time>
      </trkpt>
      <trkpt lat="49.30831" lon="0.23823">
        <ele>83.29</ele>
        <time>2020-12-18T14:03:17Z</time>
      </trkpt>
      <trkpt lat="49.30825" lon="0.23862">
        <ele>81.85</ele>
        <time>2020-12-18T14:03:39Z</time>
      </trkpt>
      <trkpt lat="49.30826" lon="0.2387">
        <ele>81.37</ele>
        <time>2020-12-18T14:03:56Z</time>
      </trkpt>
      <trkpt lat="49.30822" lon="0.23889">
        <ele>80.89</ele>
        <time>2020-12-18T14:04:16Z</time>
      </trkpt>
      <trkpt lat="49.30816" lon="0.23921">
        <ele>79.45</ele>
        <time>2020-12-18T14:04:34Z</time>
      </trkpt>
      <trkpt lat="49.30813" lon="0.23955">
        <ele>77.52</ele>
        <time>2020-12-18T14:04:54Z</time>
      </trkpt>
      <trkpt lat="49.3081" lon="0.23992">
        <ele>75.12</ele>
        <time>2020-12-18T14:05:14Z</time>
      </trkpt>
      <trkpt lat="49.30806" lon="0.24034">
        <ele>72.24</ele>
        <time>2020-12-18T14:05:35Z</time>
      </trkpt>
      <trkpt lat="49.30797" lon="0.24073">
        <ele>69.83</ele>
        <time>2020-12-18T14:05:57Z</time>
      </trkpt>
      <trkpt lat="49.30789" lon="0.24104">
        <ele>67.91</ele>
        <time>2020-12-18T14:06:15Z</time>
      </trkpt>
      <trkpt lat="49.30779" lon="0.24138">
        <ele>65.51</ele>
        <time>2020-12-18T14:06:35Z</time>
      </trkpt>
      <trkpt lat="49.30761" lon="0.24165">
        <ele>62.62</ele>
        <time>2020-12-18T14:06:56Z</time>
      </trkpt>
      <trkpt lat="49.30741" lon="0.24193">
        <ele>60.7</ele>
        <time>2020-12-18T14:07:17Z</time>
      </trkpt>
      <trkpt lat="49.30738" lon="0.24228">
        <ele>58.3</ele>
        <time>2020-12-18T14:07:37Z</time>
      </trkpt>
      <trkpt lat="49.30742" lon="0.24268">
        <ele>57.34</ele>
        <time>2020-12-18T14:08:00Z</time>
      </trkpt>
      <trkpt lat="49.30748" lon="0.24309">
        <ele>54.93</ele>
        <time>2020-12-18T14:08:23Z</time>
      </trkpt>
      <trkpt lat="49.3075" lon="0.24322">
        <ele>54.45</ele>
        <time>2020-12-18T14:08:30Z</time>
      </trkpt>
      <trkpt lat="49.30747" lon="0.24352">
        <ele>53.01</ele>
        <time>2020-12-18T14:08:49Z</time>
      </trkpt>
      <trkpt lat="49.30731" lon="0.24367">
        <ele>51.57</ele>
        <time>2020-12-18T14:09:07Z</time>
      </trkpt>
      <trkpt lat="49.30719" lon="0.24374">
        <ele>50.13</ele>
        <time>2020-12-18T14:09:22Z</time>
      </trkpt>
      <trkpt lat="49.30715" lon="0.24371">
        <ele>51.09</ele>
        <time>2020-12-18T14:09:34Z</time>
      </trkpt>
      <trkpt lat="49.30706" lon="0.2436">
        <ele>54.45</ele>
        <time>2020-12-18T14:09:51Z</time>
      </trkpt>
      <trkpt lat="49.30694" lon="0.24341">
        <ele>53.97</ele>
        <time>2020-12-18T14:10:09Z</time>
      </trkpt>
      <trkpt lat="49.30693" lon="0.24339">
        <ele>53.97</ele>
        <time>2020-12-18T14:10:10Z</time>
      </trkpt>
      <trkpt lat="49.30677" lon="0.24308">
        <ele>53.97</ele>
        <time>2020-12-18T14:10:31Z</time>
      </trkpt>
      <trkpt lat="49.30663" lon="0.24284">
        <ele>53.97</ele>
        <time>2020-12-18T14:10:49Z</time>
      </trkpt>
      <trkpt lat="49.30648" lon="0.24255">
        <ele>52.53</ele>
        <time>2020-12-18T14:11:08Z</time>
      </trkpt>
      <trkpt lat="49.30635" lon="0.24232">
        <ele>52.53</ele>
        <time>2020-12-18T14:11:26Z</time>
      </trkpt>
      <trkpt lat="49.30624" lon="0.24211">
        <ele>52.05</ele>
        <time>2020-12-18T14:11:41Z</time>
      </trkpt>
      <trkpt lat="49.30611" lon="0.24188">
        <ele>51.57</ele>
        <time>2020-12-18T14:11:57Z</time>
      </trkpt>
      <trkpt lat="49.30597" lon="0.24163">
        <ele>51.57</ele>
        <time>2020-12-18T14:12:14Z</time>
      </trkpt>
      <trkpt lat="49.30582" lon="0.2414">
        <ele>51.57</ele>
        <time>2020-12-18T14:12:32Z</time>
      </trkpt>
      <trkpt lat="49.30568" lon="0.24115">
        <ele>51.09</ele>
        <time>2020-12-18T14:12:50Z</time>
      </trkpt>
      <trkpt lat="49.30554" lon="0.24091">
        <ele>51.09</ele>
        <time>2020-12-18T14:13:08Z</time>
      </trkpt>
      <trkpt lat="49.30541" lon="0.24067">
        <ele>50.61</ele>
        <time>2020-12-18T14:13:24Z</time>
      </trkpt>
      <trkpt lat="49.30527" lon="0.24043">
        <ele>50.61</ele>
        <time>2020-12-18T14:13:42Z</time>
      </trkpt>
      <trkpt lat="49.30515" lon="0.24022">
        <ele>50.61</ele>
        <time>2020-12-18T14:13:59Z</time>
      </trkpt>
      <trkpt lat="49.30509" lon="0.24009">
        <ele>50.13</ele>
        <time>2020-12-18T14:14:14Z</time>
      </trkpt>
      <trkpt lat="49.30496" lon="0.23987">
        <ele>49.65</ele>
        <time>2020-12-18T14:14:32Z</time>
      </trkpt>
      <trkpt lat="49.30486" lon="0.23969">
        <ele>49.65</ele>
        <time>2020-12-18T14:14:47Z</time>
      </trkpt>
      <trkpt lat="49.30477" lon="0.23954">
        <ele>49.65</ele>
        <time>2020-12-18T14:15:02Z</time>
      </trkpt>
      <trkpt lat="49.30468" lon="0.23933">
        <ele>49.65</ele>
        <time>2020-12-18T14:15:18Z</time>
      </trkpt>
      <trkpt lat="49.30455" lon="0.2391">
        <ele>49.16</ele>
        <time>2020-12-18T14:15:35Z</time>
      </trkpt>
      <trkpt lat="49.30441" lon="0.23884">
        <ele>48.68</ele>
        <time>2020-12-18T14:15:54Z</time>
      </trkpt>
      <trkpt lat="49.30427" lon="0.23859">
        <ele>48.68</ele>
        <time>2020-12-18T14:16:12Z</time>
      </trkpt>
      <trkpt lat="49.30417" lon="0.23839">
        <ele>48.2</ele>
        <time>2020-12-18T14:16:29Z</time>
      </trkpt>
      <trkpt lat="49.30405" lon="0.23811">
        <ele>48.2</ele>
        <time>2020-12-18T14:16:47Z</time>
      </trkpt>
      <trkpt lat="49.30393" lon="0.23783">
        <ele>48.2</ele>
        <time>2020-12-18T14:17:06Z</time>
      </trkpt>
      <trkpt lat="49.30382" lon="0.23757">
        <ele>47.72</ele>
        <time>2020-12-18T14:17:23Z</time>
      </trkpt>
      <trkpt lat="49.30372" lon="0.2373">
        <ele>47.24</ele>
        <time>2020-12-18T14:17:41Z</time>
      </trkpt>
      <trkpt lat="49.30365" lon="0.23706">
        <ele>47.24</ele>
        <time>2020-12-18T14:17:58Z</time>
      </trkpt>
      <trkpt lat="49.30357" lon="0.23681">
        <ele>46.76</ele>
        <time>2020-12-18T14:18:13Z</time>
      </trkpt>
      <trkpt lat="49.30348" lon="0.23654">
        <ele>46.28</ele>
        <time>2020-12-18T14:18:30Z</time>
      </trkpt>
      <trkpt lat="49.30337" lon="0.23619">
        <ele>45.8</ele>
        <time>2020-12-18T14:18:51Z</time>
      </trkpt>
      <trkpt lat="49.30326" lon="0.23584">
        <ele>45.8</ele>
        <time>2020-12-18T14:19:10Z</time>
      </trkpt>
      <trkpt lat="49.30316" lon="0.23551">
        <ele>45.32</ele>
        <time>2020-12-18T14:19:29Z</time>
      </trkpt>
      <trkpt lat="49.30308" lon="0.23524">
        <ele>44.84</ele>
        <time>2020-12-18T14:19:45Z</time>
      </trkpt>
      <trkpt lat="49.30299" lon="0.23487">
        <ele>45.32</ele>
        <time>2020-12-18T14:20:05Z</time>
      </trkpt>
      <trkpt lat="49.30302" lon="0.23482">
        <ele>45.32</ele>
        <time>2020-12-18T14:20:19Z</time>
      </trkpt>
      <trkpt lat="49.30305" lon="0.23483">
        <ele>45.32</ele>
        <time>2020-12-18T14:20:44Z</time>
      </trkpt>
      <trkpt lat="49.30302" lon="0.23475">
        <ele>45.32</ele>
        <time>2020-12-18T14:21:09Z</time>
      </trkpt>
      <trkpt lat="49.303" lon="0.23476">
        <ele>45.32</ele>
        <time>2020-12-18T14:21:39Z</time>
      </trkpt>
      <trkpt lat="49.30301" lon="0.23489">
        <ele>45.32</ele>
        <time>2020-12-18T14:22:08Z</time>
      </trkpt>
      <trkpt lat="49.303" lon="0.2349">
        <ele>45.32</ele>
        <time>2020-12-18T14:22:30Z</time>
      </trkpt>
      <trkpt lat="49.30299" lon="0.23493">
        <ele>45.8</ele>
        <time>2020-12-18T14:23:08Z</time>
      </trkpt>
      <trkpt lat="49.30299" lon="0.23497">
        <ele>45.8</ele>
        <time>2020-12-18T14:23:41Z</time>
      </trkpt>
      <trkpt lat="49.30299" lon="0.23495">
        <ele>46.28</ele>
        <time>2020-12-18T14:24:16Z</time>
      </trkpt>
      <trkpt lat="49.30296" lon="0.23497">
        <ele>46.28</ele>
        <time>2020-12-18T14:24:53Z</time>
      </trkpt>
      <trkpt lat="49.30297" lon="0.23498">
        <ele>46.76</ele>
        <time>2020-12-18T14:25:32Z</time>
      </trkpt>
      <trkpt lat="49.30297" lon="0.23501">
        <ele>46.76</ele>
        <time>2020-12-18T14:26:06Z</time>
      </trkpt>
      <trkpt lat="49.30299" lon="0.23499">
        <ele>46.76</ele>
        <time>2020-12-18T14:26:32Z</time>
      </trkpt>
      <trkpt lat="49.30301" lon="0.23487">
        <ele>47.72</ele>
        <time>2020-12-18T14:26:50Z</time>
      </trkpt>
      <trkpt lat="49.30296" lon="0.2347">
        <ele>48.2</ele>
        <time>2020-12-18T14:27:09Z</time>
      </trkpt>
      <trkpt lat="49.30289" lon="0.23443">
        <ele>48.2</ele>
        <time>2020-12-18T14:27:26Z</time>
      </trkpt>
      <trkpt lat="49.30284" lon="0.2342">
        <ele>46.76</ele>
        <time>2020-12-18T14:27:39Z</time>
      </trkpt>
      <trkpt lat="49.30279" lon="0.23397">
        <ele>46.76</ele>
        <time>2020-12-18T14:27:54Z</time>
      </trkpt>
      <trkpt lat="49.30273" lon="0.23368">
        <ele>46.28</ele>
        <time>2020-12-18T14:28:11Z</time>
      </trkpt>
      <trkpt lat="49.30268" lon="0.23343">
        <ele>45.8</ele>
        <time>2020-12-18T14:28:27Z</time>
      </trkpt>
      <trkpt lat="49.30263" lon="0.23319">
        <ele>45.8</ele>
        <time>2020-12-18T14:28:41Z</time>
      </trkpt>
      <trkpt lat="49.30258" lon="0.23292">
        <ele>45.8</ele>
        <time>2020-12-18T14:28:56Z</time>
      </trkpt>
      <trkpt lat="49.30254" lon="0.23271">
        <ele>45.8</ele>
        <time>2020-12-18T14:29:09Z</time>
      </trkpt>
      <trkpt lat="49.30244" lon="0.23237">
        <ele>45.32</ele>
        <time>2020-12-18T14:29:28Z</time>
      </trkpt>
      <trkpt lat="49.30234" lon="0.23202">
        <ele>44.84</ele>
        <time>2020-12-18T14:29:46Z</time>
      </trkpt>
      <trkpt lat="49.30224" lon="0.2317">
        <ele>44.84</ele>
        <time>2020-12-18T14:30:05Z</time>
      </trkpt>
      <trkpt lat="49.30219" lon="0.23136">
        <ele>44.84</ele>
        <time>2020-12-18T14:30:25Z</time>
      </trkpt>
      <trkpt lat="49.30212" lon="0.23107">
        <ele>44.36</ele>
        <time>2020-12-18T14:30:41Z</time>
      </trkpt>
      <trkpt lat="49.30204" lon="0.23074">
        <ele>44.36</ele>
        <time>2020-12-18T14:31:00Z</time>
      </trkpt>
      <trkpt lat="49.30194" lon="0.23036">
        <ele>43.88</ele>
        <time>2020-12-18T14:31:20Z</time>
      </trkpt>
      <trkpt lat="49.30185" lon="0.22999">
        <ele>43.4</ele>
        <time>2020-12-18T14:31:41Z</time>
      </trkpt>
      <trkpt lat="49.30179" lon="0.22962">
        <ele>43.4</ele>
        <time>2020-12-18T14:32:01Z</time>
      </trkpt>
      <trkpt lat="49.30178" lon="0.22954">
        <ele>43.4</ele>
        <time>2020-12-18T14:32:11Z</time>
      </trkpt>
      <trkpt lat="49.3017" lon="0.22928">
        <ele>43.4</ele>
        <time>2020-12-18T14:32:27Z</time>
      </trkpt>
      <trkpt lat="49.30162" lon="0.22887">
        <ele>43.4</ele>
        <time>2020-12-18T14:32:50Z</time>
      </trkpt>
      <trkpt lat="49.30158" lon="0.2286">
        <ele>43.4</ele>
        <time>2020-12-18T14:33:06Z</time>
      </trkpt>
      <trkpt lat="49.30151" lon="0.22829">
        <ele>43.4</ele>
        <time>2020-12-18T14:33:24Z</time>
      </trkpt>
      <trkpt lat="49.30143" lon="0.22803">
        <ele>43.4</ele>
        <time>2020-12-18T14:33:41Z</time>
      </trkpt>
      <trkpt lat="49.30136" lon="0.22776">
        <ele>41.95</ele>
        <time>2020-12-18T14:33:55Z</time>
      </trkpt>
      <trkpt lat="49.30129" lon="0.22747">
        <ele>41.47</ele>
        <time>2020-12-18T14:34:12Z</time>
      </trkpt>
      <trkpt lat="49.30122" lon="0.22718">
        <ele>41.47</ele>
        <time>2020-12-18T14:34:29Z</time>
      </trkpt>
      <trkpt lat="49.30116" lon="0.22687">
        <ele>40.99</ele>
        <time>2020-12-18T14:34:46Z</time>
      </trkpt>
      <trkpt lat="49.30109" lon="0.22659">
        <ele>40.99</ele>
        <time>2020-12-18T14:35:02Z</time>
      </trkpt>
      <trkpt lat="49.30102" lon="0.22628">
        <ele>40.51</ele>
        <time>2020-12-18T14:35:19Z</time>
      </trkpt>
      <trkpt lat="49.30094" lon="0.22593">
        <ele>40.51</ele>
        <time>2020-12-18T14:35:38Z</time>
      </trkpt>
      <trkpt lat="49.30087" lon="0.22563">
        <ele>40.03</ele>
        <time>2020-12-18T14:35:55Z</time>
      </trkpt>
      <trkpt lat="49.3008" lon="0.22534">
        <ele>40.03</ele>
        <time>2020-12-18T14:36:13Z</time>
      </trkpt>
      <trkpt lat="49.30074" lon="0.22503">
        <ele>40.03</ele>
        <time>2020-12-18T14:36:30Z</time>
      </trkpt>
      <trkpt lat="49.30066" lon="0.22473">
        <ele>40.03</ele>
        <time>2020-12-18T14:36:47Z</time>
      </trkpt>
      <trkpt lat="49.30059" lon="0.22438">
        <ele>39.55</ele>
        <time>2020-12-18T14:37:07Z</time>
      </trkpt>
      <trkpt lat="49.30055" lon="0.22425">
        <ele>39.55</ele>
        <time>2020-12-18T14:37:15Z</time>
      </trkpt>
      <trkpt lat="49.30045" lon="0.22388">
        <ele>39.55</ele>
        <time>2020-12-18T14:37:33Z</time>
      </trkpt>
      <trkpt lat="49.30043" lon="0.2238">
        <ele>39.07</ele>
        <time>2020-12-18T14:37:38Z</time>
      </trkpt>
      <trkpt lat="49.30037" lon="0.22355">
        <ele>39.07</ele>
        <time>2020-12-18T14:37:54Z</time>
      </trkpt>
      <trkpt lat="49.3003" lon="0.22326">
        <ele>39.07</ele>
        <time>2020-12-18T14:38:10Z</time>
      </trkpt>
      <trkpt lat="49.30025" lon="0.22289">
        <ele>39.07</ele>
        <time>2020-12-18T14:38:31Z</time>
      </trkpt>
      <trkpt lat="49.30016" lon="0.22252">
        <ele>38.59</ele>
        <time>2020-12-18T14:38:51Z</time>
      </trkpt>
      <trkpt lat="49.3001" lon="0.22223">
        <ele>38.59</ele>
        <time>2020-12-18T14:39:08Z</time>
      </trkpt>
      <trkpt lat="49.30002" lon="0.22184">
        <ele>38.59</ele>
        <time>2020-12-18T14:39:30Z</time>
      </trkpt>
      <trkpt lat="49.29995" lon="0.22154">
        <ele>38.59</ele>
        <time>2020-12-18T14:39:48Z</time>
      </trkpt>
      <trkpt lat="49.29989" lon="0.22116">
        <ele>38.59</ele>
        <time>2020-12-18T14:40:08Z</time>
      </trkpt>
      <trkpt lat="49.29982" lon="0.22081">
        <ele>38.11</ele>
        <time>2020-12-18T14:40:27Z</time>
      </trkpt>
      <trkpt lat="49.29978" lon="0.22053">
        <ele>38.11</ele>
        <time>2020-12-18T14:40:43Z</time>
      </trkpt>
      <trkpt lat="49.29977" lon="0.22028">
        <ele>38.11</ele>
        <time>2020-12-18T14:40:58Z</time>
      </trkpt>
      <trkpt lat="49.29976" lon="0.22009">
        <ele>37.63</ele>
        <time>2020-12-18T14:41:12Z</time>
      </trkpt>
      <trkpt lat="49.29973" lon="0.21987">
        <ele>37.63</ele>
        <time>2020-12-18T14:41:25Z</time>
      </trkpt>
      <trkpt lat="49.29969" lon="0.21954">
        <ele>37.63</ele>
        <time>2020-12-18T14:41:42Z</time>
      </trkpt>
      <trkpt lat="49.29965" lon="0.21926">
        <ele>37.15</ele>
        <time>2020-12-18T14:41:56Z</time>
      </trkpt>
      <trkpt lat="49.29962" lon="0.21894">
        <ele>37.15</ele>
        <time>2020-12-18T14:42:13Z</time>
      </trkpt>
      <trkpt lat="49.29959" lon="0.21862">
        <ele>37.15</ele>
        <time>2020-12-18T14:42:31Z</time>
      </trkpt>
      <trkpt lat="49.29957" lon="0.21837">
        <ele>37.15</ele>
        <time>2020-12-18T14:42:45Z</time>
      </trkpt>
      <trkpt lat="49.29955" lon="0.21811">
        <ele>36.67</ele>
        <time>2020-12-18T14:43:00Z</time>
      </trkpt>
      <trkpt lat="49.29954" lon="0.21781">
        <ele>36.67</ele>
        <time>2020-12-18T14:43:17Z</time>
      </trkpt>
      <trkpt lat="49.29951" lon="0.2175">
        <ele>36.19</ele>
        <time>2020-12-18T14:43:34Z</time>
      </trkpt>
      <trkpt lat="49.29949" lon="0.21721">
        <ele>36.19</ele>
        <time>2020-12-18T14:43:50Z</time>
      </trkpt>
      <trkpt lat="49.29947" lon="0.217">
        <ele>35.71</ele>
        <time>2020-12-18T14:44:05Z</time>
      </trkpt>
      <trkpt lat="49.29943" lon="0.21671">
        <ele>36.67</ele>
        <time>2020-12-18T14:44:20Z</time>
      </trkpt>
      <trkpt lat="49.2994" lon="0.21642">
        <ele>36.67</ele>
        <time>2020-12-18T14:44:36Z</time>
      </trkpt>
      <trkpt lat="49.29937" lon="0.2161">
        <ele>35.23</ele>
        <time>2020-12-18T14:44:54Z</time>
      </trkpt>
      <trkpt lat="49.29934" lon="0.2158">
        <ele>35.23</ele>
        <time>2020-12-18T14:45:11Z</time>
      </trkpt>
      <trkpt lat="49.29929" lon="0.21542">
        <ele>34.74</ele>
        <time>2020-12-18T14:45:29Z</time>
      </trkpt>
      <trkpt lat="49.29927" lon="0.21515">
        <ele>34.26</ele>
        <time>2020-12-18T14:45:44Z</time>
      </trkpt>
      <trkpt lat="49.29925" lon="0.21486">
        <ele>34.26</ele>
        <time>2020-12-18T14:46:00Z</time>
      </trkpt>
      <trkpt lat="49.29921" lon="0.21459">
        <ele>34.26</ele>
        <time>2020-12-18T14:46:15Z</time>
      </trkpt>
      <trkpt lat="49.29918" lon="0.21432">
        <ele>33.78</ele>
        <time>2020-12-18T14:46:29Z</time>
      </trkpt>
      <trkpt lat="49.29915" lon="0.21404">
        <ele>33.78</ele>
        <time>2020-12-18T14:46:44Z</time>
      </trkpt>
      <trkpt lat="49.29911" lon="0.21373">
        <ele>33.78</ele>
        <time>2020-12-18T14:47:01Z</time>
      </trkpt>
      <trkpt lat="49.29909" lon="0.21343">
        <ele>33.3</ele>
        <time>2020-12-18T14:47:18Z</time>
      </trkpt>
      <trkpt lat="49.29906" lon="0.21301">
        <ele>33.3</ele>
        <time>2020-12-18T14:47:40Z</time>
      </trkpt>
      <trkpt lat="49.29902" lon="0.21269">
        <ele>33.3</ele>
        <time>2020-12-18T14:47:58Z</time>
      </trkpt>
      <trkpt lat="49.29898" lon="0.21252">
        <ele>33.3</ele>
        <time>2020-12-18T14:48:11Z</time>
      </trkpt>
      <trkpt lat="49.299" lon="0.21254">
        <ele>33.3</ele>
        <time>2020-12-18T14:48:34Z</time>
      </trkpt>
      <trkpt lat="49.29899" lon="0.21232">
        <ele>33.3</ele>
        <time>2020-12-18T14:48:49Z</time>
      </trkpt>
      <trkpt lat="49.29896" lon="0.212">
        <ele>32.82</ele>
        <time>2020-12-18T14:49:07Z</time>
      </trkpt>
      <trkpt lat="49.29892" lon="0.21169">
        <ele>32.82</ele>
        <time>2020-12-18T14:49:22Z</time>
      </trkpt>
      <trkpt lat="49.29888" lon="0.21142">
        <ele>32.82</ele>
        <time>2020-12-18T14:49:38Z</time>
      </trkpt>
      <trkpt lat="49.29885" lon="0.21115">
        <ele>32.34</ele>
        <time>2020-12-18T14:49:52Z</time>
      </trkpt>
      <trkpt lat="49.2988" lon="0.21081">
        <ele>31.86</ele>
        <time>2020-12-18T14:50:09Z</time>
      </trkpt>
      <trkpt lat="49.29879" lon="0.21055">
        <ele>31.86</ele>
        <time>2020-12-18T14:50:23Z</time>
      </trkpt>
      <trkpt lat="49.29876" lon="0.21025">
        <ele>31.38</ele>
        <time>2020-12-18T14:50:39Z</time>
      </trkpt>
      <trkpt lat="49.29873" lon="0.20994">
        <ele>31.38</ele>
        <time>2020-12-18T14:50:55Z</time>
      </trkpt>
      <trkpt lat="49.29871" lon="0.20972">
        <ele>30.9</ele>
        <time>2020-12-18T14:51:09Z</time>
      </trkpt>
      <trkpt lat="49.29869" lon="0.20947">
        <ele>30.9</ele>
        <time>2020-12-18T14:51:21Z</time>
      </trkpt>
      <trkpt lat="49.29865" lon="0.20911">
        <ele>30.9</ele>
        <time>2020-12-18T14:51:38Z</time>
      </trkpt>
      <trkpt lat="49.29861" lon="0.20874">
        <ele>30.9</ele>
        <time>2020-12-18T14:51:54Z</time>
      </trkpt>
      <trkpt lat="49.29857" lon="0.20847">
        <ele>30.9</ele>
        <time>2020-12-18T14:52:10Z</time>
      </trkpt>
      <trkpt lat="49.29855" lon="0.20817">
        <ele>30.9</ele>
        <time>2020-12-18T14:52:26Z</time>
      </trkpt>
      <trkpt lat="49.29852" lon="0.20786">
        <ele>30.9</ele>
        <time>2020-12-18T14:52:44Z</time>
      </trkpt>
      <trkpt lat="49.2985" lon="0.20756">
        <ele>30.42</ele>
        <time>2020-12-18T14:53:00Z</time>
      </trkpt>
      <trkpt lat="49.29847" lon="0.20724">
        <ele>29.94</ele>
        <time>2020-12-18T14:53:16Z</time>
      </trkpt>
      <trkpt lat="49.29843" lon="0.20699">
        <ele>30.42</ele>
        <time>2020-12-18T14:53:32Z</time>
      </trkpt>
      <trkpt lat="49.29841" lon="0.20665">
        <ele>30.42</ele>
        <time>2020-12-18T14:53:50Z</time>
      </trkpt>
      <trkpt lat="49.29839" lon="0.20633">
        <ele>30.42</ele>
        <time>2020-12-18T14:54:07Z</time>
      </trkpt>
      <trkpt lat="49.29835" lon="0.206">
        <ele>30.42</ele>
        <time>2020-12-18T14:54:25Z</time>
      </trkpt>
      <trkpt lat="49.29829" lon="0.20563">
        <ele>30.42</ele>
        <time>2020-12-18T14:54:43Z</time>
      </trkpt>
      <trkpt lat="49.29827" lon="0.2054">
        <ele>29.46</ele>
        <time>2020-12-18T14:54:57Z</time>
      </trkpt>
      <trkpt lat="49.29827" lon="0.20532">
        <ele>29.46</ele>
        <time>2020-12-18T14:55:02Z</time>
      </trkpt>
      <trkpt lat="49.29825" lon="0.20501">
        <ele>29.46</ele>
        <time>2020-12-18T14:55:17Z</time>
      </trkpt>
      <trkpt lat="49.29822" lon="0.20467">
        <ele>29.46</ele>
        <time>2020-12-18T14:55:35Z</time>
      </trkpt>
      <trkpt lat="49.29818" lon="0.2044">
        <ele>28.5</ele>
        <time>2020-12-18T14:55:49Z</time>
      </trkpt>
      <trkpt lat="49.29815" lon="0.20415">
        <ele>28.5</ele>
        <time>2020-12-18T14:56:03Z</time>
      </trkpt>
      <trkpt lat="49.29812" lon="0.20385">
        <ele>28.5</ele>
        <time>2020-12-18T14:56:18Z</time>
      </trkpt>
      <trkpt lat="49.29809" lon="0.20365">
        <ele>28.5</ele>
        <time>2020-12-18T14:56:29Z</time>
      </trkpt>
      <trkpt lat="49.29808" lon="0.20334">
        <ele>28.02</ele>
        <time>2020-12-18T14:56:45Z</time>
      </trkpt>
      <trkpt lat="49.29804" lon="0.20306">
        <ele>28.02</ele>
        <time>2020-12-18T14:57:01Z</time>
      </trkpt>
      <trkpt lat="49.29801" lon="0.20269">
        <ele>28.5</ele>
        <time>2020-12-18T14:57:20Z</time>
      </trkpt>
      <trkpt lat="49.29798" lon="0.20242">
        <ele>28.5</ele>
        <time>2020-12-18T14:57:35Z</time>
      </trkpt>
      <trkpt lat="49.29796" lon="0.20219">
        <ele>28.02</ele>
        <time>2020-12-18T14:57:47Z</time>
      </trkpt>
      <trkpt lat="49.29796" lon="0.20218">
        <ele>28.02</ele>
        <time>2020-12-18T14:57:48Z</time>
      </trkpt>
      <trkpt lat="49.29791" lon="0.20192">
        <ele>28.02</ele>
        <time>2020-12-18T14:58:02Z</time>
      </trkpt>
      <trkpt lat="49.29791" lon="0.20161">
        <ele>28.02</ele>
        <time>2020-12-18T14:58:18Z</time>
      </trkpt>
      <trkpt lat="49.29786" lon="0.20136">
        <ele>28.02</ele>
        <time>2020-12-18T14:58:32Z</time>
      </trkpt>
      <trkpt lat="49.29786" lon="0.2013">
        <ele>28.02</ele>
        <time>2020-12-18T14:58:35Z</time>
      </trkpt>
      <trkpt lat="49.29783" lon="0.201">
        <ele>27.53</ele>
        <time>2020-12-18T14:58:50Z</time>
      </trkpt>
      <trkpt lat="49.2978" lon="0.20075">
        <ele>27.53</ele>
        <time>2020-12-18T14:59:04Z</time>
      </trkpt>
      <trkpt lat="49.2978" lon="0.2005">
        <ele>27.05</ele>
        <time>2020-12-18T14:59:20Z</time>
      </trkpt>
      <trkpt lat="49.29777" lon="0.20023">
        <ele>27.05</ele>
        <time>2020-12-18T14:59:35Z</time>
      </trkpt>
      <trkpt lat="49.29773" lon="0.19997">
        <ele>27.05</ele>
        <time>2020-12-18T14:59:49Z</time>
      </trkpt>
      <trkpt lat="49.29771" lon="0.19968">
        <ele>26.57</ele>
        <time>2020-12-18T15:00:05Z</time>
      </trkpt>
      <trkpt lat="49.29769" lon="0.19941">
        <ele>26.57</ele>
        <time>2020-12-18T15:00:20Z</time>
      </trkpt>
      <trkpt lat="49.29766" lon="0.19915">
        <ele>26.57</ele>
        <time>2020-12-18T15:00:34Z</time>
      </trkpt>
      <trkpt lat="49.29764" lon="0.19877">
        <ele>26.09</ele>
        <time>2020-12-18T15:00:55Z</time>
      </trkpt>
      <trkpt lat="49.2976" lon="0.1985">
        <ele>26.09</ele>
        <time>2020-12-18T15:01:09Z</time>
      </trkpt>
      <trkpt lat="49.29758" lon="0.19826">
        <ele>26.09</ele>
        <time>2020-12-18T15:01:23Z</time>
      </trkpt>
      <trkpt lat="49.29754" lon="0.19801">
        <ele>26.09</ele>
        <time>2020-12-18T15:01:37Z</time>
      </trkpt>
      <trkpt lat="49.2975" lon="0.19774">
        <ele>26.09</ele>
        <time>2020-12-18T15:01:51Z</time>
      </trkpt>
      <trkpt lat="49.29747" lon="0.1976">
        <ele>25.61</ele>
        <time>2020-12-18T15:02:02Z</time>
      </trkpt>
      <trkpt lat="49.29747" lon="0.19734">
        <ele>25.61</ele>
        <time>2020-12-18T15:02:18Z</time>
      </trkpt>
      <trkpt lat="49.29744" lon="0.19703">
        <ele>25.61</ele>
        <time>2020-12-18T15:02:34Z</time>
      </trkpt>
      <trkpt lat="49.29738" lon="0.19675">
        <ele>25.61</ele>
        <time>2020-12-18T15:02:46Z</time>
      </trkpt>
      <trkpt lat="49.29737" lon="0.19646">
        <ele>25.13</ele>
        <time>2020-12-18T15:03:01Z</time>
      </trkpt>
      <trkpt lat="49.29735" lon="0.19619">
        <ele>25.13</ele>
        <time>2020-12-18T15:03:15Z</time>
      </trkpt>
      <trkpt lat="49.29731" lon="0.19594">
        <ele>24.65</ele>
        <time>2020-12-18T15:03:29Z</time>
      </trkpt>
      <trkpt lat="49.29724" lon="0.19568">
        <ele>24.65</ele>
        <time>2020-12-18T15:03:46Z</time>
      </trkpt>
      <trkpt lat="49.29719" lon="0.19569">
        <ele>26.09</ele>
        <time>2020-12-18T15:03:54Z</time>
      </trkpt>
      <trkpt lat="49.2971" lon="0.19571">
        <ele>28.98</ele>
        <time>2020-12-18T15:04:09Z</time>
      </trkpt>
      <trkpt lat="49.29701" lon="0.1957">
        <ele>29.94</ele>
        <time>2020-12-18T15:04:20Z</time>
      </trkpt>
      <trkpt lat="49.29686" lon="0.19545">
        <ele>29.94</ele>
        <time>2020-12-18T15:04:39Z</time>
      </trkpt>
      <trkpt lat="49.29669" lon="0.19516">
        <ele>28.02</ele>
        <time>2020-12-18T15:05:01Z</time>
      </trkpt>
      <trkpt lat="49.29652" lon="0.19499">
        <ele>27.05</ele>
        <time>2020-12-18T15:05:19Z</time>
      </trkpt>
      <trkpt lat="49.29627" lon="0.19502">
        <ele>26.09</ele>
        <time>2020-12-18T15:05:40Z</time>
      </trkpt>
      <trkpt lat="49.29612" lon="0.19527">
        <ele>24.65</ele>
        <time>2020-12-18T15:06:00Z</time>
      </trkpt>
      <trkpt lat="49.29598" lon="0.19559">
        <ele>23.21</ele>
        <time>2020-12-18T15:06:21Z</time>
      </trkpt>
      <trkpt lat="49.29583" lon="0.19594">
        <ele>21.77</ele>
        <time>2020-12-18T15:06:43Z</time>
      </trkpt>
      <trkpt lat="49.29568" lon="0.19627">
        <ele>20.32</ele>
        <time>2020-12-18T15:07:05Z</time>
      </trkpt>
      <trkpt lat="49.2955" lon="0.19627">
        <ele>18.88</ele>
        <time>2020-12-18T15:07:20Z</time>
      </trkpt>
      <trkpt lat="49.29543" lon="0.19626">
        <ele>18.4</ele>
        <time>2020-12-18T15:07:32Z</time>
      </trkpt>
      <trkpt lat="49.29535" lon="0.1961">
        <ele>17.92</ele>
        <time>2020-12-18T15:07:51Z</time>
      </trkpt>
      <trkpt lat="49.29531" lon="0.19605">
        <ele>16.96</ele>
        <time>2020-12-18T15:07:53Z</time>
      </trkpt>
      <trkpt lat="49.29505" lon="0.19573">
        <ele>16.48</ele>
        <time>2020-12-18T15:08:12Z</time>
      </trkpt>
      <trkpt lat="49.29486" lon="0.19547">
        <ele>16</ele>
        <time>2020-12-18T15:08:33Z</time>
      </trkpt>
      <trkpt lat="49.29476" lon="0.19528">
        <ele>15.52</ele>
        <time>2020-12-18T15:08:49Z</time>
      </trkpt>
      <trkpt lat="49.29466" lon="0.19498">
        <ele>15.52</ele>
        <time>2020-12-18T15:09:08Z</time>
      </trkpt>
      <trkpt lat="49.29454" lon="0.19465">
        <ele>15.52</ele>
        <time>2020-12-18T15:09:28Z</time>
      </trkpt>
      <trkpt lat="49.29445" lon="0.19438">
        <ele>15.04</ele>
        <time>2020-12-18T15:09:47Z</time>
      </trkpt>
      <trkpt lat="49.29433" lon="0.19407">
        <ele>15.04</ele>
        <time>2020-12-18T15:10:06Z</time>
      </trkpt>
      <trkpt lat="49.29423" lon="0.19375">
        <ele>15.04</ele>
        <time>2020-12-18T15:10:27Z</time>
      </trkpt>
      <trkpt lat="49.29411" lon="0.19346">
        <ele>14.56</ele>
        <time>2020-12-18T15:10:46Z</time>
      </trkpt>
      <trkpt lat="49.29401" lon="0.19318">
        <ele>14.56</ele>
        <time>2020-12-18T15:11:05Z</time>
      </trkpt>
      <trkpt lat="49.29392" lon="0.19294">
        <ele>14.56</ele>
        <time>2020-12-18T15:11:21Z</time>
      </trkpt>
      <trkpt lat="49.29382" lon="0.19266">
        <ele>14.56</ele>
        <time>2020-12-18T15:11:40Z</time>
      </trkpt>
      <trkpt lat="49.29372" lon="0.19237">
        <ele>14.56</ele>
        <time>2020-12-18T15:11:59Z</time>
      </trkpt>
      <trkpt lat="49.29361" lon="0.19203">
        <ele>14.08</ele>
        <time>2020-12-18T15:12:20Z</time>
      </trkpt>
      <trkpt lat="49.2935" lon="0.19189">
        <ele>14.08</ele>
        <time>2020-12-18T15:12:35Z</time>
      </trkpt>
      <trkpt lat="49.29336" lon="0.19168">
        <ele>14.08</ele>
        <time>2020-12-18T15:12:53Z</time>
      </trkpt>
      <trkpt lat="49.2932" lon="0.19146">
        <ele>13.6</ele>
        <time>2020-12-18T15:13:11Z</time>
      </trkpt>
      <trkpt lat="49.29306" lon="0.1913">
        <ele>13.6</ele>
        <time>2020-12-18T15:13:28Z</time>
      </trkpt>
      <trkpt lat="49.29292" lon="0.19109">
        <ele>13.12</ele>
        <time>2020-12-18T15:13:45Z</time>
      </trkpt>
      <trkpt lat="49.29274" lon="0.19087">
        <ele>13.12</ele>
        <time>2020-12-18T15:14:06Z</time>
      </trkpt>
      <trkpt lat="49.29261" lon="0.19069">
        <ele>13.12</ele>
        <time>2020-12-18T15:14:25Z</time>
      </trkpt>
      <trkpt lat="49.29255" lon="0.19059">
        <ele>13.12</ele>
        <time>2020-12-18T15:14:37Z</time>
      </trkpt>
      <trkpt lat="49.29241" lon="0.19041">
        <ele>13.12</ele>
        <time>2020-12-18T15:14:51Z</time>
      </trkpt>
      <trkpt lat="49.29234" lon="0.19025">
        <ele>13.12</ele>
        <time>2020-12-18T15:15:04Z</time>
      </trkpt>
      <trkpt lat="49.29226" lon="0.19016">
        <ele>12.63</ele>
        <time>2020-12-18T15:15:15Z</time>
      </trkpt>
      <trkpt lat="49.29213" lon="0.19007">
        <ele>12.15</ele>
        <time>2020-12-18T15:15:30Z</time>
      </trkpt>
      <trkpt lat="49.29205" lon="0.19001">
        <ele>11.67</ele>
        <time>2020-12-18T15:15:39Z</time>
      </trkpt>
      <trkpt lat="49.29188" lon="0.1899">
        <ele>9.75</ele>
        <time>2020-12-18T15:15:55Z</time>
      </trkpt>
      <trkpt lat="49.29179" lon="0.18991">
        <ele>9.27</ele>
        <time>2020-12-18T15:16:04Z</time>
      </trkpt>
      <trkpt lat="49.29163" lon="0.18996">
        <ele>8.79</ele>
        <time>2020-12-18T15:16:21Z</time>
      </trkpt>
      <trkpt lat="49.29142" lon="0.18995">
        <ele>7.83</ele>
        <time>2020-12-18T15:16:36Z</time>
      </trkpt>
      <trkpt lat="49.2913" lon="0.19007">
        <ele>7.83</ele>
        <time>2020-12-18T15:16:52Z</time>
      </trkpt>
      <trkpt lat="49.29116" lon="0.19023">
        <ele>9.27</ele>
        <time>2020-12-18T15:17:09Z</time>
      </trkpt>
      <trkpt lat="49.29107" lon="0.19036">
        <ele>9.27</ele>
        <time>2020-12-18T15:17:26Z</time>
      </trkpt>
      <trkpt lat="49.29109" lon="0.19038">
        <ele>8.79</ele>
        <time>2020-12-18T15:17:49Z</time>
      </trkpt>
      <trkpt lat="49.29107" lon="0.19037">
        <ele>8.79</ele>
        <time>2020-12-18T15:18:14Z</time>
      </trkpt>
      <trkpt lat="49.291" lon="0.19043">
        <ele>8.79</ele>
        <time>2020-12-18T15:18:26Z</time>
      </trkpt>
      <trkpt lat="49.29092" lon="0.19053">
        <ele>8.79</ele>
        <time>2020-12-18T15:18:40Z</time>
      </trkpt>
      <trkpt lat="49.29082" lon="0.19065">
        <ele>8.31</ele>
        <time>2020-12-18T15:18:53Z</time>
      </trkpt>
      <trkpt lat="49.2907" lon="0.19072">
        <ele>7.83</ele>
        <time>2020-12-18T15:19:05Z</time>
      </trkpt>
      <trkpt lat="49.29057" lon="0.19084">
        <ele>7.83</ele>
        <time>2020-12-18T15:19:19Z</time>
      </trkpt>
      <trkpt lat="49.2906" lon="0.19085">
        <ele>8.31</ele>
        <time>2020-12-18T15:19:30Z</time>
      </trkpt>
      <trkpt lat="49.2904" lon="0.19089">
        <ele>8.31</ele>
        <time>2020-12-18T15:19:59Z</time>
      </trkpt>
      <trkpt lat="49.29034" lon="0.19087">
        <ele>9.27</ele>
        <time>2020-12-18T15:20:12Z</time>
      </trkpt>
      <trkpt lat="49.29026" lon="0.19086">
        <ele>8.31</ele>
        <time>2020-12-18T15:20:25Z</time>
      </trkpt>
      <trkpt lat="49.2902" lon="0.19084">
        <ele>8.31</ele>
        <time>2020-12-18T15:20:37Z</time>
      </trkpt>
      <trkpt lat="49.29008" lon="0.19073">
        <ele>8.31</ele>
        <time>2020-12-18T15:20:50Z</time>
      </trkpt>
      <trkpt lat="49.28994" lon="0.19051">
        <ele>8.31</ele>
        <time>2020-12-18T15:21:08Z</time>
      </trkpt>
      <trkpt lat="49.28985" lon="0.19034">
        <ele>8.31</ele>
        <time>2020-12-18T15:21:22Z</time>
      </trkpt>
      <trkpt lat="49.28969" lon="0.19018">
        <ele>8.31</ele>
        <time>2020-12-18T15:21:38Z</time>
      </trkpt>
      <trkpt lat="49.28958" lon="0.19009">
        <ele>8.31</ele>
        <time>2020-12-18T15:21:48Z</time>
      </trkpt>
      <trkpt lat="49.28941" lon="0.18994">
        <ele>7.83</ele>
        <time>2020-12-18T15:22:04Z</time>
      </trkpt>
      <trkpt lat="49.28919" lon="0.18972">
        <ele>7.35</ele>
        <time>2020-12-18T15:22:25Z</time>
      </trkpt>
      <trkpt lat="49.28905" lon="0.18952">
        <ele>7.35</ele>
        <time>2020-12-18T15:22:43Z</time>
      </trkpt>
      <trkpt lat="49.28893" lon="0.18935">
        <ele>7.35</ele>
        <time>2020-12-18T15:22:59Z</time>
      </trkpt>
      <trkpt lat="49.28879" lon="0.18922">
        <ele>7.35</ele>
        <time>2020-12-18T15:23:13Z</time>
      </trkpt>
      <trkpt lat="49.28876" lon="0.1892">
        <ele>7.35</ele>
        <time>2020-12-18T15:23:15Z</time>
      </trkpt>
      <trkpt lat="49.28861" lon="0.18902">
        <ele>7.35</ele>
        <time>2020-12-18T15:23:30Z</time>
      </trkpt>
      <trkpt lat="49.28844" lon="0.18883">
        <ele>6.87</ele>
        <time>2020-12-18T15:23:47Z</time>
      </trkpt>
      <trkpt lat="49.28832" lon="0.18871">
        <ele>6.39</ele>
        <time>2020-12-18T15:24:05Z</time>
      </trkpt>
      <trkpt lat="49.28818" lon="0.18855">
        <ele>6.39</ele>
        <time>2020-12-18T15:24:21Z</time>
      </trkpt>
      <trkpt lat="49.28797" lon="0.18831">
        <ele>7.35</ele>
        <time>2020-12-18T15:24:43Z</time>
      </trkpt>
      <trkpt lat="49.28784" lon="0.18816">
        <ele>7.83</ele>
        <time>2020-12-18T15:24:58Z</time>
      </trkpt>
      <trkpt lat="49.28778" lon="0.18809">
        <ele>7.83</ele>
        <time>2020-12-18T15:25:04Z</time>
      </trkpt>
      <trkpt lat="49.2876" lon="0.18788">
        <ele>7.83</ele>
        <time>2020-12-18T15:25:23Z</time>
      </trkpt>
      <trkpt lat="49.28743" lon="0.18767">
        <ele>7.83</ele>
        <time>2020-12-18T15:25:42Z</time>
      </trkpt>
      <trkpt lat="49.28724" lon="0.1875">
        <ele>7.83</ele>
        <time>2020-12-18T15:26:01Z</time>
      </trkpt>
      <trkpt lat="49.2872" lon="0.18741">
        <ele>7.35</ele>
        <time>2020-12-18T15:26:08Z</time>
      </trkpt>
      <trkpt lat="49.28716" lon="0.18733">
        <ele>7.35</ele>
        <time>2020-12-18T15:26:14Z</time>
      </trkpt>
      <trkpt lat="49.28704" lon="0.18715">
        <ele>7.35</ele>
        <time>2020-12-18T15:26:30Z</time>
      </trkpt>
      <trkpt lat="49.28696" lon="0.18705">
        <ele>7.35</ele>
        <time>2020-12-18T15:26:39Z</time>
      </trkpt>
      <trkpt lat="49.28686" lon="0.18683">
        <ele>7.35</ele>
        <time>2020-12-18T15:26:57Z</time>
      </trkpt>
      <trkpt lat="49.28678" lon="0.18675">
        <ele>7.35</ele>
        <time>2020-12-18T15:27:09Z</time>
      </trkpt>
      <trkpt lat="49.28675" lon="0.18667">
        <ele>7.35</ele>
        <time>2020-12-18T15:27:15Z</time>
      </trkpt>
      <trkpt lat="49.28673" lon="0.18661">
        <ele>7.35</ele>
        <time>2020-12-18T15:27:19Z</time>
      </trkpt>
      <trkpt lat="49.28662" lon="0.18636">
        <ele>8.31</ele>
        <time>2020-12-18T15:27:38Z</time>
      </trkpt>
      <trkpt lat="49.28652" lon="0.18609">
        <ele>8.31</ele>
        <time>2020-12-18T15:27:55Z</time>
      </trkpt>
      <trkpt lat="49.28641" lon="0.18592">
        <ele>8.79</ele>
        <time>2020-12-18T15:28:09Z</time>
      </trkpt>
      <trkpt lat="49.28631" lon="0.18563">
        <ele>8.79</ele>
        <time>2020-12-18T15:28:28Z</time>
      </trkpt>
      <trkpt lat="49.28621" lon="0.18543">
        <ele>8.79</ele>
        <time>2020-12-18T15:28:42Z</time>
      </trkpt>
      <trkpt lat="49.28613" lon="0.18522">
        <ele>8.79</ele>
        <time>2020-12-18T15:28:56Z</time>
      </trkpt>
      <trkpt lat="49.28611" lon="0.18511">
        <ele>7.35</ele>
        <time>2020-12-18T15:29:02Z</time>
      </trkpt>
      <trkpt lat="49.28607" lon="0.18505">
        <ele>7.35</ele>
        <time>2020-12-18T15:29:06Z</time>
      </trkpt>
      <trkpt lat="49.28596" lon="0.18484">
        <ele>7.35</ele>
        <time>2020-12-18T15:29:22Z</time>
      </trkpt>
      <trkpt lat="49.28585" lon="0.18461">
        <ele>7.35</ele>
        <time>2020-12-18T15:29:37Z</time>
      </trkpt>
      <trkpt lat="49.2857" lon="0.18442">
        <ele>8.31</ele>
        <time>2020-12-18T15:29:55Z</time>
      </trkpt>
      <trkpt lat="49.28559" lon="0.18418">
        <ele>8.79</ele>
        <time>2020-12-18T15:30:10Z</time>
      </trkpt>
      <trkpt lat="49.28549" lon="0.18386">
        <ele>8.79</ele>
        <time>2020-12-18T15:30:27Z</time>
      </trkpt>
      <trkpt lat="49.28541" lon="0.18369">
        <ele>8.79</ele>
        <time>2020-12-18T15:30:40Z</time>
      </trkpt>
      <trkpt lat="49.28538" lon="0.18352">
        <ele>7.35</ele>
        <time>2020-12-18T15:30:52Z</time>
      </trkpt>
      <trkpt lat="49.28534" lon="0.18341">
        <ele>7.35</ele>
        <time>2020-12-18T15:31:01Z</time>
      </trkpt>
      <trkpt lat="49.28514" lon="0.18315">
        <ele>6.87</ele>
        <time>2020-12-18T15:31:20Z</time>
      </trkpt>
      <trkpt lat="49.28509" lon="0.18308">
        <ele>7.35</ele>
        <time>2020-12-18T15:31:28Z</time>
      </trkpt>
      <trkpt lat="49.28496" lon="0.18276">
        <ele>7.35</ele>
        <time>2020-12-18T15:31:48Z</time>
      </trkpt>
      <trkpt lat="49.28496" lon="0.18275">
        <ele>7.35</ele>
        <time>2020-12-18T15:31:49Z</time>
      </trkpt>
      <trkpt lat="49.28487" lon="0.18259">
        <ele>7.35</ele>
        <time>2020-12-18T15:32:02Z</time>
      </trkpt>
      <trkpt lat="49.28483" lon="0.18255">
        <ele>7.35</ele>
        <time>2020-12-18T15:32:08Z</time>
      </trkpt>
      <trkpt lat="49.28471" lon="0.18241">
        <ele>6.87</ele>
        <time>2020-12-18T15:32:24Z</time>
      </trkpt>
      <trkpt lat="49.28463" lon="0.18229">
        <ele>6.87</ele>
        <time>2020-12-18T15:32:37Z</time>
      </trkpt>
      <trkpt lat="49.28453" lon="0.18219">
        <ele>6.87</ele>
        <time>2020-12-18T15:32:49Z</time>
      </trkpt>
      <trkpt lat="49.2844" lon="0.18191">
        <ele>6.87</ele>
        <time>2020-12-18T15:33:08Z</time>
      </trkpt>
      <trkpt lat="49.28433" lon="0.18178">
        <ele>6.87</ele>
        <time>2020-12-18T15:33:20Z</time>
      </trkpt>
      <trkpt lat="49.28419" lon="0.1816">
        <ele>6.87</ele>
        <time>2020-12-18T15:33:36Z</time>
      </trkpt>
      <trkpt lat="49.28405" lon="0.18141">
        <ele>6.39</ele>
        <time>2020-12-18T15:33:52Z</time>
      </trkpt>
      <trkpt lat="49.28391" lon="0.18117">
        <ele>6.39</ele>
        <time>2020-12-18T15:34:07Z</time>
      </trkpt>
      <trkpt lat="49.28369" lon="0.18099">
        <ele>6.87</ele>
        <time>2020-12-18T15:34:25Z</time>
      </trkpt>
      <trkpt lat="49.28355" lon="0.18083">
        <ele>6.87</ele>
        <time>2020-12-18T15:34:41Z</time>
      </trkpt>
      <trkpt lat="49.28339" lon="0.1808">
        <ele>6.87</ele>
        <time>2020-12-18T15:34:58Z</time>
      </trkpt>
      <trkpt lat="49.28332" lon="0.18067">
        <ele>6.87</ele>
        <time>2020-12-18T15:35:11Z</time>
      </trkpt>
      <trkpt lat="49.28319" lon="0.18058">
        <ele>7.35</ele>
        <time>2020-12-18T15:35:25Z</time>
      </trkpt>
      <trkpt lat="49.28304" lon="0.18046">
        <ele>7.83</ele>
        <time>2020-12-18T15:35:40Z</time>
      </trkpt>
      <trkpt lat="49.283" lon="0.1804">
        <ele>7.35</ele>
        <time>2020-12-18T15:35:45Z</time>
      </trkpt>
      <trkpt lat="49.28291" lon="0.18025">
        <ele>7.35</ele>
        <time>2020-12-18T15:35:59Z</time>
      </trkpt>
      <trkpt lat="49.28268" lon="0.18009">
        <ele>8.31</ele>
        <time>2020-12-18T15:36:18Z</time>
      </trkpt>
      <trkpt lat="49.28252" lon="0.17997">
        <ele>8.79</ele>
        <time>2020-12-18T15:36:35Z</time>
      </trkpt>
      <trkpt lat="49.28237" lon="0.17983">
        <ele>9.75</ele>
        <time>2020-12-18T15:36:51Z</time>
      </trkpt>
      <trkpt lat="49.28224" lon="0.17972">
        <ele>11.19</ele>
        <time>2020-12-18T15:37:07Z</time>
      </trkpt>
      <trkpt lat="49.28211" lon="0.17956">
        <ele>12.15</ele>
        <time>2020-12-18T15:37:21Z</time>
      </trkpt>
      <trkpt lat="49.2821" lon="0.17955">
        <ele>12.63</ele>
        <time>2020-12-18T15:37:22Z</time>
      </trkpt>
      <trkpt lat="49.282" lon="0.17944">
        <ele>13.6</ele>
        <time>2020-12-18T15:37:35Z</time>
      </trkpt>
      <trkpt lat="49.28198" lon="0.17945">
        <ele>13.6</ele>
        <time>2020-12-18T15:37:37Z</time>
      </trkpt>
      <trkpt lat="49.28182" lon="0.17959">
        <ele>15.04</ele>
        <time>2020-12-18T15:37:54Z</time>
      </trkpt>
      <trkpt lat="49.28172" lon="0.17983">
        <ele>16.48</ele>
        <time>2020-12-18T15:38:10Z</time>
      </trkpt>
      <trkpt lat="49.28171" lon="0.17984">
        <ele>16.48</ele>
        <time>2020-12-18T15:38:11Z</time>
      </trkpt>
      <trkpt lat="49.28153" lon="0.17995">
        <ele>18.88</ele>
        <time>2020-12-18T15:38:29Z</time>
      </trkpt>
      <trkpt lat="49.28135" lon="0.17983">
        <ele>20.32</ele>
        <time>2020-12-18T15:38:47Z</time>
      </trkpt>
      <trkpt lat="49.2812" lon="0.17971">
        <ele>23.21</ele>
        <time>2020-12-18T15:39:05Z</time>
      </trkpt>
      <trkpt lat="49.28104" lon="0.17958">
        <ele>25.13</ele>
        <time>2020-12-18T15:39:23Z</time>
      </trkpt>
      <trkpt lat="49.28086" lon="0.17944">
        <ele>27.53</ele>
        <time>2020-12-18T15:39:43Z</time>
      </trkpt>
      <trkpt lat="49.28075" lon="0.17935">
        <ele>28.5</ele>
        <time>2020-12-18T15:39:57Z</time>
      </trkpt>
      <trkpt lat="49.2806" lon="0.17923">
        <ele>29.94</ele>
        <time>2020-12-18T15:40:14Z</time>
      </trkpt>
      <trkpt lat="49.28058" lon="0.17922">
        <ele>29.94</ele>
        <time>2020-12-18T15:40:16Z</time>
      </trkpt>
      <trkpt lat="49.2804" lon="0.1792">
        <ele>30.42</ele>
        <time>2020-12-18T15:40:31Z</time>
      </trkpt>
      <trkpt lat="49.28026" lon="0.17921">
        <ele>30.9</ele>
        <time>2020-12-18T15:40:44Z</time>
      </trkpt>
      <trkpt lat="49.28023" lon="0.17914">
        <ele>31.38</ele>
        <time>2020-12-18T15:40:50Z</time>
      </trkpt>
      <trkpt lat="49.28023" lon="0.17909">
        <ele>31.38</ele>
        <time>2020-12-18T15:40:53Z</time>
      </trkpt>
      <trkpt lat="49.28025" lon="0.1788">
        <ele>32.34</ele>
        <time>2020-12-18T15:41:09Z</time>
      </trkpt>
      <trkpt lat="49.28026" lon="0.17856">
        <ele>32.82</ele>
        <time>2020-12-18T15:41:22Z</time>
      </trkpt>
      <trkpt lat="49.28037" lon="0.17843">
        <ele>33.78</ele>
        <time>2020-12-18T15:41:39Z</time>
      </trkpt>
      <trkpt lat="49.28039" lon="0.17838">
        <ele>32.34</ele>
        <time>2020-12-18T15:41:50Z</time>
      </trkpt>
      <trkpt lat="49.2804" lon="0.17838">
        <ele>32.34</ele>
        <time>2020-12-18T15:41:51Z</time>
      </trkpt>
      <trkpt lat="49.28042" lon="0.17836">
        <ele>32.34</ele>
        <time>2020-12-18T15:42:04Z</time>
      </trkpt>
      <trkpt lat="49.28042" lon="0.17836">
        <ele>30.42</ele>
        <time>2020-12-18T15:42:06Z</time>
      </trkpt>
      <trkpt lat="49.28042" lon="0.17836">
        <ele>32.34</ele>
        <time>2020-12-18T15:42:10Z</time>
      </trkpt>
      <trkpt lat="49.28045" lon="0.17836">
        <ele>32.34</ele>
        <time>2020-12-18T15:42:28Z</time>
      </trkpt>
      <trkpt lat="49.28052" lon="0.17831">
        <ele>32.34</ele>
        <time>2020-12-18T15:42:53Z</time>
      </trkpt>
      <trkpt lat="49.28048" lon="0.17833">
        <ele>32.82</ele>
        <time>2020-12-18T15:43:18Z</time>
      </trkpt>
      <trkpt lat="49.28046" lon="0.17834">
        <ele>32.34</ele>
        <time>2020-12-18T15:43:44Z</time>
      </trkpt>
      <trkpt lat="49.28046" lon="0.17834">
        <ele>31.86</ele>
        <time>2020-12-18T15:44:20Z</time>
      </trkpt>
      <trkpt lat="49.28048" lon="0.17834">
        <ele>32.34</ele>
        <time>2020-12-18T15:44:56Z</time>
      </trkpt>
      <trkpt lat="49.28049" lon="0.17839">
        <ele>34.74</ele>
        <time>2020-12-18T15:45:17Z</time>
      </trkpt>
      <trkpt lat="49.28048" lon="0.17845">
        <ele>35.23</ele>
        <time>2020-12-18T15:45:56Z</time>
      </trkpt>
      <trkpt lat="49.28047" lon="0.17844">
        <ele>35.71</ele>
        <time>2020-12-18T15:46:27Z</time>
      </trkpt>
      <trkpt lat="49.28046" lon="0.17844">
        <ele>35.71</ele>
        <time>2020-12-18T15:47:05Z</time>
      </trkpt>
      <trkpt lat="49.28049" lon="0.17846">
        <ele>35.71</ele>
        <time>2020-12-18T15:47:36Z</time>
      </trkpt>
      <trkpt lat="49.28052" lon="0.17844">
        <ele>35.71</ele>
        <time>2020-12-18T15:48:14Z</time>
      </trkpt>
      <trkpt lat="49.28049" lon="0.17844">
        <ele>35.71</ele>
        <time>2020-12-18T15:48:53Z</time>
      </trkpt>
      <trkpt lat="49.28049" lon="0.17844">
        <ele>34.74</ele>
        <time>2020-12-18T15:49:17Z</time>
      </trkpt>
      <trkpt lat="49.2805" lon="0.17844">
        <ele>34.74</ele>
        <time>2020-12-18T15:50:01Z</time>
      </trkpt>
      <trkpt lat="49.2805" lon="0.17846">
        <ele>34.26</ele>
        <time>2020-12-18T15:50:42Z</time>
      </trkpt>
      <trkpt lat="49.28049" lon="0.17845">
        <ele>34.26</ele>
        <time>2020-12-18T15:51:22Z</time>
      </trkpt>
      <trkpt lat="49.28048" lon="0.17842">
        <ele>34.26</ele>
        <time>2020-12-18T15:52:00Z</time>
      </trkpt>
      <trkpt lat="49.28047" lon="0.17843">
        <ele>33.78</ele>
        <time>2020-12-18T15:52:36Z</time>
      </trkpt>
      <trkpt lat="49.28047" lon="0.17842">
        <ele>33.3</ele>
        <time>2020-12-18T15:53:17Z</time>
      </trkpt>
      <trkpt lat="49.28046" lon="0.17844">
        <ele>33.3</ele>
        <time>2020-12-18T15:53:51Z</time>
      </trkpt>
      <trkpt lat="49.28048" lon="0.1784">
        <ele>33.3</ele>
        <time>2020-12-18T15:54:13Z</time>
      </trkpt>
      <trkpt lat="49.28049" lon="0.17841">
        <ele>35.23</ele>
        <time>2020-12-18T15:54:34Z</time>
      </trkpt>
      <trkpt lat="49.2805" lon="0.17843">
        <ele>35.23</ele>
        <time>2020-12-18T15:55:12Z</time>
      </trkpt>
      <trkpt lat="49.2805" lon="0.17846">
        <ele>35.23</ele>
        <time>2020-12-18T15:55:45Z</time>
      </trkpt>
      <trkpt lat="49.2805" lon="0.17847">
        <ele>35.23</ele>
        <time>2020-12-18T15:56:21Z</time>
      </trkpt>
      <trkpt lat="49.28048" lon="0.17845">
        <ele>35.23</ele>
        <time>2020-12-18T15:56:56Z</time>
      </trkpt>
      <trkpt lat="49.28048" lon="0.17845">
        <ele>35.23</ele>
        <time>2020-12-18T15:57:41Z</time>
      </trkpt>
      <trkpt lat="49.28049" lon="0.17844">
        <ele>35.23</ele>
        <time>2020-12-18T15:58:20Z</time>
      </trkpt>
      <trkpt lat="49.28051" lon="0.17844">
        <ele>35.23</ele>
        <time>2020-12-18T15:58:56Z</time>
      </trkpt>
      <trkpt lat="49.28049" lon="0.17844">
        <ele>35.23</ele>
        <time>2020-12-18T15:59:40Z</time>
      </trkpt>
      <trkpt lat="49.28048" lon="0.17843">
        <ele>35.23</ele>
        <time>2020-12-18T16:00:11Z</time>
      </trkpt>
      <trkpt lat="49.2805" lon="0.17844">
        <ele>35.23</ele>
        <time>2020-12-18T16:00:53Z</time>
      </trkpt>
      <trkpt lat="49.28051" lon="0.17844">
        <ele>35.23</ele>
        <time>2020-12-18T16:01:30Z</time>
      </trkpt>
      <trkpt lat="49.28051" lon="0.17844">
        <ele>35.23</ele>
        <time>2020-12-18T16:02:00Z</time>
      </trkpt>
      <trkpt lat="49.2805" lon="0.17845">
        <ele>35.23</ele>
        <time>2020-12-18T16:02:35Z</time>
      </trkpt>
      <trkpt lat="49.28048" lon="0.17842">
        <ele>35.23</ele>
        <time>2020-12-18T16:03:09Z</time>
      </trkpt>
      <trkpt lat="49.28047" lon="0.17846">
        <ele>35.23</ele>
        <time>2020-12-18T16:03:43Z</time>
      </trkpt>
      <trkpt lat="49.28048" lon="0.17846">
        <ele>35.23</ele>
        <time>2020-12-18T16:04:11Z</time>
      </trkpt>
      <trkpt lat="49.28049" lon="0.17848">
        <ele>35.23</ele>
        <time>2020-12-18T16:04:38Z</time>
      </trkpt>
      <trkpt lat="49.28048" lon="0.17845">
        <ele>35.71</ele>
        <time>2020-12-18T16:05:09Z</time>
      </trkpt>
      <trkpt lat="49.28048" lon="0.17841">
        <ele>35.71</ele>
        <time>2020-12-18T16:05:45Z</time>
      </trkpt>
      <trkpt lat="49.28048" lon="0.17841">
        <ele>35.71</ele>
        <time>2020-12-18T16:06:03Z</time>
      </trkpt>
      <trkpt lat="49.28047" lon="0.17842">
        <ele>35.71</ele>
        <time>2020-12-18T16:06:21Z</time>
      </trkpt>
      <trkpt lat="49.28047" lon="0.17842">
        <ele>35.71</ele>
        <time>2020-12-18T16:06:36Z</time>
      </trkpt>
      <trkpt lat="49.28048" lon="0.1784">
        <ele>35.71</ele>
        <time>2020-12-18T16:06:57Z</time>
      </trkpt>
      <trkpt lat="49.28048" lon="0.17839">
        <ele>35.71</ele>
        <time>2020-12-18T16:07:23Z</time>
      </trkpt>
      <trkpt lat="49.28048" lon="0.1784">
        <ele>35.71</ele>
        <time>2020-12-18T16:07:52Z</time>
      </trkpt>
      <trkpt lat="49.28049" lon="0.17842">
        <ele>35.71</ele>
        <time>2020-12-18T16:08:28Z</time>
      </trkpt>
      <trkpt lat="49.28049" lon="0.1784">
        <ele>35.71</ele>
        <time>2020-12-18T16:09:08Z</time>
      </trkpt>
      <trkpt lat="49.28049" lon="0.17841">
        <ele>35.71</ele>
        <time>2020-12-18T16:09:44Z</time>
      </trkpt>
      <trkpt lat="49.28048" lon="0.17841">
        <ele>35.71</ele>
        <time>2020-12-18T16:10:22Z</time>
      </trkpt>
      <trkpt lat="49.28049" lon="0.17841">
        <ele>35.71</ele>
        <time>2020-12-18T16:11:04Z</time>
      </trkpt>
      <trkpt lat="49.2805" lon="0.1784">
        <ele>35.71</ele>
        <time>2020-12-18T16:11:49Z</time>
      </trkpt>
      <trkpt lat="49.2805" lon="0.17841">
        <ele>35.71</ele>
        <time>2020-12-18T16:12:26Z</time>
      </trkpt>
      <trkpt lat="49.28051" lon="0.17841">
        <ele>35.23</ele>
        <time>2020-12-18T16:13:10Z</time>
      </trkpt>
      <trkpt lat="49.28051" lon="0.17843">
        <ele>35.23</ele>
        <time>2020-12-18T16:13:49Z</time>
      </trkpt>
      <trkpt lat="49.2805" lon="0.17845">
        <ele>35.23</ele>
        <time>2020-12-18T16:14:32Z</time>
      </trkpt>
      <trkpt lat="49.28049" lon="0.17843">
        <ele>35.23</ele>
        <time>2020-12-18T16:15:10Z</time>
      </trkpt>
      <trkpt lat="49.28049" lon="0.17841">
        <ele>35.23</ele>
        <time>2020-12-18T16:15:46Z</time>
      </trkpt>
      <trkpt lat="49.28049" lon="0.17842">
        <ele>35.23</ele>
        <time>2020-12-18T16:16:23Z</time>
      </trkpt>
      <trkpt lat="49.28049" lon="0.17844">
        <ele>35.71</ele>
        <time>2020-12-18T16:16:58Z</time>
      </trkpt>
      <trkpt lat="49.2805" lon="0.17846">
        <ele>35.71</ele>
        <time>2020-12-18T16:17:36Z</time>
      </trkpt>
      <trkpt lat="49.2805" lon="0.17847">
        <ele>35.71</ele>
        <time>2020-12-18T16:18:10Z</time>
      </trkpt>
      <trkpt lat="49.28049" lon="0.17847">
        <ele>35.71</ele>
        <time>2020-12-18T16:18:39Z</time>
      </trkpt>
      <trkpt lat="49.28047" lon="0.17845">
        <ele>35.71</ele>
        <time>2020-12-18T16:19:15Z</time>
      </trkpt>
      <trkpt lat="49.28046" lon="0.17846">
        <ele>35.71</ele>
        <time>2020-12-18T16:19:57Z</time>
      </trkpt>
      <trkpt lat="49.28046" lon="0.17846">
        <ele>35.71</ele>
        <time>2020-12-18T16:20:32Z</time>
      </trkpt>
      <trkpt lat="49.28047" lon="0.17845">
        <ele>36.19</ele>
        <time>2020-12-18T16:21:01Z</time>
      </trkpt>
      <trkpt lat="49.28047" lon="0.17845">
        <ele>36.19</ele>
        <time>2020-12-18T16:21:32Z</time>
      </trkpt>
      <trkpt lat="49.28048" lon="0.17845">
        <ele>36.19</ele>
        <time>2020-12-18T16:22:04Z</time>
      </trkpt>
      <trkpt lat="49.28049" lon="0.17846">
        <ele>36.19</ele>
        <time>2020-12-18T16:22:40Z</time>
      </trkpt>
      <trkpt lat="49.2805" lon="0.17844">
        <ele>36.67</ele>
        <time>2020-12-18T16:23:14Z</time>
      </trkpt>
      <trkpt lat="49.28049" lon="0.17842">
        <ele>36.67</ele>
        <time>2020-12-18T16:23:50Z</time>
      </trkpt>
      <trkpt lat="49.28048" lon="0.17842">
        <ele>36.67</ele>
        <time>2020-12-18T16:24:31Z</time>
      </trkpt>
      <trkpt lat="49.28049" lon="0.17843">
        <ele>36.67</ele>
        <time>2020-12-18T16:25:05Z</time>
      </trkpt>
      <trkpt lat="49.2805" lon="0.17842">
        <ele>36.67</ele>
        <time>2020-12-18T16:25:46Z</time>
      </trkpt>
      <trkpt lat="49.2805" lon="0.17842">
        <ele>36.19</ele>
        <time>2020-12-18T16:26:24Z</time>
      </trkpt>
      <trkpt lat="49.2805" lon="0.17842">
        <ele>36.19</ele>
        <time>2020-12-18T16:26:55Z</time>
      </trkpt>
      <trkpt lat="49.28051" lon="0.17844">
        <ele>36.19</ele>
        <time>2020-12-18T16:27:22Z</time>
      </trkpt>
      <trkpt lat="49.28052" lon="0.17844">
        <ele>36.19</ele>
        <time>2020-12-18T16:27:57Z</time>
      </trkpt>
      <trkpt lat="49.28051" lon="0.17843">
        <ele>36.19</ele>
        <time>2020-12-18T16:28:27Z</time>
      </trkpt>
      <trkpt lat="49.28049" lon="0.1784">
        <ele>36.19</ele>
        <time>2020-12-18T16:29:03Z</time>
      </trkpt>
      <trkpt lat="49.28049" lon="0.17841">
        <ele>36.19</ele>
        <time>2020-12-18T16:29:33Z</time>
      </trkpt>
      <trkpt lat="49.28051" lon="0.17843">
        <ele>36.19</ele>
        <time>2020-12-18T16:30:03Z</time>
      </trkpt>
      <trkpt lat="49.2805" lon="0.1784">
        <ele>36.19</ele>
        <time>2020-12-18T16:30:39Z</time>
      </trkpt>
      <trkpt lat="49.2805" lon="0.17839">
        <ele>36.19</ele>
        <time>2020-12-18T16:31:15Z</time>
      </trkpt>
      <trkpt lat="49.2805" lon="0.17838">
        <ele>36.19</ele>
        <time>2020-12-18T16:31:49Z</time>
      </trkpt>
      <trkpt lat="49.28051" lon="0.1784">
        <ele>36.19</ele>
        <time>2020-12-18T16:32:24Z</time>
      </trkpt>
      <trkpt lat="49.2805" lon="0.17839">
        <ele>36.19</ele>
        <time>2020-12-18T16:32:58Z</time>
      </trkpt>
      <trkpt lat="49.28051" lon="0.17841">
        <ele>36.19</ele>
        <time>2020-12-18T16:33:30Z</time>
      </trkpt>
      <trkpt lat="49.28052" lon="0.17842">
        <ele>36.67</ele>
        <time>2020-12-18T16:34:02Z</time>
      </trkpt>
      <trkpt lat="49.28051" lon="0.17843">
        <ele>36.67</ele>
        <time>2020-12-18T16:34:46Z</time>
      </trkpt>
      <trkpt lat="49.28051" lon="0.17842">
        <ele>36.67</ele>
        <time>2020-12-18T16:35:22Z</time>
      </trkpt>
      <trkpt lat="49.28054" lon="0.1784">
        <ele>36.67</ele>
        <time>2020-12-18T16:35:53Z</time>
      </trkpt>
      <trkpt lat="49.28052" lon="0.17839">
        <ele>36.67</ele>
        <time>2020-12-18T16:36:27Z</time>
      </trkpt>
      <trkpt lat="49.28049" lon="0.17842">
        <ele>37.15</ele>
        <time>2020-12-18T16:37:07Z</time>
      </trkpt>
      <trkpt lat="49.2805" lon="0.17842">
        <ele>37.15</ele>
        <time>2020-12-18T16:37:40Z</time>
      </trkpt>
      <trkpt lat="49.28049" lon="0.17841">
        <ele>37.15</ele>
        <time>2020-12-18T16:38:14Z</time>
      </trkpt>
      <trkpt lat="49.28051" lon="0.17841">
        <ele>37.15</ele>
        <time>2020-12-18T16:38:42Z</time>
      </trkpt>
      <trkpt lat="49.28051" lon="0.17839">
        <ele>37.63</ele>
        <time>2020-12-18T16:39:16Z</time>
      </trkpt>
      <trkpt lat="49.28051" lon="0.1784">
        <ele>37.63</ele>
        <time>2020-12-18T16:39:47Z</time>
      </trkpt>
      <trkpt lat="49.28052" lon="0.17841">
        <ele>37.63</ele>
        <time>2020-12-18T16:40:29Z</time>
      </trkpt>
      <trkpt lat="49.28053" lon="0.17841">
        <ele>37.63</ele>
        <time>2020-12-18T16:41:02Z</time>
      </trkpt>
      <trkpt lat="49.28053" lon="0.1784">
        <ele>37.63</ele>
        <time>2020-12-18T16:41:34Z</time>
      </trkpt>
      <trkpt lat="49.28053" lon="0.17842">
        <ele>36.19</ele>
        <time>2020-12-18T16:42:04Z</time>
      </trkpt>
      <trkpt lat="49.28054" lon="0.17842">
        <ele>36.19</ele>
        <time>2020-12-18T16:42:37Z</time>
      </trkpt>
      <trkpt lat="49.28054" lon="0.17842">
        <ele>36.19</ele>
        <time>2020-12-18T16:43:09Z</time>
      </trkpt>
      <trkpt lat="49.28053" lon="0.17842">
        <ele>36.19</ele>
        <time>2020-12-18T16:43:49Z</time>
      </trkpt>
      <trkpt lat="49.28053" lon="0.17842">
        <ele>36.19</ele>
        <time>2020-12-18T16:44:24Z</time>
      </trkpt>
      <trkpt lat="49.28048" lon="0.17841">
        <ele>36.19</ele>
        <time>2020-12-18T16:45:06Z</time>
      </trkpt>
      <trkpt lat="49.28048" lon="0.17841">
        <ele>36.19</ele>
        <time>2020-12-18T16:45:38Z</time>
      </trkpt>
      <trkpt lat="49.28054" lon="0.17842">
        <ele>37.15</ele>
        <time>2020-12-18T16:46:13Z</time>
      </trkpt>
      <trkpt lat="49.28054" lon="0.17843">
        <ele>37.15</ele>
        <time>2020-12-18T16:46:45Z</time>
      </trkpt>
      <trkpt lat="49.28053" lon="0.17841">
        <ele>36.67</ele>
        <time>2020-12-18T16:47:14Z</time>
      </trkpt>
      <trkpt lat="49.28053" lon="0.17838">
        <ele>37.15</ele>
        <time>2020-12-18T16:47:59Z</time>
      </trkpt>
      <trkpt lat="49.28052" lon="0.17839">
        <ele>37.15</ele>
        <time>2020-12-18T16:48:28Z</time>
      </trkpt>
      <trkpt lat="49.28053" lon="0.17839">
        <ele>36.67</ele>
        <time>2020-12-18T16:48:59Z</time>
      </trkpt>
      <trkpt lat="49.28052" lon="0.1784">
        <ele>36.67</ele>
        <time>2020-12-18T16:49:34Z</time>
      </trkpt>
      <trkpt lat="49.28052" lon="0.17839">
        <ele>36.67</ele>
        <time>2020-12-18T16:50:08Z</time>
      </trkpt>
      <trkpt lat="49.28051" lon="0.17841">
        <ele>36.67</ele>
        <time>2020-12-18T16:50:37Z</time>
      </trkpt>
      <trkpt lat="49.2805" lon="0.17841">
        <ele>36.67</ele>
        <time>2020-12-18T16:51:01Z</time>
      </trkpt>
      <trkpt lat="49.28049" lon="0.17841">
        <ele>36.67</ele>
        <time>2020-12-18T16:51:32Z</time>
      </trkpt>
      <trkpt lat="49.28049" lon="0.17844">
        <ele>36.67</ele>
        <time>2020-12-18T16:52:10Z</time>
      </trkpt>
      <trkpt lat="49.2805" lon="0.17842">
        <ele>36.67</ele>
        <time>2020-12-18T16:52:50Z</time>
      </trkpt>
      <trkpt lat="49.28048" lon="0.17843">
        <ele>36.67</ele>
        <time>2020-12-18T16:53:26Z</time>
      </trkpt>
      <trkpt lat="49.28048" lon="0.17844">
        <ele>36.67</ele>
        <time>2020-12-18T16:54:04Z</time>
      </trkpt>
      <trkpt lat="49.2805" lon="0.1784">
        <ele>36.67</ele>
        <time>2020-12-18T16:54:43Z</time>
      </trkpt>
      <trkpt lat="49.2805" lon="0.17841">
        <ele>36.67</ele>
        <time>2020-12-18T16:55:26Z</time>
      </trkpt>
      <trkpt lat="49.28049" lon="0.17841">
        <ele>36.67</ele>
        <time>2020-12-18T16:56:05Z</time>
      </trkpt>
      <trkpt lat="49.28049" lon="0.1784">
        <ele>36.67</ele>
        <time>2020-12-18T16:56:45Z</time>
      </trkpt>
      <trkpt lat="49.2805" lon="0.17839">
        <ele>36.67</ele>
        <time>2020-12-18T16:57:18Z</time>
      </trkpt>
      <trkpt lat="49.28052" lon="0.1784">
        <ele>36.67</ele>
        <time>2020-12-18T16:57:58Z</time>
      </trkpt>
      <trkpt lat="49.28052" lon="0.17842">
        <ele>36.67</ele>
        <time>2020-12-18T16:58:34Z</time>
      </trkpt>
      <trkpt lat="49.28047" lon="0.17841">
        <ele>36.67</ele>
        <time>2020-12-18T16:59:15Z</time>
      </trkpt>
      <trkpt lat="49.28047" lon="0.17842">
        <ele>36.67</ele>
        <time>2020-12-18T16:59:57Z</time>
      </trkpt>
      <trkpt lat="49.28049" lon="0.17843">
        <ele>36.67</ele>
        <time>2020-12-18T17:00:33Z</time>
      </trkpt>
      <trkpt lat="49.2805" lon="0.17846">
        <ele>36.67</ele>
        <time>2020-12-18T17:01:14Z</time>
      </trkpt>
      <trkpt lat="49.28051" lon="0.17844">
        <ele>37.15</ele>
        <time>2020-12-18T17:02:00Z</time>
      </trkpt>
      <trkpt lat="49.28052" lon="0.17841">
        <ele>37.15</ele>
        <time>2020-12-18T17:02:44Z</time>
      </trkpt>
      <trkpt lat="49.28052" lon="0.17842">
        <ele>37.15</ele>
        <time>2020-12-18T17:03:21Z</time>
      </trkpt>
      <trkpt lat="49.28052" lon="0.17841">
        <ele>37.15</ele>
        <time>2020-12-18T17:04:03Z</time>
      </trkpt>
      <trkpt lat="49.28054" lon="0.17842">
        <ele>37.15</ele>
        <time>2020-12-18T17:04:43Z</time>
      </trkpt>
      <trkpt lat="49.28052" lon="0.17842">
        <ele>37.15</ele>
        <time>2020-12-18T17:05:21Z</time>
      </trkpt>
      <trkpt lat="49.28052" lon="0.17843">
        <ele>37.15</ele>
        <time>2020-12-18T17:06:03Z</time>
      </trkpt>
      <trkpt lat="49.2805" lon="0.17845">
        <ele>37.15</ele>
        <time>2020-12-18T17:06:44Z</time>
      </trkpt>
      <trkpt lat="49.28053" lon="0.1784">
        <ele>37.15</ele>
        <time>2020-12-18T17:07:25Z</time>
      </trkpt>
      <trkpt lat="49.28052" lon="0.17843">
        <ele>37.15</ele>
        <time>2020-12-18T17:08:07Z</time>
      </trkpt>
      <trkpt lat="49.28051" lon="0.17844">
        <ele>37.15</ele>
        <time>2020-12-18T17:08:49Z</time>
      </trkpt>
      <trkpt lat="49.28051" lon="0.17845">
        <ele>37.15</ele>
        <time>2020-12-18T17:09:35Z</time>
      </trkpt>
      <trkpt lat="49.28051" lon="0.17844">
        <ele>37.15</ele>
        <time>2020-12-18T17:10:13Z</time>
      </trkpt>
      <trkpt lat="49.2805" lon="0.17845">
        <ele>37.15</ele>
        <time>2020-12-18T17:10:54Z</time>
      </trkpt>
      <trkpt lat="49.2805" lon="0.17843">
        <ele>37.15</ele>
        <time>2020-12-18T17:11:31Z</time>
      </trkpt>
      <trkpt lat="49.2805" lon="0.17842">
        <ele>37.63</ele>
        <time>2020-12-18T17:12:05Z</time>
      </trkpt>
      <trkpt lat="49.2805" lon="0.17842">
        <ele>37.63</ele>
        <time>2020-12-18T17:12:43Z</time>
      </trkpt>
      <trkpt lat="49.28049" lon="0.1784">
        <ele>37.63</ele>
        <time>2020-12-18T17:13:32Z</time>
      </trkpt>
      <trkpt lat="49.28048" lon="0.17838">
        <ele>37.63</ele>
        <time>2020-12-18T17:14:04Z</time>
      </trkpt>
      <trkpt lat="49.28049" lon="0.17839">
        <ele>37.63</ele>
        <time>2020-12-18T17:14:39Z</time>
      </trkpt>
      <trkpt lat="49.28048" lon="0.17843">
        <ele>37.63</ele>
        <time>2020-12-18T17:15:12Z</time>
      </trkpt>
      <trkpt lat="49.28049" lon="0.17842">
        <ele>37.63</ele>
        <time>2020-12-18T17:15:43Z</time>
      </trkpt>
      <trkpt lat="49.28052" lon="0.17842">
        <ele>37.63</ele>
        <time>2020-12-18T17:16:14Z</time>
      </trkpt>
      <trkpt lat="49.28052" lon="0.17844">
        <ele>37.63</ele>
        <time>2020-12-18T17:16:48Z</time>
      </trkpt>
      <trkpt lat="49.2805" lon="0.17844">
        <ele>37.63</ele>
        <time>2020-12-18T17:17:19Z</time>
      </trkpt>
      <trkpt lat="49.28049" lon="0.17846">
        <ele>37.63</ele>
        <time>2020-12-18T17:17:51Z</time>
      </trkpt>
      <trkpt lat="49.28049" lon="0.17845">
        <ele>37.63</ele>
        <time>2020-12-18T17:18:23Z</time>
      </trkpt>
      <trkpt lat="49.28048" lon="0.17843">
        <ele>37.63</ele>
        <time>2020-12-18T17:18:55Z</time>
      </trkpt>
      <trkpt lat="49.28048" lon="0.17845">
        <ele>37.63</ele>
        <time>2020-12-18T17:19:30Z</time>
      </trkpt>
      <trkpt lat="49.28049" lon="0.17844">
        <ele>37.63</ele>
        <time>2020-12-18T17:20:01Z</time>
      </trkpt>
      <trkpt lat="49.2805" lon="0.1784">
        <ele>37.63</ele>
        <time>2020-12-18T17:20:32Z</time>
      </trkpt>
      <trkpt lat="49.2805" lon="0.17844">
        <ele>37.63</ele>
        <time>2020-12-18T17:21:08Z</time>
      </trkpt>
      <trkpt lat="49.2805" lon="0.17847">
        <ele>37.15</ele>
        <time>2020-12-18T17:21:46Z</time>
      </trkpt>
      <trkpt lat="49.28051" lon="0.17845">
        <ele>37.15</ele>
        <time>2020-12-18T17:22:23Z</time>
      </trkpt>
      <trkpt lat="49.28051" lon="0.17843">
        <ele>37.15</ele>
        <time>2020-12-18T17:22:57Z</time>
      </trkpt>
      <trkpt lat="49.28052" lon="0.17843">
        <ele>37.15</ele>
        <time>2020-12-18T17:23:43Z</time>
      </trkpt>
      <trkpt lat="49.2805" lon="0.17844">
        <ele>37.15</ele>
        <time>2020-12-18T17:24:16Z</time>
      </trkpt>
      <trkpt lat="49.2805" lon="0.17843">
        <ele>37.15</ele>
        <time>2020-12-18T17:24:53Z</time>
      </trkpt>
      <trkpt lat="49.2805" lon="0.17843">
        <ele>37.63</ele>
        <time>2020-12-18T17:25:27Z</time>
      </trkpt>
      <trkpt lat="49.28052" lon="0.17843">
        <ele>37.63</ele>
        <time>2020-12-18T17:25:57Z</time>
      </trkpt>
      <trkpt lat="49.28049" lon="0.17844">
        <ele>37.15</ele>
        <time>2020-12-18T17:26:30Z</time>
      </trkpt>
      <trkpt lat="49.28049" lon="0.17844">
        <ele>37.15</ele>
        <time>2020-12-18T17:26:59Z</time>
      </trkpt>
      <trkpt lat="49.28052" lon="0.17843">
        <ele>37.15</ele>
        <time>2020-12-18T17:27:23Z</time>
      </trkpt>
      <trkpt lat="49.28052" lon="0.17842">
        <ele>37.15</ele>
        <time>2020-12-18T17:27:59Z</time>
      </trkpt>
      <trkpt lat="49.28051" lon="0.17841">
        <ele>37.15</ele>
        <time>2020-12-18T17:28:35Z</time>
      </trkpt>
      <trkpt lat="49.28051" lon="0.17841">
        <ele>37.15</ele>
        <time>2020-12-18T17:29:03Z</time>
      </trkpt>
      <trkpt lat="49.28052" lon="0.17843">
        <ele>37.15</ele>
        <time>2020-12-18T17:29:37Z</time>
      </trkpt>
      <trkpt lat="49.28055" lon="0.1784">
        <ele>37.15</ele>
        <time>2020-12-18T17:30:07Z</time>
      </trkpt>
      <trkpt lat="49.28054" lon="0.17839">
        <ele>37.15</ele>
        <time>2020-12-18T17:30:31Z</time>
      </trkpt>
      <trkpt lat="49.28052" lon="0.17842">
        <ele>37.15</ele>
        <time>2020-12-18T17:30:59Z</time>
      </trkpt>
      <trkpt lat="49.28051" lon="0.17841">
        <ele>37.15</ele>
        <time>2020-12-18T17:31:34Z</time>
      </trkpt>
      <trkpt lat="49.28052" lon="0.17842">
        <ele>37.15</ele>
        <time>2020-12-18T17:32:20Z</time>
      </trkpt>
      <trkpt lat="49.28053" lon="0.17842">
        <ele>37.15</ele>
        <time>2020-12-18T17:32:55Z</time>
      </trkpt>
      <trkpt lat="49.28051" lon="0.17843">
        <ele>37.63</ele>
        <time>2020-12-18T17:33:32Z</time>
      </trkpt>
      <trkpt lat="49.2805" lon="0.17842">
        <ele>37.63</ele>
        <time>2020-12-18T17:34:06Z</time>
      </trkpt>
      <trkpt lat="49.2805" lon="0.17839">
        <ele>37.63</ele>
        <time>2020-12-18T17:34:37Z</time>
      </trkpt>
      <trkpt lat="49.28049" lon="0.17839">
        <ele>37.63</ele>
        <time>2020-12-18T17:35:11Z</time>
      </trkpt>
      <trkpt lat="49.2805" lon="0.17839">
        <ele>37.63</ele>
        <time>2020-12-18T17:35:43Z</time>
      </trkpt>
      <trkpt lat="49.2805" lon="0.17839">
        <ele>37.63</ele>
        <time>2020-12-18T17:36:10Z</time>
      </trkpt>
      <trkpt lat="49.2805" lon="0.17839">
        <ele>37.63</ele>
        <time>2020-12-18T17:36:34Z</time>
      </trkpt>
      <trkpt lat="49.28049" lon="0.1784">
        <ele>37.63</ele>
        <time>2020-12-18T17:37:07Z</time>
      </trkpt>
      <trkpt lat="49.2805" lon="0.17843">
        <ele>37.63</ele>
        <time>2020-12-18T17:37:36Z</time>
      </trkpt>
      <trkpt lat="49.28049" lon="0.17843">
        <ele>37.63</ele>
        <time>2020-12-18T17:38:05Z</time>
      </trkpt>
      <trkpt lat="49.28051" lon="0.17843">
        <ele>37.63</ele>
        <time>2020-12-18T17:38:38Z</time>
      </trkpt>
      <trkpt lat="49.28051" lon="0.17843">
        <ele>37.63</ele>
        <time>2020-12-18T17:39:07Z</time>
      </trkpt>
      <trkpt lat="49.2805" lon="0.17843">
        <ele>38.11</ele>
        <time>2020-12-18T17:39:40Z</time>
      </trkpt>
      <trkpt lat="49.2805" lon="0.1784">
        <ele>38.11</ele>
        <time>2020-12-18T17:40:14Z</time>
      </trkpt>
      <trkpt lat="49.28052" lon="0.17842">
        <ele>38.11</ele>
        <time>2020-12-18T17:40:40Z</time>
      </trkpt>
      <trkpt lat="49.28053" lon="0.17843">
        <ele>38.11</ele>
        <time>2020-12-18T17:41:18Z</time>
      </trkpt>
      <trkpt lat="49.28052" lon="0.17844">
        <ele>38.11</ele>
        <time>2020-12-18T17:41:58Z</time>
      </trkpt>
      <trkpt lat="49.28052" lon="0.17844">
        <ele>38.11</ele>
        <time>2020-12-18T17:42:32Z</time>
      </trkpt>
      <trkpt lat="49.28052" lon="0.17844">
        <ele>39.07</ele>
        <time>2020-12-18T17:43:03Z</time>
      </trkpt>
      <trkpt lat="49.28052" lon="0.17845">
        <ele>39.07</ele>
        <time>2020-12-18T17:43:40Z</time>
      </trkpt>
      <trkpt lat="49.28052" lon="0.17844">
        <ele>39.07</ele>
        <time>2020-12-18T17:44:17Z</time>
      </trkpt>
      <trkpt lat="49.28052" lon="0.17846">
        <ele>39.07</ele>
        <time>2020-12-18T17:44:54Z</time>
      </trkpt>
      <trkpt lat="49.28051" lon="0.17846">
        <ele>39.07</ele>
        <time>2020-12-18T17:45:27Z</time>
      </trkpt>
      <trkpt lat="49.28051" lon="0.17845">
        <ele>39.07</ele>
        <time>2020-12-18T17:45:56Z</time>
      </trkpt>
      <trkpt lat="49.28051" lon="0.17842">
        <ele>39.07</ele>
        <time>2020-12-18T17:46:35Z</time>
      </trkpt>
      <trkpt lat="49.28049" lon="0.17839">
        <ele>39.55</ele>
        <time>2020-12-18T17:47:09Z</time>
      </trkpt>
      <trkpt lat="49.28048" lon="0.1784">
        <ele>39.55</ele>
        <time>2020-12-18T17:47:44Z</time>
      </trkpt>
      <trkpt lat="49.28046" lon="0.17842">
        <ele>39.55</ele>
        <time>2020-12-18T17:48:20Z</time>
      </trkpt>
      <trkpt lat="49.28047" lon="0.17843">
        <ele>39.55</ele>
        <time>2020-12-18T17:48:58Z</time>
      </trkpt>
      <trkpt lat="49.2805" lon="0.17842">
        <ele>39.55</ele>
        <time>2020-12-18T17:49:36Z</time>
      </trkpt>
      <trkpt lat="49.28048" lon="0.17842">
        <ele>39.55</ele>
        <time>2020-12-18T17:50:08Z</time>
      </trkpt>
      <trkpt lat="49.28048" lon="0.17843">
        <ele>39.55</ele>
        <time>2020-12-18T17:50:35Z</time>
      </trkpt>
      <trkpt lat="49.28048" lon="0.17844">
        <ele>40.03</ele>
        <time>2020-12-18T17:51:02Z</time>
      </trkpt>
      <trkpt lat="49.28048" lon="0.17844">
        <ele>40.03</ele>
        <time>2020-12-18T17:51:38Z</time>
      </trkpt>
      <trkpt lat="49.2805" lon="0.17842">
        <ele>40.03</ele>
        <time>2020-12-18T17:52:17Z</time>
      </trkpt>
      <trkpt lat="49.2805" lon="0.17842">
        <ele>40.03</ele>
        <time>2020-12-18T17:52:55Z</time>
      </trkpt>
      <trkpt lat="49.2805" lon="0.17841">
        <ele>40.03</ele>
        <time>2020-12-18T17:53:30Z</time>
      </trkpt>
      <trkpt lat="49.2805" lon="0.17843">
        <ele>40.03</ele>
        <time>2020-12-18T17:54:08Z</time>
      </trkpt>
      <trkpt lat="49.28049" lon="0.17842">
        <ele>40.03</ele>
        <time>2020-12-18T17:54:46Z</time>
      </trkpt>
      <trkpt lat="49.2805" lon="0.17842">
        <ele>40.51</ele>
        <time>2020-12-18T17:55:29Z</time>
      </trkpt>
      <trkpt lat="49.28052" lon="0.1784">
        <ele>40.51</ele>
        <time>2020-12-18T17:56:15Z</time>
      </trkpt>
      <trkpt lat="49.28052" lon="0.17841">
        <ele>40.51</ele>
        <time>2020-12-18T17:56:59Z</time>
      </trkpt>
      <trkpt lat="49.28053" lon="0.17843">
        <ele>40.51</ele>
        <time>2020-12-18T17:57:46Z</time>
      </trkpt>
      <trkpt lat="49.28051" lon="0.17842">
        <ele>40.51</ele>
        <time>2020-12-18T17:58:30Z</time>
      </trkpt>
      <trkpt lat="49.28051" lon="0.17843">
        <ele>40.51</ele>
        <time>2020-12-18T17:59:09Z</time>
      </trkpt>
      <trkpt lat="49.28052" lon="0.17844">
        <ele>40.51</ele>
        <time>2020-12-18T17:59:45Z</time>
      </trkpt>
      <trkpt lat="49.2805" lon="0.17841">
        <ele>40.99</ele>
        <time>2020-12-18T18:00:23Z</time>
      </trkpt>
      <trkpt lat="49.2805" lon="0.17841">
        <ele>40.99</ele>
        <time>2020-12-18T18:00:58Z</time>
      </trkpt>
      <trkpt lat="49.2805" lon="0.17841">
        <ele>40.99</ele>
        <time>2020-12-18T18:01:36Z</time>
      </trkpt>
      <trkpt lat="49.28049" lon="0.17842">
        <ele>40.99</ele>
        <time>2020-12-18T18:02:21Z</time>
      </trkpt>
      <trkpt lat="49.28049" lon="0.17843">
        <ele>40.99</ele>
        <time>2020-12-18T18:03:02Z</time>
      </trkpt>
      <trkpt lat="49.28052" lon="0.17841">
        <ele>40.99</ele>
        <time>2020-12-18T18:03:41Z</time>
      </trkpt>
      <trkpt lat="49.28054" lon="0.17843">
        <ele>40.99</ele>
        <time>2020-12-18T18:04:20Z</time>
      </trkpt>
      <trkpt lat="49.28053" lon="0.17844">
        <ele>40.99</ele>
        <time>2020-12-18T18:04:55Z</time>
      </trkpt>
      <trkpt lat="49.28051" lon="0.17845">
        <ele>40.99</ele>
        <time>2020-12-18T18:05:35Z</time>
      </trkpt>
      <trkpt lat="49.28051" lon="0.17842">
        <ele>40.99</ele>
        <time>2020-12-18T18:06:12Z</time>
      </trkpt>
      <trkpt lat="49.28051" lon="0.17841">
        <ele>40.99</ele>
        <time>2020-12-18T18:06:42Z</time>
      </trkpt>
      <trkpt lat="49.28051" lon="0.1784">
        <ele>40.99</ele>
        <time>2020-12-18T18:07:23Z</time>
      </trkpt>
      <trkpt lat="49.2805" lon="0.1784">
        <ele>41.47</ele>
        <time>2020-12-18T18:08:08Z</time>
      </trkpt>
      <trkpt lat="49.28049" lon="0.17842">
        <ele>41.47</ele>
        <time>2020-12-18T18:08:46Z</time>
      </trkpt>
      <trkpt lat="49.2805" lon="0.17842">
        <ele>41.47</ele>
        <time>2020-12-18T18:09:31Z</time>
      </trkpt>
      <trkpt lat="49.2805" lon="0.17844">
        <ele>41.47</ele>
        <time>2020-12-18T18:10:12Z</time>
      </trkpt>
      <trkpt lat="49.2805" lon="0.17843">
        <ele>41.47</ele>
        <time>2020-12-18T18:10:46Z</time>
      </trkpt>
      <trkpt lat="49.2805" lon="0.17842">
        <ele>41.95</ele>
        <time>2020-12-18T18:11:27Z</time>
      </trkpt>
      <trkpt lat="49.2805" lon="0.17843">
        <ele>41.95</ele>
        <time>2020-12-18T18:12:09Z</time>
      </trkpt>
      <trkpt lat="49.28052" lon="0.17842">
        <ele>41.95</ele>
        <time>2020-12-18T18:12:50Z</time>
      </trkpt>
      <trkpt lat="49.28052" lon="0.17841">
        <ele>42.44</ele>
        <time>2020-12-18T18:13:31Z</time>
      </trkpt>
      <trkpt lat="49.28051" lon="0.17842">
        <ele>42.44</ele>
        <time>2020-12-18T18:14:08Z</time>
      </trkpt>
      <trkpt lat="49.28052" lon="0.17841">
        <ele>42.44</ele>
        <time>2020-12-18T18:14:46Z</time>
      </trkpt>
      <trkpt lat="49.2805" lon="0.17842">
        <ele>42.44</ele>
        <time>2020-12-18T18:15:19Z</time>
      </trkpt>
      <trkpt lat="49.2805" lon="0.17842">
        <ele>42.92</ele>
        <time>2020-12-18T18:15:59Z</time>
      </trkpt>
      <trkpt lat="49.2805" lon="0.17843">
        <ele>42.92</ele>
        <time>2020-12-18T18:16:38Z</time>
      </trkpt>
      <trkpt lat="49.2805" lon="0.17841">
        <ele>42.92</ele>
        <time>2020-12-18T18:17:14Z</time>
      </trkpt>
      <trkpt lat="49.28052" lon="0.17843">
        <ele>42.92</ele>
        <time>2020-12-18T18:17:55Z</time>
      </trkpt>
      <trkpt lat="49.28049" lon="0.17844">
        <ele>43.4</ele>
        <time>2020-12-18T18:18:41Z</time>
      </trkpt>
      <trkpt lat="49.28048" lon="0.17845">
        <ele>43.4</ele>
        <time>2020-12-18T18:19:20Z</time>
      </trkpt>
      <trkpt lat="49.28048" lon="0.17843">
        <ele>43.88</ele>
        <time>2020-12-18T18:20:02Z</time>
      </trkpt>
      <trkpt lat="49.28047" lon="0.17845">
        <ele>43.88</ele>
        <time>2020-12-18T18:20:38Z</time>
      </trkpt>
      <trkpt lat="49.28048" lon="0.17842">
        <ele>43.88</ele>
        <time>2020-12-18T18:21:04Z</time>
      </trkpt>
      <trkpt lat="49.28048" lon="0.17842">
        <ele>43.88</ele>
        <time>2020-12-18T18:21:42Z</time>
      </trkpt>
      <trkpt lat="49.28049" lon="0.17843">
        <ele>43.88</ele>
        <time>2020-12-18T18:22:16Z</time>
      </trkpt>
      <trkpt lat="49.28049" lon="0.17841">
        <ele>43.88</ele>
        <time>2020-12-18T18:22:46Z</time>
      </trkpt>
      <trkpt lat="49.2805" lon="0.17842">
        <ele>43.4</ele>
        <time>2020-12-18T18:23:22Z</time>
      </trkpt>
      <trkpt lat="49.2805" lon="0.17843">
        <ele>43.4</ele>
        <time>2020-12-18T18:23:47Z</time>
      </trkpt>
      <trkpt lat="49.28051" lon="0.17844">
        <ele>43.88</ele>
        <time>2020-12-18T18:24:12Z</time>
      </trkpt>
      <trkpt lat="49.28052" lon="0.17844">
        <ele>43.88</ele>
        <time>2020-12-18T18:24:52Z</time>
      </trkpt>
      <trkpt lat="49.2805" lon="0.17845">
        <ele>43.88</ele>
        <time>2020-12-18T18:25:24Z</time>
      </trkpt>
      <trkpt lat="49.2805" lon="0.17847">
        <ele>43.88</ele>
        <time>2020-12-18T18:26:03Z</time>
      </trkpt>
      <trkpt lat="49.2805" lon="0.17844">
        <ele>44.36</ele>
        <time>2020-12-18T18:26:40Z</time>
      </trkpt>
      <trkpt lat="49.28048" lon="0.17842">
        <ele>43.88</ele>
        <time>2020-12-18T18:27:22Z</time>
      </trkpt>
      <trkpt lat="49.28049" lon="0.17842">
        <ele>43.88</ele>
        <time>2020-12-18T18:27:59Z</time>
      </trkpt>
      <trkpt lat="49.28049" lon="0.17841">
        <ele>43.88</ele>
        <time>2020-12-18T18:28:39Z</time>
      </trkpt>
      <trkpt lat="49.28048" lon="0.17845">
        <ele>44.36</ele>
        <time>2020-12-18T18:29:17Z</time>
      </trkpt>
      <trkpt lat="49.28047" lon="0.17843">
        <ele>44.36</ele>
        <time>2020-12-18T18:29:53Z</time>
      </trkpt>
      <trkpt lat="49.28049" lon="0.17844">
        <ele>44.84</ele>
        <time>2020-12-18T18:30:22Z</time>
      </trkpt>
      <trkpt lat="49.28049" lon="0.17843">
        <ele>44.36</ele>
        <time>2020-12-18T18:30:50Z</time>
      </trkpt>
      <trkpt lat="49.2805" lon="0.17842">
        <ele>44.36</ele>
        <time>2020-12-18T18:31:17Z</time>
      </trkpt>
      <trkpt lat="49.28052" lon="0.17842">
        <ele>44.36</ele>
        <time>2020-12-18T18:31:47Z</time>
      </trkpt>
      <trkpt lat="49.28054" lon="0.17842">
        <ele>44.36</ele>
        <time>2020-12-18T18:32:16Z</time>
      </trkpt>
      <trkpt lat="49.28053" lon="0.17841">
        <ele>43.88</ele>
        <time>2020-12-18T18:32:45Z</time>
      </trkpt>
      <trkpt lat="49.28054" lon="0.17842">
        <ele>43.88</ele>
        <time>2020-12-18T18:33:11Z</time>
      </trkpt>
      <trkpt lat="49.28052" lon="0.17843">
        <ele>43.88</ele>
        <time>2020-12-18T18:33:37Z</time>
      </trkpt>
      <trkpt lat="49.28051" lon="0.17842">
        <ele>43.88</ele>
        <time>2020-12-18T18:34:14Z</time>
      </trkpt>
      <trkpt lat="49.2805" lon="0.17841">
        <ele>43.88</ele>
        <time>2020-12-18T18:34:39Z</time>
      </trkpt>
      <trkpt lat="49.28049" lon="0.17844">
        <ele>43.88</ele>
        <time>2020-12-18T18:35:13Z</time>
      </trkpt>
      <trkpt lat="49.28049" lon="0.17844">
        <ele>43.88</ele>
        <time>2020-12-18T18:36:00Z</time>
      </trkpt>
      <trkpt lat="49.28049" lon="0.17842">
        <ele>43.88</ele>
        <time>2020-12-18T18:36:46Z</time>
      </trkpt>
      <trkpt lat="49.2805" lon="0.17841">
        <ele>43.4</ele>
        <time>2020-12-18T18:37:17Z</time>
      </trkpt>
      <trkpt lat="49.28049" lon="0.17841">
        <ele>43.4</ele>
        <time>2020-12-18T18:37:58Z</time>
      </trkpt>
      <trkpt lat="49.28048" lon="0.1784">
        <ele>43.88</ele>
        <time>2020-12-18T18:38:29Z</time>
      </trkpt>
      <trkpt lat="49.28048" lon="0.17841">
        <ele>43.88</ele>
        <time>2020-12-18T18:38:59Z</time>
      </trkpt>
      <trkpt lat="49.28048" lon="0.17841">
        <ele>43.88</ele>
        <time>2020-12-18T18:39:42Z</time>
      </trkpt>
      <trkpt lat="49.28048" lon="0.17843">
        <ele>43.88</ele>
        <time>2020-12-18T18:40:12Z</time>
      </trkpt>
      <trkpt lat="49.28049" lon="0.17842">
        <ele>43.88</ele>
        <time>2020-12-18T18:40:49Z</time>
      </trkpt>
      <trkpt lat="49.2805" lon="0.17845">
        <ele>43.88</ele>
        <time>2020-12-18T18:41:35Z</time>
      </trkpt>
      <trkpt lat="49.28049" lon="0.17844">
        <ele>43.88</ele>
        <time>2020-12-18T18:42:02Z</time>
      </trkpt>
      <trkpt lat="49.28049" lon="0.17842">
        <ele>43.88</ele>
        <time>2020-12-18T18:42:36Z</time>
      </trkpt>
      <trkpt lat="49.28051" lon="0.17843">
        <ele>43.88</ele>
        <time>2020-12-18T18:43:04Z</time>
      </trkpt>
      <trkpt lat="49.28048" lon="0.17843">
        <ele>43.4</ele>
        <time>2020-12-18T18:43:33Z</time>
      </trkpt>
      <trkpt lat="49.28048" lon="0.17842">
        <ele>43.88</ele>
        <time>2020-12-18T18:44:04Z</time>
      </trkpt>
      <trkpt lat="49.28048" lon="0.1784">
        <ele>43.88</ele>
        <time>2020-12-18T18:44:38Z</time>
      </trkpt>
      <trkpt lat="49.28048" lon="0.1784">
        <ele>43.88</ele>
        <time>2020-12-18T18:45:20Z</time>
      </trkpt>
      <trkpt lat="49.28049" lon="0.17843">
        <ele>43.88</ele>
        <time>2020-12-18T18:45:58Z</time>
      </trkpt>
      <trkpt lat="49.28049" lon="0.17843">
        <ele>43.88</ele>
        <time>2020-12-18T18:46:32Z</time>
      </trkpt>
      <trkpt lat="49.2805" lon="0.17841">
        <ele>43.4</ele>
        <time>2020-12-18T18:47:04Z</time>
      </trkpt>
      <trkpt lat="49.28049" lon="0.17841">
        <ele>43.4</ele>
        <time>2020-12-18T18:47:48Z</time>
      </trkpt>
      <trkpt lat="49.2805" lon="0.17842">
        <ele>43.4</ele>
        <time>2020-12-18T18:48:21Z</time>
      </trkpt>
      <trkpt lat="49.2805" lon="0.17843">
        <ele>43.4</ele>
        <time>2020-12-18T18:48:54Z</time>
      </trkpt>
      <trkpt lat="49.2805" lon="0.17842">
        <ele>42.92</ele>
        <time>2020-12-18T18:49:36Z</time>
      </trkpt>
      <trkpt lat="49.28049" lon="0.17842">
        <ele>43.4</ele>
        <time>2020-12-18T18:50:14Z</time>
      </trkpt>
      <trkpt lat="49.28047" lon="0.1784">
        <ele>43.4</ele>
        <time>2020-12-18T18:50:47Z</time>
      </trkpt>
      <trkpt lat="49.28047" lon="0.17838">
        <ele>42.92</ele>
        <time>2020-12-18T18:51:34Z</time>
      </trkpt>
      <trkpt lat="49.28047" lon="0.1784">
        <ele>42.92</ele>
        <time>2020-12-18T18:52:10Z</time>
      </trkpt>
      <trkpt lat="49.28048" lon="0.1784">
        <ele>42.44</ele>
        <time>2020-12-18T18:52:47Z</time>
      </trkpt>
      <trkpt lat="49.28049" lon="0.17841">
        <ele>42.44</ele>
        <time>2020-12-18T18:53:24Z</time>
      </trkpt>
      <trkpt lat="49.28048" lon="0.1784">
        <ele>42.44</ele>
        <time>2020-12-18T18:54:00Z</time>
      </trkpt>
      <trkpt lat="49.28047" lon="0.17842">
        <ele>41.95</ele>
        <time>2020-12-18T18:54:34Z</time>
      </trkpt>
      <trkpt lat="49.28048" lon="0.17843">
        <ele>41.95</ele>
        <time>2020-12-18T18:55:08Z</time>
      </trkpt>
      <trkpt lat="49.28047" lon="0.17842">
        <ele>41.47</ele>
        <time>2020-12-18T18:55:45Z</time>
      </trkpt>
      <trkpt lat="49.28045" lon="0.17843">
        <ele>41.47</ele>
        <time>2020-12-18T18:56:10Z</time>
      </trkpt>
      <trkpt lat="49.28047" lon="0.17844">
        <ele>41.47</ele>
        <time>2020-12-18T18:56:39Z</time>
      </trkpt>
      <trkpt lat="49.28049" lon="0.17843">
        <ele>40.99</ele>
        <time>2020-12-18T18:57:16Z</time>
      </trkpt>
      <trkpt lat="49.28049" lon="0.17844">
        <ele>40.99</ele>
        <time>2020-12-18T18:57:45Z</time>
      </trkpt>
      <trkpt lat="49.28047" lon="0.17846">
        <ele>40.99</ele>
        <time>2020-12-18T18:58:19Z</time>
      </trkpt>
      <trkpt lat="49.28049" lon="0.17846">
        <ele>41.47</ele>
        <time>2020-12-18T18:59:01Z</time>
      </trkpt>
      <trkpt lat="49.28049" lon="0.17846">
        <ele>41.47</ele>
        <time>2020-12-18T18:59:54Z</time>
      </trkpt>
      <trkpt lat="49.28048" lon="0.17845">
        <ele>41.47</ele>
        <time>2020-12-18T19:00:38Z</time>
      </trkpt>
      <trkpt lat="49.28048" lon="0.17843">
        <ele>41.47</ele>
        <time>2020-12-18T19:01:10Z</time>
      </trkpt>
      <trkpt lat="49.28047" lon="0.17845">
        <ele>41.47</ele>
        <time>2020-12-18T19:01:36Z</time>
      </trkpt>
      <trkpt lat="49.28046" lon="0.17846">
        <ele>41.47</ele>
        <time>2020-12-18T19:02:01Z</time>
      </trkpt>
      <trkpt lat="49.28048" lon="0.17846">
        <ele>41.95</ele>
        <time>2020-12-18T19:02:38Z</time>
      </trkpt>
      <trkpt lat="49.28049" lon="0.17845">
        <ele>41.47</ele>
        <time>2020-12-18T19:03:09Z</time>
      </trkpt>
      <trkpt lat="49.28049" lon="0.17845">
        <ele>41.47</ele>
        <time>2020-12-18T19:03:42Z</time>
      </trkpt>
      <trkpt lat="49.2805" lon="0.17842">
        <ele>41.47</ele>
        <time>2020-12-18T19:04:20Z</time>
      </trkpt>
      <trkpt lat="49.28051" lon="0.17843">
        <ele>41.47</ele>
        <time>2020-12-18T19:04:57Z</time>
      </trkpt>
      <trkpt lat="49.28049" lon="0.17841">
        <ele>41.95</ele>
        <time>2020-12-18T19:05:36Z</time>
      </trkpt>
      <trkpt lat="49.28049" lon="0.1784">
        <ele>41.95</ele>
        <time>2020-12-18T19:06:07Z</time>
      </trkpt>
      <trkpt lat="49.28048" lon="0.17839">
        <ele>41.47</ele>
        <time>2020-12-18T19:06:42Z</time>
      </trkpt>
      <trkpt lat="49.28046" lon="0.1784">
        <ele>41.47</ele>
        <time>2020-12-18T19:07:20Z</time>
      </trkpt>
      <trkpt lat="49.28046" lon="0.17842">
        <ele>41.47</ele>
        <time>2020-12-18T19:07:53Z</time>
      </trkpt>
      <trkpt lat="49.2805" lon="0.17843">
        <ele>41.47</ele>
        <time>2020-12-18T19:08:24Z</time>
      </trkpt>
      <trkpt lat="49.28049" lon="0.17841">
        <ele>41.47</ele>
        <time>2020-12-18T19:08:55Z</time>
      </trkpt>
      <trkpt lat="49.28052" lon="0.17842">
        <ele>41.47</ele>
        <time>2020-12-18T19:09:16Z</time>
      </trkpt>
      <trkpt lat="49.28051" lon="0.17843">
        <ele>41.47</ele>
        <time>2020-12-18T19:09:40Z</time>
      </trkpt>
      <trkpt lat="49.28051" lon="0.17841">
        <ele>41.47</ele>
        <time>2020-12-18T19:10:14Z</time>
      </trkpt>
      <trkpt lat="49.2805" lon="0.17841">
        <ele>41.47</ele>
        <time>2020-12-18T19:10:48Z</time>
      </trkpt>
      <trkpt lat="49.2805" lon="0.17843">
        <ele>41.47</ele>
        <time>2020-12-18T19:11:21Z</time>
      </trkpt>
      <trkpt lat="49.2805" lon="0.17844">
        <ele>40.99</ele>
        <time>2020-12-18T19:11:57Z</time>
      </trkpt>
      <trkpt lat="49.28052" lon="0.17843">
        <ele>40.99</ele>
        <time>2020-12-18T19:12:27Z</time>
      </trkpt>
      <trkpt lat="49.28053" lon="0.17842">
        <ele>40.99</ele>
        <time>2020-12-18T19:12:57Z</time>
      </trkpt>
      <trkpt lat="49.28052" lon="0.17842">
        <ele>40.99</ele>
        <time>2020-12-18T19:13:25Z</time>
      </trkpt>
      <trkpt lat="49.2805" lon="0.17841">
        <ele>40.99</ele>
        <time>2020-12-18T19:13:56Z</time>
      </trkpt>
      <trkpt lat="49.28051" lon="0.17843">
        <ele>40.99</ele>
        <time>2020-12-18T19:14:34Z</time>
      </trkpt>
      <trkpt lat="49.28049" lon="0.17843">
        <ele>40.99</ele>
        <time>2020-12-18T19:15:07Z</time>
      </trkpt>
      <trkpt lat="49.28048" lon="0.17841">
        <ele>40.99</ele>
        <time>2020-12-18T19:15:30Z</time>
      </trkpt>
      <trkpt lat="49.28048" lon="0.17843">
        <ele>40.99</ele>
        <time>2020-12-18T19:16:00Z</time>
      </trkpt>
      <trkpt lat="49.28046" lon="0.17845">
        <ele>40.99</ele>
        <time>2020-12-18T19:16:35Z</time>
      </trkpt>
      <trkpt lat="49.28046" lon="0.17843">
        <ele>40.99</ele>
        <time>2020-12-18T19:17:10Z</time>
      </trkpt>
      <trkpt lat="49.28045" lon="0.17842">
        <ele>40.99</ele>
        <time>2020-12-18T19:17:46Z</time>
      </trkpt>
      <trkpt lat="49.28045" lon="0.17841">
        <ele>40.99</ele>
        <time>2020-12-18T19:18:23Z</time>
      </trkpt>
      <trkpt lat="49.28045" lon="0.17843">
        <ele>40.99</ele>
        <time>2020-12-18T19:18:56Z</time>
      </trkpt>
      <trkpt lat="49.28044" lon="0.17842">
        <ele>40.99</ele>
        <time>2020-12-18T19:19:29Z</time>
      </trkpt>
      <trkpt lat="49.28046" lon="0.17842">
        <ele>40.99</ele>
        <time>2020-12-18T19:19:57Z</time>
      </trkpt>
      <trkpt lat="49.2805" lon="0.17842">
        <ele>40.99</ele>
        <time>2020-12-18T19:20:35Z</time>
      </trkpt>
      <trkpt lat="49.28051" lon="0.17843">
        <ele>40.51</ele>
        <time>2020-12-18T19:21:08Z</time>
      </trkpt>
      <trkpt lat="49.28049" lon="0.17843">
        <ele>40.51</ele>
        <time>2020-12-18T19:21:43Z</time>
      </trkpt>
      <trkpt lat="49.28048" lon="0.17843">
        <ele>40.51</ele>
        <time>2020-12-18T19:22:19Z</time>
      </trkpt>
      <trkpt lat="49.28046" lon="0.17843">
        <ele>40.99</ele>
        <time>2020-12-18T19:22:45Z</time>
      </trkpt>
      <trkpt lat="49.28047" lon="0.17842">
        <ele>40.99</ele>
        <time>2020-12-18T19:23:06Z</time>
      </trkpt>
      <trkpt lat="49.28046" lon="0.17842">
        <ele>40.99</ele>
        <time>2020-12-18T19:23:26Z</time>
      </trkpt>
      <trkpt lat="49.28045" lon="0.17842">
        <ele>40.99</ele>
        <time>2020-12-18T19:23:45Z</time>
      </trkpt>
      <trkpt lat="49.28045" lon="0.17842">
        <ele>40.99</ele>
        <time>2020-12-18T19:24:07Z</time>
      </trkpt>
      <trkpt lat="49.28045" lon="0.1784">
        <ele>40.99</ele>
        <time>2020-12-18T19:24:22Z</time>
      </trkpt>
      <trkpt lat="49.28046" lon="0.1784">
        <ele>40.51</ele>
        <time>2020-12-18T19:24:38Z</time>
      </trkpt>
      <trkpt lat="49.28047" lon="0.17842">
        <ele>40.51</ele>
        <time>2020-12-18T19:24:57Z</time>
      </trkpt>
      <trkpt lat="49.28047" lon="0.17841">
        <ele>40.51</ele>
        <time>2020-12-18T19:25:23Z</time>
      </trkpt>
      <trkpt lat="49.28047" lon="0.17842">
        <ele>40.51</ele>
        <time>2020-12-18T19:25:53Z</time>
      </trkpt>
      <trkpt lat="49.28047" lon="0.1784">
        <ele>40.51</ele>
        <time>2020-12-18T19:26:31Z</time>
      </trkpt>
      <trkpt lat="49.28047" lon="0.1784">
        <ele>40.51</ele>
        <time>2020-12-18T19:27:03Z</time>
      </trkpt>
      <trkpt lat="49.28044" lon="0.17841">
        <ele>40.51</ele>
        <time>2020-12-18T19:27:35Z</time>
      </trkpt>
      <trkpt lat="49.28046" lon="0.17841">
        <ele>40.03</ele>
        <time>2020-12-18T19:28:06Z</time>
      </trkpt>
      <trkpt lat="49.28048" lon="0.17841">
        <ele>40.03</ele>
        <time>2020-12-18T19:28:44Z</time>
      </trkpt>
      <trkpt lat="49.28048" lon="0.17841">
        <ele>40.03</ele>
        <time>2020-12-18T19:29:25Z</time>
      </trkpt>
      <trkpt lat="49.28048" lon="0.17842">
        <ele>40.51</ele>
        <time>2020-12-18T19:30:03Z</time>
      </trkpt>
      <trkpt lat="49.28046" lon="0.17842">
        <ele>40.51</ele>
        <time>2020-12-18T19:30:39Z</time>
      </trkpt>
      <trkpt lat="49.28045" lon="0.17841">
        <ele>40.03</ele>
        <time>2020-12-18T19:31:22Z</time>
      </trkpt>
      <trkpt lat="49.28045" lon="0.17842">
        <ele>40.51</ele>
        <time>2020-12-18T19:31:48Z</time>
      </trkpt>
      <trkpt lat="49.28046" lon="0.17842">
        <ele>40.51</ele>
        <time>2020-12-18T19:32:21Z</time>
      </trkpt>
      <trkpt lat="49.28047" lon="0.17843">
        <ele>40.03</ele>
        <time>2020-12-18T19:33:02Z</time>
      </trkpt>
      <trkpt lat="49.28045" lon="0.17842">
        <ele>40.03</ele>
        <time>2020-12-18T19:33:45Z</time>
      </trkpt>
      <trkpt lat="49.28041" lon="0.17843">
        <ele>40.03</ele>
        <time>2020-12-18T19:34:18Z</time>
      </trkpt>
      <trkpt lat="49.28038" lon="0.17845">
        <ele>39.55</ele>
        <time>2020-12-18T19:34:50Z</time>
      </trkpt>
      <trkpt lat="49.28039" lon="0.17845">
        <ele>39.55</ele>
        <time>2020-12-18T19:35:25Z</time>
      </trkpt>
      <trkpt lat="49.2804" lon="0.17847">
        <ele>39.07</ele>
        <time>2020-12-18T19:35:55Z</time>
      </trkpt>
      <trkpt lat="49.28044" lon="0.17844">
        <ele>39.07</ele>
        <time>2020-12-18T19:36:28Z</time>
      </trkpt>
      <trkpt lat="49.28045" lon="0.17844">
        <ele>39.07</ele>
        <time>2020-12-18T19:36:59Z</time>
      </trkpt>
      <trkpt lat="49.28045" lon="0.17846">
        <ele>38.59</ele>
        <time>2020-12-18T19:37:30Z</time>
      </trkpt>
      <trkpt lat="49.28045" lon="0.17848">
        <ele>38.59</ele>
        <time>2020-12-18T19:38:02Z</time>
      </trkpt>
      <trkpt lat="49.28047" lon="0.17848">
        <ele>38.59</ele>
        <time>2020-12-18T19:38:34Z</time>
      </trkpt>
      <trkpt lat="49.28048" lon="0.17847">
        <ele>38.11</ele>
        <time>2020-12-18T19:39:05Z</time>
      </trkpt>
      <trkpt lat="49.28049" lon="0.17845">
        <ele>38.11</ele>
        <time>2020-12-18T19:39:44Z</time>
      </trkpt>
      <trkpt lat="49.28047" lon="0.17844">
        <ele>38.11</ele>
        <time>2020-12-18T19:40:22Z</time>
      </trkpt>
      <trkpt lat="49.28046" lon="0.17844">
        <ele>38.11</ele>
        <time>2020-12-18T19:41:00Z</time>
      </trkpt>
      <trkpt lat="49.28046" lon="0.17846">
        <ele>38.11</ele>
        <time>2020-12-18T19:41:39Z</time>
      </trkpt>
      <trkpt lat="49.28045" lon="0.17845">
        <ele>38.11</ele>
        <time>2020-12-18T19:42:21Z</time>
      </trkpt>
      <trkpt lat="49.28045" lon="0.17845">
        <ele>38.11</ele>
        <time>2020-12-18T19:43:01Z</time>
      </trkpt>
      <trkpt lat="49.28048" lon="0.17844">
        <ele>38.11</ele>
        <time>2020-12-18T19:43:45Z</time>
      </trkpt>
      <trkpt lat="49.28048" lon="0.17845">
        <ele>38.11</ele>
        <time>2020-12-18T19:44:28Z</time>
      </trkpt>
      <trkpt lat="49.28045" lon="0.17843">
        <ele>38.59</ele>
        <time>2020-12-18T19:45:03Z</time>
      </trkpt>
      <trkpt lat="49.28044" lon="0.17842">
        <ele>38.59</ele>
        <time>2020-12-18T19:45:48Z</time>
      </trkpt>
      <trkpt lat="49.28043" lon="0.17845">
        <ele>38.59</ele>
        <time>2020-12-18T19:46:26Z</time>
      </trkpt>
      <trkpt lat="49.28043" lon="0.17844">
        <ele>38.59</ele>
        <time>2020-12-18T19:46:57Z</time>
      </trkpt>
      <trkpt lat="49.28042" lon="0.17847">
        <ele>39.07</ele>
        <time>2020-12-18T19:47:30Z</time>
      </trkpt>
      <trkpt lat="49.28044" lon="0.17846">
        <ele>39.07</ele>
        <time>2020-12-18T19:47:55Z</time>
      </trkpt>
      <trkpt lat="49.28048" lon="0.17845">
        <ele>39.07</ele>
        <time>2020-12-18T19:48:28Z</time>
      </trkpt>
      <trkpt lat="49.28048" lon="0.17846">
        <ele>39.07</ele>
        <time>2020-12-18T19:49:05Z</time>
      </trkpt>
      <trkpt lat="49.28049" lon="0.17846">
        <ele>39.55</ele>
        <time>2020-12-18T19:49:47Z</time>
      </trkpt>
      <trkpt lat="49.28047" lon="0.17845">
        <ele>39.55</ele>
        <time>2020-12-18T19:50:17Z</time>
      </trkpt>
      <trkpt lat="49.28047" lon="0.17842">
        <ele>39.55</ele>
        <time>2020-12-18T19:50:54Z</time>
      </trkpt>
      <trkpt lat="49.28049" lon="0.17842">
        <ele>40.03</ele>
        <time>2020-12-18T19:51:31Z</time>
      </trkpt>
      <trkpt lat="49.28049" lon="0.17844">
        <ele>40.03</ele>
        <time>2020-12-18T19:52:09Z</time>
      </trkpt>
      <trkpt lat="49.28047" lon="0.17843">
        <ele>40.51</ele>
        <time>2020-12-18T19:52:47Z</time>
      </trkpt>
      <trkpt lat="49.28047" lon="0.17843">
        <ele>40.51</ele>
        <time>2020-12-18T19:53:26Z</time>
      </trkpt>
      <trkpt lat="49.28046" lon="0.17842">
        <ele>40.51</ele>
        <time>2020-12-18T19:53:59Z</time>
      </trkpt>
      <trkpt lat="49.28047" lon="0.17843">
        <ele>40.51</ele>
        <time>2020-12-18T19:54:39Z</time>
      </trkpt>
      <trkpt lat="49.28049" lon="0.17843">
        <ele>40.51</ele>
        <time>2020-12-18T19:55:23Z</time>
      </trkpt>
      <trkpt lat="49.28051" lon="0.17843">
        <ele>40.51</ele>
        <time>2020-12-18T19:56:03Z</time>
      </trkpt>
      <trkpt lat="49.28051" lon="0.17841">
        <ele>40.51</ele>
        <time>2020-12-18T19:56:46Z</time>
      </trkpt>
      <trkpt lat="49.28049" lon="0.17841">
        <ele>40.51</ele>
        <time>2020-12-18T19:57:28Z</time>
      </trkpt>
      <trkpt lat="49.28048" lon="0.17842">
        <ele>40.51</ele>
        <time>2020-12-18T19:58:05Z</time>
      </trkpt>
      <trkpt lat="49.28047" lon="0.17843">
        <ele>40.51</ele>
        <time>2020-12-18T19:58:50Z</time>
      </trkpt>
      <trkpt lat="49.28047" lon="0.17843">
        <ele>40.51</ele>
        <time>2020-12-18T19:59:28Z</time>
      </trkpt>
      <trkpt lat="49.28046" lon="0.17843">
        <ele>40.51</ele>
        <time>2020-12-18T20:00:04Z</time>
      </trkpt>
      <trkpt lat="49.28049" lon="0.17844">
        <ele>40.51</ele>
        <time>2020-12-18T20:00:41Z</time>
      </trkpt>
      <trkpt lat="49.28046" lon="0.17843">
        <ele>40.99</ele>
        <time>2020-12-18T20:01:24Z</time>
      </trkpt>
      <trkpt lat="49.28046" lon="0.17842">
        <ele>40.99</ele>
        <time>2020-12-18T20:01:57Z</time>
      </trkpt>
      <trkpt lat="49.28047" lon="0.17843">
        <ele>40.99</ele>
        <time>2020-12-18T20:02:32Z</time>
      </trkpt>
      <trkpt lat="49.28048" lon="0.17841">
        <ele>40.99</ele>
        <time>2020-12-18T20:03:13Z</time>
      </trkpt>
      <trkpt lat="49.28047" lon="0.17842">
        <ele>40.99</ele>
        <time>2020-12-18T20:03:47Z</time>
      </trkpt>
      <trkpt lat="49.28049" lon="0.17844">
        <ele>40.99</ele>
        <time>2020-12-18T20:04:26Z</time>
      </trkpt>
      <trkpt lat="49.28048" lon="0.17842">
        <ele>40.99</ele>
        <time>2020-12-18T20:05:10Z</time>
      </trkpt>
      <trkpt lat="49.28047" lon="0.17843">
        <ele>40.99</ele>
        <time>2020-12-18T20:05:50Z</time>
      </trkpt>
      <trkpt lat="49.28048" lon="0.17843">
        <ele>40.99</ele>
        <time>2020-12-18T20:06:36Z</time>
      </trkpt>
      <trkpt lat="49.28047" lon="0.17843">
        <ele>40.99</ele>
        <time>2020-12-18T20:07:14Z</time>
      </trkpt>
      <trkpt lat="49.28047" lon="0.17843">
        <ele>40.99</ele>
        <time>2020-12-18T20:07:54Z</time>
      </trkpt>
      <trkpt lat="49.28048" lon="0.17844">
        <ele>40.99</ele>
        <time>2020-12-18T20:08:33Z</time>
      </trkpt>
      <trkpt lat="49.28049" lon="0.17843">
        <ele>40.99</ele>
        <time>2020-12-18T20:09:05Z</time>
      </trkpt>
      <trkpt lat="49.28047" lon="0.17845">
        <ele>40.99</ele>
        <time>2020-12-18T20:09:49Z</time>
      </trkpt>
      <trkpt lat="49.28047" lon="0.17844">
        <ele>40.99</ele>
        <time>2020-12-18T20:10:23Z</time>
      </trkpt>
      <trkpt lat="49.28045" lon="0.17843">
        <ele>41.47</ele>
        <time>2020-12-18T20:11:09Z</time>
      </trkpt>
      <trkpt lat="49.28046" lon="0.17841">
        <ele>41.47</ele>
        <time>2020-12-18T20:11:44Z</time>
      </trkpt>
      <trkpt lat="49.28045" lon="0.17841">
        <ele>41.47</ele>
        <time>2020-12-18T20:12:30Z</time>
      </trkpt>
      <trkpt lat="49.28042" lon="0.17843">
        <ele>41.95</ele>
        <time>2020-12-18T20:13:04Z</time>
      </trkpt>
      <trkpt lat="49.28046" lon="0.17845">
        <ele>41.95</ele>
        <time>2020-12-18T20:13:43Z</time>
      </trkpt>
      <trkpt lat="49.28045" lon="0.17844">
        <ele>41.95</ele>
        <time>2020-12-18T20:14:23Z</time>
      </trkpt>
      <trkpt lat="49.28046" lon="0.17843">
        <ele>41.95</ele>
        <time>2020-12-18T20:15:00Z</time>
      </trkpt>
      <trkpt lat="49.28046" lon="0.17844">
        <ele>41.95</ele>
        <time>2020-12-18T20:15:31Z</time>
      </trkpt>
      <trkpt lat="49.28046" lon="0.17844">
        <ele>41.95</ele>
        <time>2020-12-18T20:16:17Z</time>
      </trkpt>
      <trkpt lat="49.28049" lon="0.17845">
        <ele>41.95</ele>
        <time>2020-12-18T20:17:04Z</time>
      </trkpt>
      <trkpt lat="49.28047" lon="0.17844">
        <ele>41.95</ele>
        <time>2020-12-18T20:17:50Z</time>
      </trkpt>
      <trkpt lat="49.28047" lon="0.17843">
        <ele>41.95</ele>
        <time>2020-12-18T20:18:25Z</time>
      </trkpt>
      <trkpt lat="49.28048" lon="0.17844">
        <ele>41.95</ele>
        <time>2020-12-18T20:19:06Z</time>
      </trkpt>
      <trkpt lat="49.28049" lon="0.17844">
        <ele>41.95</ele>
        <time>2020-12-18T20:19:48Z</time>
      </trkpt>
      <trkpt lat="49.28049" lon="0.17849">
        <ele>42.44</ele>
        <time>2020-12-18T20:20:32Z</time>
      </trkpt>
      <trkpt lat="49.2805" lon="0.17847">
        <ele>42.44</ele>
        <time>2020-12-18T20:21:14Z</time>
      </trkpt>
      <trkpt lat="49.28051" lon="0.17844">
        <ele>42.44</ele>
        <time>2020-12-18T20:21:49Z</time>
      </trkpt>
      <trkpt lat="49.28051" lon="0.17846">
        <ele>42.44</ele>
        <time>2020-12-18T20:22:33Z</time>
      </trkpt>
      <trkpt lat="49.28046" lon="0.17848">
        <ele>41.95</ele>
        <time>2020-12-18T20:23:19Z</time>
      </trkpt>
      <trkpt lat="49.28046" lon="0.17847">
        <ele>41.95</ele>
        <time>2020-12-18T20:24:02Z</time>
      </trkpt>
      <trkpt lat="49.28044" lon="0.17844">
        <ele>41.95</ele>
        <time>2020-12-18T20:24:51Z</time>
      </trkpt>
      <trkpt lat="49.28046" lon="0.17845">
        <ele>41.95</ele>
        <time>2020-12-18T20:25:35Z</time>
      </trkpt>
      <trkpt lat="49.28044" lon="0.17842">
        <ele>41.95</ele>
        <time>2020-12-18T20:26:18Z</time>
      </trkpt>
      <trkpt lat="49.28045" lon="0.17842">
        <ele>41.95</ele>
        <time>2020-12-18T20:26:58Z</time>
      </trkpt>
      <trkpt lat="49.28044" lon="0.17841">
        <ele>41.95</ele>
        <time>2020-12-18T20:27:42Z</time>
      </trkpt>
      <trkpt lat="49.28044" lon="0.1784">
        <ele>41.95</ele>
        <time>2020-12-18T20:28:24Z</time>
      </trkpt>
      <trkpt lat="49.28045" lon="0.17841">
        <ele>41.47</ele>
        <time>2020-12-18T20:29:06Z</time>
      </trkpt>
      <trkpt lat="49.28045" lon="0.17843">
        <ele>41.47</ele>
        <time>2020-12-18T20:29:52Z</time>
      </trkpt>
      <trkpt lat="49.28042" lon="0.1784">
        <ele>41.47</ele>
        <time>2020-12-18T20:30:31Z</time>
      </trkpt>
      <trkpt lat="49.28043" lon="0.1784">
        <ele>41.47</ele>
        <time>2020-12-18T20:31:08Z</time>
      </trkpt>
      <trkpt lat="49.28043" lon="0.1784">
        <ele>41.47</ele>
        <time>2020-12-18T20:31:44Z</time>
      </trkpt>
      <trkpt lat="49.28049" lon="0.17845">
        <ele>40.99</ele>
        <time>2020-12-18T20:32:27Z</time>
      </trkpt>
      <trkpt lat="49.28046" lon="0.17842">
        <ele>41.47</ele>
        <time>2020-12-18T20:33:09Z</time>
      </trkpt>
      <trkpt lat="49.28046" lon="0.17841">
        <ele>41.47</ele>
        <time>2020-12-18T20:33:52Z</time>
      </trkpt>
      <trkpt lat="49.2805" lon="0.17844">
        <ele>41.95</ele>
        <time>2020-12-18T20:34:29Z</time>
      </trkpt>
      <trkpt lat="49.28044" lon="0.1784">
        <ele>41.95</ele>
        <time>2020-12-18T20:35:09Z</time>
      </trkpt>
      <trkpt lat="49.28045" lon="0.1784">
        <ele>41.47</ele>
        <time>2020-12-18T20:35:56Z</time>
      </trkpt>
      <trkpt lat="49.28047" lon="0.17841">
        <ele>41.47</ele>
        <time>2020-12-18T20:36:36Z</time>
      </trkpt>
      <trkpt lat="49.2805" lon="0.17843">
        <ele>41.95</ele>
        <time>2020-12-18T20:37:25Z</time>
      </trkpt>
      <trkpt lat="49.2805" lon="0.17842">
        <ele>41.95</ele>
        <time>2020-12-18T20:38:11Z</time>
      </trkpt>
      <trkpt lat="49.28049" lon="0.17839">
        <ele>41.95</ele>
        <time>2020-12-18T20:38:48Z</time>
      </trkpt>
      <trkpt lat="49.28048" lon="0.17841">
        <ele>41.95</ele>
        <time>2020-12-18T20:39:29Z</time>
      </trkpt>
      <trkpt lat="49.28048" lon="0.17839">
        <ele>41.47</ele>
        <time>2020-12-18T20:40:14Z</time>
      </trkpt>
      <trkpt lat="49.28047" lon="0.17841">
        <ele>41.47</ele>
        <time>2020-12-18T20:40:54Z</time>
      </trkpt>
      <trkpt lat="49.2805" lon="0.17845">
        <ele>41.47</ele>
        <time>2020-12-18T20:41:43Z</time>
      </trkpt>
      <trkpt lat="49.28049" lon="0.1784">
        <ele>41.47</ele>
        <time>2020-12-18T20:42:18Z</time>
      </trkpt>
      <trkpt lat="49.28048" lon="0.17839">
        <ele>41.47</ele>
        <time>2020-12-18T20:42:54Z</time>
      </trkpt>
      <trkpt lat="49.28047" lon="0.17841">
        <ele>40.99</ele>
        <time>2020-12-18T20:43:43Z</time>
      </trkpt>
      <trkpt lat="49.28049" lon="0.17841">
        <ele>40.99</ele>
        <time>2020-12-18T20:44:34Z</time>
      </trkpt>
      <trkpt lat="49.28048" lon="0.1784">
        <ele>41.47</ele>
        <time>2020-12-18T20:45:17Z</time>
      </trkpt>
      <trkpt lat="49.28049" lon="0.17841">
        <ele>41.47</ele>
        <time>2020-12-18T20:46:06Z</time>
      </trkpt>
      <trkpt lat="49.28048" lon="0.17842">
        <ele>41.47</ele>
        <time>2020-12-18T20:46:50Z</time>
      </trkpt>
      <trkpt lat="49.28047" lon="0.17843">
        <ele>41.47</ele>
        <time>2020-12-18T20:47:34Z</time>
      </trkpt>
      <trkpt lat="49.28046" lon="0.17844">
        <ele>41.47</ele>
        <time>2020-12-18T20:48:17Z</time>
      </trkpt>
      <trkpt lat="49.28047" lon="0.17843">
        <ele>41.47</ele>
        <time>2020-12-18T20:48:59Z</time>
      </trkpt>
      <trkpt lat="49.28046" lon="0.17842">
        <ele>41.47</ele>
        <time>2020-12-18T20:49:42Z</time>
      </trkpt>
      <trkpt lat="49.28048" lon="0.17843">
        <ele>41.47</ele>
        <time>2020-12-18T20:50:21Z</time>
      </trkpt>
      <trkpt lat="49.28047" lon="0.17844">
        <ele>40.99</ele>
        <time>2020-12-18T20:50:52Z</time>
      </trkpt>
      <trkpt lat="49.28045" lon="0.17838">
        <ele>40.99</ele>
        <time>2020-12-18T20:51:31Z</time>
      </trkpt>
      <trkpt lat="49.28044" lon="0.17836">
        <ele>40.51</ele>
        <time>2020-12-18T20:52:17Z</time>
      </trkpt>
      <trkpt lat="49.28045" lon="0.17836">
        <ele>40.51</ele>
        <time>2020-12-18T20:53:04Z</time>
      </trkpt>
      <trkpt lat="49.28046" lon="0.17843">
        <ele>40.51</ele>
        <time>2020-12-18T20:53:47Z</time>
      </trkpt>
      <trkpt lat="49.28047" lon="0.17841">
        <ele>40.51</ele>
        <time>2020-12-18T20:54:35Z</time>
      </trkpt>
      <trkpt lat="49.28047" lon="0.17844">
        <ele>40.51</ele>
        <time>2020-12-18T20:55:21Z</time>
      </trkpt>
      <trkpt lat="49.28048" lon="0.17844">
        <ele>40.99</ele>
        <time>2020-12-18T20:56:06Z</time>
      </trkpt>
      <trkpt lat="49.28046" lon="0.17843">
        <ele>40.99</ele>
        <time>2020-12-18T20:56:58Z</time>
      </trkpt>
      <trkpt lat="49.28044" lon="0.17842">
        <ele>40.51</ele>
        <time>2020-12-18T20:57:44Z</time>
      </trkpt>
      <trkpt lat="49.28046" lon="0.17843">
        <ele>40.51</ele>
        <time>2020-12-18T20:58:22Z</time>
      </trkpt>
      <trkpt lat="49.28047" lon="0.17842">
        <ele>40.99</ele>
        <time>2020-12-18T20:59:03Z</time>
      </trkpt>
      <trkpt lat="49.28048" lon="0.17842">
        <ele>41.47</ele>
        <time>2020-12-18T20:59:40Z</time>
      </trkpt>
      <trkpt lat="49.28048" lon="0.17841">
        <ele>41.47</ele>
        <time>2020-12-18T21:00:16Z</time>
      </trkpt>
      <trkpt lat="49.28049" lon="0.1784">
        <ele>41.47</ele>
        <time>2020-12-18T21:01:01Z</time>
      </trkpt>
      <trkpt lat="49.28048" lon="0.17842">
        <ele>40.99</ele>
        <time>2020-12-18T21:01:43Z</time>
      </trkpt>
      <trkpt lat="49.28048" lon="0.17842">
        <ele>40.99</ele>
        <time>2020-12-18T21:02:30Z</time>
      </trkpt>
      <trkpt lat="49.28048" lon="0.17841">
        <ele>41.47</ele>
        <time>2020-12-18T21:03:12Z</time>
      </trkpt>
      <trkpt lat="49.28049" lon="0.17841">
        <ele>41.47</ele>
        <time>2020-12-18T21:03:55Z</time>
      </trkpt>
      <trkpt lat="49.28048" lon="0.17842">
        <ele>40.99</ele>
        <time>2020-12-18T21:04:36Z</time>
      </trkpt>
      <trkpt lat="49.2805" lon="0.17841">
        <ele>40.99</ele>
        <time>2020-12-18T21:05:18Z</time>
      </trkpt>
      <trkpt lat="49.28049" lon="0.17842">
        <ele>40.99</ele>
        <time>2020-12-18T21:05:58Z</time>
      </trkpt>
      <trkpt lat="49.2805" lon="0.17842">
        <ele>40.99</ele>
        <time>2020-12-18T21:06:47Z</time>
      </trkpt>
      <trkpt lat="49.2805" lon="0.17842">
        <ele>40.99</ele>
        <time>2020-12-18T21:07:33Z</time>
      </trkpt>
      <trkpt lat="49.28048" lon="0.17841">
        <ele>40.99</ele>
        <time>2020-12-18T21:08:25Z</time>
      </trkpt>
      <trkpt lat="49.28047" lon="0.17842">
        <ele>41.47</ele>
        <time>2020-12-18T21:09:06Z</time>
      </trkpt>
      <trkpt lat="49.28048" lon="0.17843">
        <ele>41.47</ele>
        <time>2020-12-18T21:09:45Z</time>
      </trkpt>
      <trkpt lat="49.28049" lon="0.17842">
        <ele>41.47</ele>
        <time>2020-12-18T21:10:33Z</time>
      </trkpt>
      <trkpt lat="49.28049" lon="0.17841">
        <ele>41.47</ele>
        <time>2020-12-18T21:11:13Z</time>
      </trkpt>
      <trkpt lat="49.28047" lon="0.17843">
        <ele>41.47</ele>
        <time>2020-12-18T21:11:56Z</time>
      </trkpt>
      <trkpt lat="49.28049" lon="0.17841">
        <ele>41.95</ele>
        <time>2020-12-18T21:12:37Z</time>
      </trkpt>
      <trkpt lat="49.28049" lon="0.17842">
        <ele>41.95</ele>
        <time>2020-12-18T21:13:12Z</time>
      </trkpt>
      <trkpt lat="49.28048" lon="0.17841">
        <ele>41.95</ele>
        <time>2020-12-18T21:13:54Z</time>
      </trkpt>
      <trkpt lat="49.28049" lon="0.17843">
        <ele>41.95</ele>
        <time>2020-12-18T21:14:31Z</time>
      </trkpt>
      <trkpt lat="49.28048" lon="0.17841">
        <ele>41.95</ele>
        <time>2020-12-18T21:15:07Z</time>
      </trkpt>
      <trkpt lat="49.28049" lon="0.1784">
        <ele>42.44</ele>
        <time>2020-12-18T21:15:55Z</time>
      </trkpt>
      <trkpt lat="49.28049" lon="0.1784">
        <ele>42.92</ele>
        <time>2020-12-18T21:16:40Z</time>
      </trkpt>
      <trkpt lat="49.28047" lon="0.1784">
        <ele>42.92</ele>
        <time>2020-12-18T21:17:21Z</time>
      </trkpt>
      <trkpt lat="49.28048" lon="0.17845">
        <ele>42.92</ele>
        <time>2020-12-18T21:18:02Z</time>
      </trkpt>
      <trkpt lat="49.28048" lon="0.17847">
        <ele>42.92</ele>
        <time>2020-12-18T21:18:39Z</time>
      </trkpt>
      <trkpt lat="49.28051" lon="0.17845">
        <ele>42.92</ele>
        <time>2020-12-18T21:19:15Z</time>
      </trkpt>
      <trkpt lat="49.28051" lon="0.17843">
        <ele>42.92</ele>
        <time>2020-12-18T21:20:07Z</time>
      </trkpt>
      <trkpt lat="49.28048" lon="0.17843">
        <ele>41.47</ele>
        <time>2020-12-18T21:20:56Z</time>
      </trkpt>
      <trkpt lat="49.28048" lon="0.17843">
        <ele>42.92</ele>
        <time>2020-12-18T21:21:40Z</time>
      </trkpt>
      <trkpt lat="49.28049" lon="0.17842">
        <ele>42.92</ele>
        <time>2020-12-18T21:22:13Z</time>
      </trkpt>
      <trkpt lat="49.28048" lon="0.17842">
        <ele>42.92</ele>
        <time>2020-12-18T21:22:46Z</time>
      </trkpt>
      <trkpt lat="49.28049" lon="0.17842">
        <ele>42.92</ele>
        <time>2020-12-18T21:23:27Z</time>
      </trkpt>
      <trkpt lat="49.28049" lon="0.17841">
        <ele>42.92</ele>
        <time>2020-12-18T21:24:09Z</time>
      </trkpt>
      <trkpt lat="49.28049" lon="0.17842">
        <ele>42.92</ele>
        <time>2020-12-18T21:24:54Z</time>
      </trkpt>
      <trkpt lat="49.28048" lon="0.1784">
        <ele>42.44</ele>
        <time>2020-12-18T21:25:37Z</time>
      </trkpt>
      <trkpt lat="49.2805" lon="0.17837">
        <ele>42.92</ele>
        <time>2020-12-18T21:26:12Z</time>
      </trkpt>
      <trkpt lat="49.2805" lon="0.1784">
        <ele>42.92</ele>
        <time>2020-12-18T21:26:47Z</time>
      </trkpt>
      <trkpt lat="49.28049" lon="0.17845">
        <ele>42.92</ele>
        <time>2020-12-18T21:27:20Z</time>
      </trkpt>
      <trkpt lat="49.28049" lon="0.17843">
        <ele>42.92</ele>
        <time>2020-12-18T21:27:56Z</time>
      </trkpt>
      <trkpt lat="49.28049" lon="0.17841">
        <ele>43.4</ele>
        <time>2020-12-18T21:28:30Z</time>
      </trkpt>
      <trkpt lat="49.2805" lon="0.17839">
        <ele>43.4</ele>
        <time>2020-12-18T21:29:10Z</time>
      </trkpt>
      <trkpt lat="49.2805" lon="0.17845">
        <ele>43.4</ele>
        <time>2020-12-18T21:29:44Z</time>
      </trkpt>
      <trkpt lat="49.2805" lon="0.17844">
        <ele>43.4</ele>
        <time>2020-12-18T21:30:15Z</time>
      </trkpt>
      <trkpt lat="49.28048" lon="0.17845">
        <ele>43.4</ele>
        <time>2020-12-18T21:30:48Z</time>
      </trkpt>
      <trkpt lat="49.28048" lon="0.17842">
        <ele>43.4</ele>
        <time>2020-12-18T21:31:22Z</time>
      </trkpt>
      <trkpt lat="49.28046" lon="0.17844">
        <ele>43.88</ele>
        <time>2020-12-18T21:31:58Z</time>
      </trkpt>
      <trkpt lat="49.28045" lon="0.17844">
        <ele>43.4</ele>
        <time>2020-12-18T21:32:36Z</time>
      </trkpt>
      <trkpt lat="49.28047" lon="0.17844">
        <ele>43.4</ele>
        <time>2020-12-18T21:33:17Z</time>
      </trkpt>
      <trkpt lat="49.28048" lon="0.17846">
        <ele>42.92</ele>
        <time>2020-12-18T21:34:00Z</time>
      </trkpt>
      <trkpt lat="49.28047" lon="0.17844">
        <ele>42.92</ele>
        <time>2020-12-18T21:34:38Z</time>
      </trkpt>
      <trkpt lat="49.28048" lon="0.17843">
        <ele>42.44</ele>
        <time>2020-12-18T21:35:14Z</time>
      </trkpt>
      <trkpt lat="49.28048" lon="0.17843">
        <ele>42.44</ele>
        <time>2020-12-18T21:35:48Z</time>
      </trkpt>
      <trkpt lat="49.28048" lon="0.17842">
        <ele>42.44</ele>
        <time>2020-12-18T21:36:35Z</time>
      </trkpt>
      <trkpt lat="49.28047" lon="0.17841">
        <ele>41.95</ele>
        <time>2020-12-18T21:37:07Z</time>
      </trkpt>
      <trkpt lat="49.28047" lon="0.17839">
        <ele>41.95</ele>
        <time>2020-12-18T21:37:50Z</time>
      </trkpt>
      <trkpt lat="49.28048" lon="0.17841">
        <ele>41.47</ele>
        <time>2020-12-18T21:38:17Z</time>
      </trkpt>
      <trkpt lat="49.28048" lon="0.1784">
        <ele>41.47</ele>
        <time>2020-12-18T21:38:56Z</time>
      </trkpt>
      <trkpt lat="49.28048" lon="0.17842">
        <ele>41.47</ele>
        <time>2020-12-18T21:39:32Z</time>
      </trkpt>
      <trkpt lat="49.28048" lon="0.17843">
        <ele>41.47</ele>
        <time>2020-12-18T21:40:05Z</time>
      </trkpt>
      <trkpt lat="49.28047" lon="0.17842">
        <ele>41.47</ele>
        <time>2020-12-18T21:40:33Z</time>
      </trkpt>
      <trkpt lat="49.28047" lon="0.17841">
        <ele>41.47</ele>
        <time>2020-12-18T21:41:06Z</time>
      </trkpt>
      <trkpt lat="49.28047" lon="0.17841">
        <ele>41.47</ele>
        <time>2020-12-18T21:41:43Z</time>
      </trkpt>
      <trkpt lat="49.28047" lon="0.1784">
        <ele>41.47</ele>
        <time>2020-12-18T21:42:25Z</time>
      </trkpt>
      <trkpt lat="49.28048" lon="0.17839">
        <ele>40.99</ele>
        <time>2020-12-18T21:43:04Z</time>
      </trkpt>
      <trkpt lat="49.28047" lon="0.17839">
        <ele>41.47</ele>
        <time>2020-12-18T21:43:36Z</time>
      </trkpt>
      <trkpt lat="49.28047" lon="0.17841">
        <ele>40.99</ele>
        <time>2020-12-18T21:44:20Z</time>
      </trkpt>
      <trkpt lat="49.28048" lon="0.17842">
        <ele>40.99</ele>
        <time>2020-12-18T21:45:00Z</time>
      </trkpt>
      <trkpt lat="49.28049" lon="0.17842">
        <ele>40.99</ele>
        <time>2020-12-18T21:45:31Z</time>
      </trkpt>
      <trkpt lat="49.28048" lon="0.17841">
        <ele>40.99</ele>
        <time>2020-12-18T21:46:11Z</time>
      </trkpt>
      <trkpt lat="49.28047" lon="0.17846">
        <ele>40.99</ele>
        <time>2020-12-18T21:46:51Z</time>
      </trkpt>
      <trkpt lat="49.28047" lon="0.17846">
        <ele>40.99</ele>
        <time>2020-12-18T21:47:24Z</time>
      </trkpt>
      <trkpt lat="49.28047" lon="0.17844">
        <ele>40.99</ele>
        <time>2020-12-18T21:47:56Z</time>
      </trkpt>
      <trkpt lat="49.28047" lon="0.17844">
        <ele>40.51</ele>
        <time>2020-12-18T21:48:27Z</time>
      </trkpt>
      <trkpt lat="49.28048" lon="0.17841">
        <ele>40.51</ele>
        <time>2020-12-18T21:48:56Z</time>
      </trkpt>
      <trkpt lat="49.28047" lon="0.17843">
        <ele>40.51</ele>
        <time>2020-12-18T21:49:29Z</time>
      </trkpt>
      <trkpt lat="49.28048" lon="0.17843">
        <ele>40.99</ele>
        <time>2020-12-18T21:50:09Z</time>
      </trkpt>
      <trkpt lat="49.28049" lon="0.17844">
        <ele>40.99</ele>
        <time>2020-12-18T21:50:47Z</time>
      </trkpt>
      <trkpt lat="49.28048" lon="0.17845">
        <ele>41.47</ele>
        <time>2020-12-18T21:51:30Z</time>
      </trkpt>
      <trkpt lat="49.28047" lon="0.17845">
        <ele>41.47</ele>
        <time>2020-12-18T21:52:12Z</time>
      </trkpt>
      <trkpt lat="49.28048" lon="0.17845">
        <ele>41.47</ele>
        <time>2020-12-18T21:52:58Z</time>
      </trkpt>
      <trkpt lat="49.28047" lon="0.17844">
        <ele>41.47</ele>
        <time>2020-12-18T21:53:40Z</time>
      </trkpt>
      <trkpt lat="49.28045" lon="0.17843">
        <ele>41.47</ele>
        <time>2020-12-18T21:54:25Z</time>
      </trkpt>
      <trkpt lat="49.28046" lon="0.17843">
        <ele>40.99</ele>
        <time>2020-12-18T21:55:05Z</time>
      </trkpt>
      <trkpt lat="49.28048" lon="0.17843">
        <ele>40.99</ele>
        <time>2020-12-18T21:55:48Z</time>
      </trkpt>
      <trkpt lat="49.28046" lon="0.17843">
        <ele>40.99</ele>
        <time>2020-12-18T21:56:38Z</time>
      </trkpt>
      <trkpt lat="49.28048" lon="0.17842">
        <ele>41.47</ele>
        <time>2020-12-18T21:57:28Z</time>
      </trkpt>
      <trkpt lat="49.28049" lon="0.1784">
        <ele>41.47</ele>
        <time>2020-12-18T21:58:09Z</time>
      </trkpt>
      <trkpt lat="49.2805" lon="0.17842">
        <ele>41.47</ele>
        <time>2020-12-18T21:58:52Z</time>
      </trkpt>
      <trkpt lat="49.28049" lon="0.17842">
        <ele>41.47</ele>
        <time>2020-12-18T21:59:33Z</time>
      </trkpt>
      <trkpt lat="49.28046" lon="0.17842">
        <ele>40.99</ele>
        <time>2020-12-18T22:00:15Z</time>
      </trkpt>
      <trkpt lat="49.28046" lon="0.17842">
        <ele>41.95</ele>
        <time>2020-12-18T22:01:02Z</time>
      </trkpt>
      <trkpt lat="49.28047" lon="0.17841">
        <ele>41.95</ele>
        <time>2020-12-18T22:01:53Z</time>
      </trkpt>
      <trkpt lat="49.28046" lon="0.1784">
        <ele>41.95</ele>
        <time>2020-12-18T22:02:32Z</time>
      </trkpt>
      <trkpt lat="49.28046" lon="0.17844">
        <ele>41.95</ele>
        <time>2020-12-18T22:03:12Z</time>
      </trkpt>
      <trkpt lat="49.28046" lon="0.17843">
        <ele>41.95</ele>
        <time>2020-12-18T22:03:56Z</time>
      </trkpt>
      <trkpt lat="49.28046" lon="0.17845">
        <ele>41.47</ele>
        <time>2020-12-18T22:04:37Z</time>
      </trkpt>
      <trkpt lat="49.28046" lon="0.17843">
        <ele>41.47</ele>
        <time>2020-12-18T22:05:23Z</time>
      </trkpt>
      <trkpt lat="49.28044" lon="0.17844">
        <ele>41.95</ele>
        <time>2020-12-18T22:06:01Z</time>
      </trkpt>
      <trkpt lat="49.28047" lon="0.1784">
        <ele>41.95</ele>
        <time>2020-12-18T22:06:44Z</time>
      </trkpt>
      <trkpt lat="49.28047" lon="0.17843">
        <ele>42.44</ele>
        <time>2020-12-18T22:07:26Z</time>
      </trkpt>
      <trkpt lat="49.28049" lon="0.17843">
        <ele>42.44</ele>
        <time>2020-12-18T22:08:11Z</time>
      </trkpt>
      <trkpt lat="49.28048" lon="0.17844">
        <ele>42.44</ele>
        <time>2020-12-18T22:08:57Z</time>
      </trkpt>
      <trkpt lat="49.28049" lon="0.17843">
        <ele>42.44</ele>
        <time>2020-12-18T22:09:46Z</time>
      </trkpt>
      <trkpt lat="49.2805" lon="0.17842">
        <ele>42.44</ele>
        <time>2020-12-18T22:10:23Z</time>
      </trkpt>
      <trkpt lat="49.28048" lon="0.17844">
        <ele>42.44</ele>
        <time>2020-12-18T22:11:03Z</time>
      </trkpt>
      <trkpt lat="49.28049" lon="0.17844">
        <ele>42.44</ele>
        <time>2020-12-18T22:11:48Z</time>
      </trkpt>
      <trkpt lat="49.2805" lon="0.17844">
        <ele>42.44</ele>
        <time>2020-12-18T22:12:32Z</time>
      </trkpt>
      <trkpt lat="49.28051" lon="0.17844">
        <ele>41.95</ele>
        <time>2020-12-18T22:13:19Z</time>
      </trkpt>
      <trkpt lat="49.28051" lon="0.17844">
        <ele>41.95</ele>
        <time>2020-12-18T22:14:13Z</time>
      </trkpt>
      <trkpt lat="49.2805" lon="0.17844">
        <ele>42.44</ele>
        <time>2020-12-18T22:15:04Z</time>
      </trkpt>
      <trkpt lat="49.28049" lon="0.17843">
        <ele>42.44</ele>
        <time>2020-12-18T22:15:57Z</time>
      </trkpt>
      <trkpt lat="49.28049" lon="0.17843">
        <ele>42.44</ele>
        <time>2020-12-18T22:16:46Z</time>
      </trkpt>
      <trkpt lat="49.28049" lon="0.17842">
        <ele>42.44</ele>
        <time>2020-12-18T22:17:33Z</time>
      </trkpt>
      <trkpt lat="49.28049" lon="0.17842">
        <ele>41.95</ele>
        <time>2020-12-18T22:18:20Z</time>
      </trkpt>
      <trkpt lat="49.28048" lon="0.17841">
        <ele>42.92</ele>
        <time>2020-12-18T22:19:19Z</time>
      </trkpt>
      <trkpt lat="49.28047" lon="0.17841">
        <ele>43.4</ele>
        <time>2020-12-18T22:20:18Z</time>
      </trkpt>
      <trkpt lat="49.28046" lon="0.17843">
        <ele>43.4</ele>
        <time>2020-12-18T22:21:08Z</time>
      </trkpt>
      <trkpt lat="49.28046" lon="0.17842">
        <ele>44.36</ele>
        <time>2020-12-18T22:21:50Z</time>
      </trkpt>
      <trkpt lat="49.28046" lon="0.17844">
        <ele>44.36</ele>
        <time>2020-12-18T22:22:32Z</time>
      </trkpt>
      <trkpt lat="49.28046" lon="0.17841">
        <ele>44.36</ele>
        <time>2020-12-18T22:23:24Z</time>
      </trkpt>
      <trkpt lat="49.28046" lon="0.17845">
        <ele>45.32</ele>
        <time>2020-12-18T22:24:13Z</time>
      </trkpt>
      <trkpt lat="49.28046" lon="0.17847">
        <ele>45.32</ele>
        <time>2020-12-18T22:25:05Z</time>
      </trkpt>
      <trkpt lat="49.28046" lon="0.17846">
        <ele>45.8</ele>
        <time>2020-12-18T22:25:51Z</time>
      </trkpt>
      <trkpt lat="49.28048" lon="0.17843">
        <ele>45.8</ele>
        <time>2020-12-18T22:26:41Z</time>
      </trkpt>
      <trkpt lat="49.28049" lon="0.17847">
        <ele>44.36</ele>
        <time>2020-12-18T22:27:23Z</time>
      </trkpt>
      <trkpt lat="49.2805" lon="0.17847">
        <ele>44.36</ele>
        <time>2020-12-18T22:28:12Z</time>
      </trkpt>
      <trkpt lat="49.28048" lon="0.17841">
        <ele>45.8</ele>
        <time>2020-12-18T22:28:54Z</time>
      </trkpt>
      <trkpt lat="49.28048" lon="0.17841">
        <ele>45.8</ele>
        <time>2020-12-18T22:29:37Z</time>
      </trkpt>
      <trkpt lat="49.28048" lon="0.17843">
        <ele>45.8</ele>
        <time>2020-12-18T22:30:27Z</time>
      </trkpt>
      <trkpt lat="49.28048" lon="0.17845">
        <ele>45.8</ele>
        <time>2020-12-18T22:31:15Z</time>
      </trkpt>
      <trkpt lat="49.28048" lon="0.17846">
        <ele>46.76</ele>
        <time>2020-12-18T22:32:01Z</time>
      </trkpt>
      <trkpt lat="49.28047" lon="0.17845">
        <ele>46.28</ele>
        <time>2020-12-18T22:32:49Z</time>
      </trkpt>
      <trkpt lat="49.28046" lon="0.17841">
        <ele>46.28</ele>
        <time>2020-12-18T22:33:31Z</time>
      </trkpt>
      <trkpt lat="49.28047" lon="0.17843">
        <ele>46.28</ele>
        <time>2020-12-18T22:34:25Z</time>
      </trkpt>
      <trkpt lat="49.28048" lon="0.17844">
        <ele>45.8</ele>
        <time>2020-12-18T22:35:10Z</time>
      </trkpt>
      <trkpt lat="49.28048" lon="0.17844">
        <ele>45.8</ele>
        <time>2020-12-18T22:35:53Z</time>
      </trkpt>
      <trkpt lat="49.2805" lon="0.17848">
        <ele>45.8</ele>
        <time>2020-12-18T22:36:40Z</time>
      </trkpt>
      <trkpt lat="49.2805" lon="0.17847">
        <ele>45.8</ele>
        <time>2020-12-18T22:37:25Z</time>
      </trkpt>
      <trkpt lat="49.28051" lon="0.17845">
        <ele>45.8</ele>
        <time>2020-12-18T22:38:04Z</time>
      </trkpt>
      <trkpt lat="49.28049" lon="0.17848">
        <ele>45.8</ele>
        <time>2020-12-18T22:38:47Z</time>
      </trkpt>
      <trkpt lat="49.28047" lon="0.17845">
        <ele>45.8</ele>
        <time>2020-12-18T22:39:26Z</time>
      </trkpt>
      <trkpt lat="49.28048" lon="0.17842">
        <ele>45.32</ele>
        <time>2020-12-18T22:40:13Z</time>
      </trkpt>
      <trkpt lat="49.28049" lon="0.17843">
        <ele>45.32</ele>
        <time>2020-12-18T22:41:00Z</time>
      </trkpt>
      <trkpt lat="49.28047" lon="0.17845">
        <ele>43.88</ele>
        <time>2020-12-18T22:41:49Z</time>
      </trkpt>
      <trkpt lat="49.28048" lon="0.17846">
        <ele>43.88</ele>
        <time>2020-12-18T22:42:37Z</time>
      </trkpt>
      <trkpt lat="49.28049" lon="0.17844">
        <ele>43.88</ele>
        <time>2020-12-18T22:43:21Z</time>
      </trkpt>
      <trkpt lat="49.28048" lon="0.17846">
        <ele>43.88</ele>
        <time>2020-12-18T22:44:03Z</time>
      </trkpt>
      <trkpt lat="49.28049" lon="0.17843">
        <ele>43.4</ele>
        <time>2020-12-18T22:44:46Z</time>
      </trkpt>
      <trkpt lat="49.2805" lon="0.17842">
        <ele>42.92</ele>
        <time>2020-12-18T22:45:32Z</time>
      </trkpt>
      <trkpt lat="49.28048" lon="0.17842">
        <ele>42.44</ele>
        <time>2020-12-18T22:46:15Z</time>
      </trkpt>
      <trkpt lat="49.28048" lon="0.17842">
        <ele>42.44</ele>
        <time>2020-12-18T22:46:57Z</time>
      </trkpt>
      <trkpt lat="49.28049" lon="0.17844">
        <ele>41.47</ele>
        <time>2020-12-18T22:47:34Z</time>
      </trkpt>
      <trkpt lat="49.28051" lon="0.17842">
        <ele>41.47</ele>
        <time>2020-12-18T22:48:23Z</time>
      </trkpt>
      <trkpt lat="49.28052" lon="0.17839">
        <ele>40.99</ele>
        <time>2020-12-18T22:49:02Z</time>
      </trkpt>
      <trkpt lat="49.28052" lon="0.17842">
        <ele>40.99</ele>
        <time>2020-12-18T22:49:45Z</time>
      </trkpt>
      <trkpt lat="49.28052" lon="0.17841">
        <ele>40.51</ele>
        <time>2020-12-18T22:50:24Z</time>
      </trkpt>
      <trkpt lat="49.2805" lon="0.17842">
        <ele>40.51</ele>
        <time>2020-12-18T22:51:04Z</time>
      </trkpt>
      <trkpt lat="49.28049" lon="0.17847">
        <ele>40.51</ele>
        <time>2020-12-18T22:51:49Z</time>
      </trkpt>
      <trkpt lat="49.2805" lon="0.17845">
        <ele>41.47</ele>
        <time>2020-12-18T22:52:29Z</time>
      </trkpt>
      <trkpt lat="49.2805" lon="0.17844">
        <ele>41.47</ele>
        <time>2020-12-18T22:53:07Z</time>
      </trkpt>
      <trkpt lat="49.28047" lon="0.17846">
        <ele>41.47</ele>
        <time>2020-12-18T22:53:47Z</time>
      </trkpt>
      <trkpt lat="49.28047" lon="0.17847">
        <ele>41.47</ele>
        <time>2020-12-18T22:54:23Z</time>
      </trkpt>
      <trkpt lat="49.28049" lon="0.17846">
        <ele>41.47</ele>
        <time>2020-12-18T22:55:04Z</time>
      </trkpt>
      <trkpt lat="49.28049" lon="0.17846">
        <ele>41.47</ele>
        <time>2020-12-18T22:55:42Z</time>
      </trkpt>
      <trkpt lat="49.2805" lon="0.17846">
        <ele>41.47</ele>
        <time>2020-12-18T22:56:26Z</time>
      </trkpt>
      <trkpt lat="49.28049" lon="0.17843">
        <ele>40.03</ele>
        <time>2020-12-18T22:57:11Z</time>
      </trkpt>
      <trkpt lat="49.28049" lon="0.17846">
        <ele>40.03</ele>
        <time>2020-12-18T22:57:57Z</time>
      </trkpt>
      <trkpt lat="49.28051" lon="0.17846">
        <ele>40.03</ele>
        <time>2020-12-18T22:58:46Z</time>
      </trkpt>
      <trkpt lat="49.2805" lon="0.17842">
        <ele>40.03</ele>
        <time>2020-12-18T22:59:27Z</time>
      </trkpt>
      <trkpt lat="49.2805" lon="0.17842">
        <ele>40.03</ele>
        <time>2020-12-18T23:00:00Z</time>
      </trkpt>
    </trkseg>
  </trk>
</gpx>